<?xml version="1.0" encoding="UTF-8" standalone="no" ?>
<gpx xmlns="http://www.topografix.com/GPX/1/1" xmlns:xsi="http://www.w3.org/2001/XMLSchema-instance" xsi:schemaLocation="http://www.topografix.com/GPX/1/1 http://www.topografix.com/GPX/1/1/gpx.xsd" version="1.1" creator="VisuGPX - https://www.visugpx.com">
  <metadata>
    <name>Bouguenais</name>
    <desc><![CDATA[Randonnée à Bouguenais
Pont La vigne , bord de Loire , Roche Balue]]></desc>
  </metadata>
  <trk>
    <name><![CDATA[Bouguenais_1]]></name>
    <trkseg>
      <trkpt lat="47.18069" lon="-1.62223">
        <ele>6</ele>
        <time>2016-08-31T07:00:40Z</time>
      </trkpt>
      <trkpt lat="47.1809" lon="-1.62198">
        <ele>4</ele>
        <time>2016-08-31T07:01:01Z</time>
      </trkpt>
      <trkpt lat="47.18096" lon="-1.62192">
        <ele>3</ele>
        <time>2016-08-31T07:01:06Z</time>
      </trkpt>
      <trkpt lat="47.18101" lon="-1.62187">
        <ele>3</ele>
        <time>2016-08-31T07:01:11Z</time>
      </trkpt>
      <trkpt lat="47.18106" lon="-1.6219">
        <ele>1</ele>
        <time>2016-08-31T07:01:16Z</time>
      </trkpt>
      <trkpt lat="47.18111" lon="-1.62198">
        <ele>1</ele>
        <time>2016-08-31T07:01:21Z</time>
      </trkpt>
      <trkpt lat="47.18111" lon="-1.62207">
        <ele>1</ele>
        <time>2016-08-31T07:01:26Z</time>
      </trkpt>
      <trkpt lat="47.18114" lon="-1.62217">
        <ele>1</ele>
        <time>2016-08-31T07:01:31Z</time>
      </trkpt>
      <trkpt lat="47.18117" lon="-1.62227">
        <ele>1</ele>
        <time>2016-08-31T07:01:36Z</time>
      </trkpt>
      <trkpt lat="47.18122" lon="-1.62233">
        <ele>1</ele>
        <time>2016-08-31T07:01:41Z</time>
      </trkpt>
      <trkpt lat="47.18129" lon="-1.62239">
        <ele>1</ele>
        <time>2016-08-31T07:01:46Z</time>
      </trkpt>
      <trkpt lat="47.18134" lon="-1.62244">
        <ele>1</ele>
        <time>2016-08-31T07:01:51Z</time>
      </trkpt>
      <trkpt lat="47.1814" lon="-1.6225">
        <ele>1</ele>
        <time>2016-08-31T07:01:56Z</time>
      </trkpt>
      <trkpt lat="47.18145" lon="-1.62257">
        <ele>1</ele>
        <time>2016-08-31T07:02:01Z</time>
      </trkpt>
      <trkpt lat="47.1815" lon="-1.62263">
        <ele>1</ele>
        <time>2016-08-31T07:02:06Z</time>
      </trkpt>
      <trkpt lat="47.18151" lon="-1.62273">
        <ele>1</ele>
        <time>2016-08-31T07:02:11Z</time>
      </trkpt>
      <trkpt lat="47.1815" lon="-1.62282">
        <ele>1</ele>
        <time>2016-08-31T07:02:16Z</time>
      </trkpt>
      <trkpt lat="47.18148" lon="-1.62292">
        <ele>1</ele>
        <time>2016-08-31T07:02:21Z</time>
      </trkpt>
      <trkpt lat="47.18147" lon="-1.623">
        <ele>1</ele>
        <time>2016-08-31T07:02:26Z</time>
      </trkpt>
      <trkpt lat="47.18146" lon="-1.62311">
        <ele>1</ele>
        <time>2016-08-31T07:02:31Z</time>
      </trkpt>
      <trkpt lat="47.18147" lon="-1.62321">
        <ele>1</ele>
        <time>2016-08-31T07:02:36Z</time>
      </trkpt>
      <trkpt lat="47.1815" lon="-1.62331">
        <ele>1</ele>
        <time>2016-08-31T07:02:41Z</time>
      </trkpt>
      <trkpt lat="47.18153" lon="-1.62339">
        <ele>3.2</ele>
        <time>2016-08-31T07:02:46Z</time>
      </trkpt>
      <trkpt lat="47.18158" lon="-1.62349">
        <ele>3.6</ele>
        <time>2016-08-31T07:02:51Z</time>
      </trkpt>
      <trkpt lat="47.18162" lon="-1.62356">
        <ele>3.8</ele>
        <time>2016-08-31T07:02:56Z</time>
      </trkpt>
      <trkpt lat="47.18166" lon="-1.62363">
        <ele>4</ele>
        <time>2016-08-31T07:03:01Z</time>
      </trkpt>
      <trkpt lat="47.18171" lon="-1.6237">
        <ele>3.6</ele>
        <time>2016-08-31T07:03:06Z</time>
      </trkpt>
      <trkpt lat="47.18175" lon="-1.62379">
        <ele>3.2</ele>
        <time>2016-08-31T07:03:11Z</time>
      </trkpt>
      <trkpt lat="47.18179" lon="-1.62389">
        <ele>3</ele>
        <time>2016-08-31T07:03:16Z</time>
      </trkpt>
      <trkpt lat="47.18183" lon="-1.62398">
        <ele>3.5</ele>
        <time>2016-08-31T07:03:21Z</time>
      </trkpt>
      <trkpt lat="47.18187" lon="-1.62407">
        <ele>3.8</ele>
        <time>2016-08-31T07:03:26Z</time>
      </trkpt>
      <trkpt lat="47.18193" lon="-1.62415">
        <ele>4</ele>
        <time>2016-08-31T07:03:32Z</time>
      </trkpt>
      <trkpt lat="47.18197" lon="-1.62423">
        <ele>3.7</ele>
        <time>2016-08-31T07:03:37Z</time>
      </trkpt>
      <trkpt lat="47.18201" lon="-1.62433">
        <ele>3.3</ele>
        <time>2016-08-31T07:03:42Z</time>
      </trkpt>
      <trkpt lat="47.18205" lon="-1.62442">
        <ele>3.1</ele>
        <time>2016-08-31T07:03:47Z</time>
      </trkpt>
      <trkpt lat="47.1821" lon="-1.62453">
        <ele>3.4</ele>
        <time>2016-08-31T07:03:53Z</time>
      </trkpt>
      <trkpt lat="47.18215" lon="-1.62461">
        <ele>3.7</ele>
        <time>2016-08-31T07:03:58Z</time>
      </trkpt>
      <trkpt lat="47.1822" lon="-1.62467">
        <ele>3.9</ele>
        <time>2016-08-31T07:04:03Z</time>
      </trkpt>
      <trkpt lat="47.18226" lon="-1.62473">
        <ele>4</ele>
        <time>2016-08-31T07:04:08Z</time>
      </trkpt>
      <trkpt lat="47.18232" lon="-1.62478">
        <ele>4.1</ele>
        <time>2016-08-31T07:04:13Z</time>
      </trkpt>
      <trkpt lat="47.18238" lon="-1.62483">
        <ele>3.9</ele>
        <time>2016-08-31T07:04:18Z</time>
      </trkpt>
      <trkpt lat="47.18245" lon="-1.6248">
        <ele>3.8</ele>
        <time>2016-08-31T07:04:23Z</time>
      </trkpt>
      <trkpt lat="47.18252" lon="-1.62476">
        <ele>3.8</ele>
        <time>2016-08-31T07:04:28Z</time>
      </trkpt>
      <trkpt lat="47.18258" lon="-1.62472">
        <ele>3.7</ele>
        <time>2016-08-31T07:04:33Z</time>
      </trkpt>
      <trkpt lat="47.18264" lon="-1.62468">
        <ele>3.4</ele>
        <time>2016-08-31T07:04:38Z</time>
      </trkpt>
      <trkpt lat="47.1827" lon="-1.62465">
        <ele>3.2</ele>
        <time>2016-08-31T07:04:43Z</time>
      </trkpt>
      <trkpt lat="47.18277" lon="-1.62461">
        <ele>3</ele>
        <time>2016-08-31T07:04:48Z</time>
      </trkpt>
      <trkpt lat="47.18284" lon="-1.62458">
        <ele>3</ele>
        <time>2016-08-31T07:04:53Z</time>
      </trkpt>
      <trkpt lat="47.18292" lon="-1.62454">
        <ele>3</ele>
        <time>2016-08-31T07:04:58Z</time>
      </trkpt>
      <trkpt lat="47.18298" lon="-1.62449">
        <ele>3</ele>
        <time>2016-08-31T07:05:03Z</time>
      </trkpt>
      <trkpt lat="47.18302" lon="-1.62439">
        <ele>3</ele>
        <time>2016-08-31T07:05:09Z</time>
      </trkpt>
      <trkpt lat="47.18307" lon="-1.62431">
        <ele>3</ele>
        <time>2016-08-31T07:05:14Z</time>
      </trkpt>
      <trkpt lat="47.18314" lon="-1.62423">
        <ele>2.8</ele>
        <time>2016-08-31T07:05:20Z</time>
      </trkpt>
      <trkpt lat="47.1832" lon="-1.62415">
        <ele>2.5</ele>
        <time>2016-08-31T07:05:25Z</time>
      </trkpt>
      <trkpt lat="47.18325" lon="-1.62408">
        <ele>2.7</ele>
        <time>2016-08-31T07:05:30Z</time>
      </trkpt>
      <trkpt lat="47.18331" lon="-1.624">
        <ele>3.2</ele>
        <time>2016-08-31T07:05:36Z</time>
      </trkpt>
      <trkpt lat="47.18337" lon="-1.62393">
        <ele>3.5</ele>
        <time>2016-08-31T07:05:42Z</time>
      </trkpt>
      <trkpt lat="47.18341" lon="-1.62387">
        <ele>3.4</ele>
        <time>2016-08-31T07:05:47Z</time>
      </trkpt>
      <trkpt lat="47.18345" lon="-1.62382">
        <ele>3.1</ele>
        <time>2016-08-31T07:05:52Z</time>
      </trkpt>
      <trkpt lat="47.18351" lon="-1.62377">
        <ele>2.8</ele>
        <time>2016-08-31T07:05:57Z</time>
      </trkpt>
      <trkpt lat="47.18357" lon="-1.62375">
        <ele>2.7</ele>
        <time>2016-08-31T07:06:02Z</time>
      </trkpt>
      <trkpt lat="47.18365" lon="-1.62373">
        <ele>2.7</ele>
        <time>2016-08-31T07:06:07Z</time>
      </trkpt>
      <trkpt lat="47.18372" lon="-1.6237">
        <ele>3.1</ele>
        <time>2016-08-31T07:06:12Z</time>
      </trkpt>
      <trkpt lat="47.18379" lon="-1.62368">
        <ele>3.4</ele>
        <time>2016-08-31T07:06:17Z</time>
      </trkpt>
      <trkpt lat="47.18387" lon="-1.62368">
        <ele>3.7</ele>
        <time>2016-08-31T07:06:22Z</time>
      </trkpt>
      <trkpt lat="47.18394" lon="-1.62365">
        <ele>3.7</ele>
        <time>2016-08-31T07:06:27Z</time>
      </trkpt>
      <trkpt lat="47.184" lon="-1.6236">
        <ele>3.6</ele>
        <time>2016-08-31T07:06:32Z</time>
      </trkpt>
      <trkpt lat="47.18404" lon="-1.62352">
        <ele>3.3</ele>
        <time>2016-08-31T07:06:37Z</time>
      </trkpt>
      <trkpt lat="47.18408" lon="-1.62344">
        <ele>3.1</ele>
        <time>2016-08-31T07:06:42Z</time>
      </trkpt>
      <trkpt lat="47.18413" lon="-1.62335">
        <ele>3</ele>
        <time>2016-08-31T07:06:47Z</time>
      </trkpt>
      <trkpt lat="47.18416" lon="-1.62327">
        <ele>3.2</ele>
        <time>2016-08-31T07:06:52Z</time>
      </trkpt>
      <trkpt lat="47.18418" lon="-1.62318">
        <ele>3.5</ele>
        <time>2016-08-31T07:06:57Z</time>
      </trkpt>
      <trkpt lat="47.1842" lon="-1.6231">
        <ele>3.7</ele>
        <time>2016-08-31T07:07:02Z</time>
      </trkpt>
      <trkpt lat="47.18427" lon="-1.62307">
        <ele>3.6</ele>
        <time>2016-08-31T07:07:07Z</time>
      </trkpt>
      <trkpt lat="47.18432" lon="-1.62311">
        <ele>3.5</ele>
        <time>2016-08-31T07:07:12Z</time>
      </trkpt>
      <trkpt lat="47.18436" lon="-1.62315">
        <ele>3.4</ele>
        <time>2016-08-31T07:07:17Z</time>
      </trkpt>
      <trkpt lat="47.18442" lon="-1.62321">
        <ele>3.6</ele>
        <time>2016-08-31T07:07:22Z</time>
      </trkpt>
      <trkpt lat="47.18444" lon="-1.62329">
        <ele>3.8</ele>
        <time>2016-08-31T07:07:27Z</time>
      </trkpt>
      <trkpt lat="47.18444" lon="-1.62339">
        <ele>4</ele>
        <time>2016-08-31T07:07:32Z</time>
      </trkpt>
      <trkpt lat="47.18444" lon="-1.62349">
        <ele>4</ele>
        <time>2016-08-31T07:07:37Z</time>
      </trkpt>
      <trkpt lat="47.18444" lon="-1.62359">
        <ele>4</ele>
        <time>2016-08-31T07:07:42Z</time>
      </trkpt>
      <trkpt lat="47.18445" lon="-1.62367">
        <ele>4</ele>
        <time>2016-08-31T07:07:47Z</time>
      </trkpt>
      <trkpt lat="47.18446" lon="-1.62377">
        <ele>4</ele>
        <time>2016-08-31T07:07:53Z</time>
      </trkpt>
      <trkpt lat="47.18447" lon="-1.62388">
        <ele>4</ele>
        <time>2016-08-31T07:07:58Z</time>
      </trkpt>
      <trkpt lat="47.18448" lon="-1.62395">
        <ele>4</ele>
        <time>2016-08-31T07:08:03Z</time>
      </trkpt>
      <trkpt lat="47.18448" lon="-1.62405">
        <ele>4</ele>
        <time>2016-08-31T07:08:08Z</time>
      </trkpt>
      <trkpt lat="47.18447" lon="-1.62414">
        <ele>3</ele>
        <time>2016-08-31T07:08:13Z</time>
      </trkpt>
      <trkpt lat="47.18445" lon="-1.62424">
        <ele>1</ele>
        <time>2016-08-31T07:08:18Z</time>
      </trkpt>
      <trkpt lat="47.18444" lon="-1.62432">
        <ele>1</ele>
        <time>2016-08-31T07:08:23Z</time>
      </trkpt>
      <trkpt lat="47.18446" lon="-1.62443">
        <ele>5</ele>
        <time>2016-08-31T07:08:28Z</time>
      </trkpt>
      <trkpt lat="47.18446" lon="-1.62453">
        <ele>4.7</ele>
        <time>2016-08-31T07:08:33Z</time>
      </trkpt>
      <trkpt lat="47.18448" lon="-1.62465">
        <ele>4.3</ele>
        <time>2016-08-31T07:08:39Z</time>
      </trkpt>
      <trkpt lat="47.18448" lon="-1.62473">
        <ele>4.1</ele>
        <time>2016-08-31T07:08:44Z</time>
      </trkpt>
      <trkpt lat="47.18445" lon="-1.62485">
        <ele>4</ele>
        <time>2016-08-31T07:08:49Z</time>
      </trkpt>
      <trkpt lat="47.18446" lon="-1.62497">
        <ele>4.1</ele>
        <time>2016-08-31T07:08:54Z</time>
      </trkpt>
      <trkpt lat="47.18446" lon="-1.62506">
        <ele>4</ele>
        <time>2016-08-31T07:08:59Z</time>
      </trkpt>
      <trkpt lat="47.18446" lon="-1.62516">
        <ele>4</ele>
        <time>2016-08-31T07:09:04Z</time>
      </trkpt>
      <trkpt lat="47.18447" lon="-1.62527">
        <ele>4.1</ele>
        <time>2016-08-31T07:09:09Z</time>
      </trkpt>
      <trkpt lat="47.18446" lon="-1.6254">
        <ele>4.1</ele>
        <time>2016-08-31T07:09:15Z</time>
      </trkpt>
      <trkpt lat="47.18445" lon="-1.6255">
        <ele>4</ele>
        <time>2016-08-31T07:09:20Z</time>
      </trkpt>
      <trkpt lat="47.18443" lon="-1.62562">
        <ele>4</ele>
        <time>2016-08-31T07:09:25Z</time>
      </trkpt>
      <trkpt lat="47.18443" lon="-1.62572">
        <ele>4</ele>
        <time>2016-08-31T07:09:30Z</time>
      </trkpt>
      <trkpt lat="47.18441" lon="-1.62581">
        <ele>4</ele>
        <time>2016-08-31T07:09:35Z</time>
      </trkpt>
      <trkpt lat="47.1844" lon="-1.6259">
        <ele>4</ele>
        <time>2016-08-31T07:09:40Z</time>
      </trkpt>
      <trkpt lat="47.18439" lon="-1.626">
        <ele>4</ele>
        <time>2016-08-31T07:09:45Z</time>
      </trkpt>
      <trkpt lat="47.18438" lon="-1.62609">
        <ele>4</ele>
        <time>2016-08-31T07:09:50Z</time>
      </trkpt>
      <trkpt lat="47.18437" lon="-1.62619">
        <ele>4</ele>
        <time>2016-08-31T07:09:55Z</time>
      </trkpt>
      <trkpt lat="47.18434" lon="-1.62633">
        <ele>1</ele>
        <time>2016-08-31T07:10:00Z</time>
      </trkpt>
      <trkpt lat="47.18435" lon="-1.62642">
        <ele>2</ele>
        <time>2016-08-31T07:10:06Z</time>
      </trkpt>
      <trkpt lat="47.18434" lon="-1.62652">
        <ele>2</ele>
        <time>2016-08-31T07:10:11Z</time>
      </trkpt>
      <trkpt lat="47.18433" lon="-1.62663">
        <ele>2</ele>
        <time>2016-08-31T07:10:16Z</time>
      </trkpt>
      <trkpt lat="47.18433" lon="-1.62672">
        <ele>2</ele>
        <time>2016-08-31T07:10:21Z</time>
      </trkpt>
      <trkpt lat="47.18433" lon="-1.62681">
        <ele>2</ele>
        <time>2016-08-31T07:10:26Z</time>
      </trkpt>
      <trkpt lat="47.18433" lon="-1.62689">
        <ele>1</ele>
        <time>2016-08-31T07:10:31Z</time>
      </trkpt>
      <trkpt lat="47.18433" lon="-1.627">
        <ele>3.1</ele>
        <time>2016-08-31T07:10:36Z</time>
      </trkpt>
      <trkpt lat="47.18433" lon="-1.62712">
        <ele>3.4</ele>
        <time>2016-08-31T07:10:41Z</time>
      </trkpt>
      <trkpt lat="47.18432" lon="-1.62722">
        <ele>3.5</ele>
        <time>2016-08-31T07:10:46Z</time>
      </trkpt>
      <trkpt lat="47.18429" lon="-1.62733">
        <ele>3.2</ele>
        <time>2016-08-31T07:10:51Z</time>
      </trkpt>
      <trkpt lat="47.18427" lon="-1.62741">
        <ele>3</ele>
        <time>2016-08-31T07:10:56Z</time>
      </trkpt>
      <trkpt lat="47.18426" lon="-1.62753">
        <ele>2.8</ele>
        <time>2016-08-31T07:11:01Z</time>
      </trkpt>
      <trkpt lat="47.18424" lon="-1.62762">
        <ele>2.8</ele>
        <time>2016-08-31T07:11:06Z</time>
      </trkpt>
      <trkpt lat="47.18419" lon="-1.6277">
        <ele>2.8</ele>
        <time>2016-08-31T07:11:11Z</time>
      </trkpt>
      <trkpt lat="47.18417" lon="-1.62778">
        <ele>3</ele>
        <time>2016-08-31T07:11:16Z</time>
      </trkpt>
      <trkpt lat="47.18414" lon="-1.62787">
        <ele>3.3</ele>
        <time>2016-08-31T07:11:21Z</time>
      </trkpt>
      <trkpt lat="47.18412" lon="-1.62797">
        <ele>3.6</ele>
        <time>2016-08-31T07:11:26Z</time>
      </trkpt>
      <trkpt lat="47.18409" lon="-1.62806">
        <ele>3.7</ele>
        <time>2016-08-31T07:11:31Z</time>
      </trkpt>
      <trkpt lat="47.18408" lon="-1.62816">
        <ele>3.7</ele>
        <time>2016-08-31T07:11:36Z</time>
      </trkpt>
      <trkpt lat="47.18407" lon="-1.62826">
        <ele>3.6</ele>
        <time>2016-08-31T07:11:41Z</time>
      </trkpt>
      <trkpt lat="47.18407" lon="-1.62837">
        <ele>3.6</ele>
        <time>2016-08-31T07:11:47Z</time>
      </trkpt>
      <trkpt lat="47.18404" lon="-1.62849">
        <ele>3.6</ele>
        <time>2016-08-31T07:11:52Z</time>
      </trkpt>
      <trkpt lat="47.18404" lon="-1.62861">
        <ele>3.5</ele>
        <time>2016-08-31T07:11:57Z</time>
      </trkpt>
      <trkpt lat="47.18402" lon="-1.62875">
        <ele>3.2</ele>
        <time>2016-08-31T07:12:02Z</time>
      </trkpt>
      <trkpt lat="47.184" lon="-1.62884">
        <ele>3.1</ele>
        <time>2016-08-31T07:12:08Z</time>
      </trkpt>
      <trkpt lat="47.18396" lon="-1.62893">
        <ele>3.1</ele>
        <time>2016-08-31T07:12:13Z</time>
      </trkpt>
      <trkpt lat="47.18394" lon="-1.62902">
        <ele>3.4</ele>
        <time>2016-08-31T07:12:18Z</time>
      </trkpt>
      <trkpt lat="47.18393" lon="-1.62914">
        <ele>3.8</ele>
        <time>2016-08-31T07:12:23Z</time>
      </trkpt>
      <trkpt lat="47.18391" lon="-1.62924">
        <ele>3.9</ele>
        <time>2016-08-31T07:12:29Z</time>
      </trkpt>
      <trkpt lat="47.18389" lon="-1.62934">
        <ele>4</ele>
        <time>2016-08-31T07:12:34Z</time>
      </trkpt>
      <trkpt lat="47.18388" lon="-1.62945">
        <ele>4</ele>
        <time>2016-08-31T07:12:39Z</time>
      </trkpt>
      <trkpt lat="47.1839" lon="-1.62955">
        <ele>3.6</ele>
        <time>2016-08-31T07:12:44Z</time>
      </trkpt>
      <trkpt lat="47.18391" lon="-1.62965">
        <ele>3.3</ele>
        <time>2016-08-31T07:12:49Z</time>
      </trkpt>
      <trkpt lat="47.18397" lon="-1.62977">
        <ele>3.3</ele>
        <time>2016-08-31T07:12:54Z</time>
      </trkpt>
      <trkpt lat="47.18401" lon="-1.62985">
        <ele>2</ele>
        <time>2016-08-31T07:12:59Z</time>
      </trkpt>
      <trkpt lat="47.18407" lon="-1.62991">
        <ele>2</ele>
        <time>2016-08-31T07:13:04Z</time>
      </trkpt>
      <trkpt lat="47.18414" lon="-1.62998">
        <ele>2</ele>
        <time>2016-08-31T07:13:10Z</time>
      </trkpt>
      <trkpt lat="47.1842" lon="-1.63005">
        <ele>2</ele>
        <time>2016-08-31T07:13:15Z</time>
      </trkpt>
      <trkpt lat="47.18427" lon="-1.63012">
        <ele>2</ele>
        <time>2016-08-31T07:13:20Z</time>
      </trkpt>
      <trkpt lat="47.18433" lon="-1.6302">
        <ele>2</ele>
        <time>2016-08-31T07:13:25Z</time>
      </trkpt>
      <trkpt lat="47.18437" lon="-1.63025">
        <ele>2</ele>
        <time>2016-08-31T07:13:30Z</time>
      </trkpt>
      <trkpt lat="47.18442" lon="-1.63032">
        <ele>2</ele>
        <time>2016-08-31T07:13:36Z</time>
      </trkpt>
      <trkpt lat="47.18449" lon="-1.63039">
        <ele>2</ele>
        <time>2016-08-31T07:13:41Z</time>
      </trkpt>
      <trkpt lat="47.18453" lon="-1.63046">
        <ele>2</ele>
        <time>2016-08-31T07:13:46Z</time>
      </trkpt>
      <trkpt lat="47.1846" lon="-1.63053">
        <ele>2</ele>
        <time>2016-08-31T07:13:51Z</time>
      </trkpt>
      <trkpt lat="47.18465" lon="-1.6306">
        <ele>2</ele>
        <time>2016-08-31T07:13:56Z</time>
      </trkpt>
      <trkpt lat="47.1847" lon="-1.63066">
        <ele>2</ele>
        <time>2016-08-31T07:14:01Z</time>
      </trkpt>
      <trkpt lat="47.18475" lon="-1.63072">
        <ele>2</ele>
        <time>2016-08-31T07:14:06Z</time>
      </trkpt>
      <trkpt lat="47.1848" lon="-1.63078">
        <ele>2</ele>
        <time>2016-08-31T07:14:12Z</time>
      </trkpt>
      <trkpt lat="47.18487" lon="-1.63085">
        <ele>2</ele>
        <time>2016-08-31T07:14:17Z</time>
      </trkpt>
      <trkpt lat="47.18494" lon="-1.63091">
        <ele>2</ele>
        <time>2016-08-31T07:14:22Z</time>
      </trkpt>
      <trkpt lat="47.18499" lon="-1.63096">
        <ele>2</ele>
        <time>2016-08-31T07:14:27Z</time>
      </trkpt>
      <trkpt lat="47.18506" lon="-1.63105">
        <ele>2</ele>
        <time>2016-08-31T07:14:33Z</time>
      </trkpt>
      <trkpt lat="47.18514" lon="-1.63115">
        <ele>2</ele>
        <time>2016-08-31T07:14:39Z</time>
      </trkpt>
      <trkpt lat="47.18518" lon="-1.63121">
        <ele>2</ele>
        <time>2016-08-31T07:14:44Z</time>
      </trkpt>
      <trkpt lat="47.18525" lon="-1.63127">
        <ele>2</ele>
        <time>2016-08-31T07:14:49Z</time>
      </trkpt>
      <trkpt lat="47.18531" lon="-1.63135">
        <ele>2</ele>
        <time>2016-08-31T07:14:55Z</time>
      </trkpt>
      <trkpt lat="47.18538" lon="-1.63143">
        <ele>2</ele>
        <time>2016-08-31T07:15:00Z</time>
      </trkpt>
      <trkpt lat="47.18543" lon="-1.6315">
        <ele>2</ele>
        <time>2016-08-31T07:15:05Z</time>
      </trkpt>
      <trkpt lat="47.18547" lon="-1.63159">
        <ele>2</ele>
        <time>2016-08-31T07:15:11Z</time>
      </trkpt>
      <trkpt lat="47.18553" lon="-1.63166">
        <ele>2</ele>
        <time>2016-08-31T07:15:16Z</time>
      </trkpt>
      <trkpt lat="47.1856" lon="-1.63173">
        <ele>2</ele>
        <time>2016-08-31T07:15:22Z</time>
      </trkpt>
      <trkpt lat="47.18565" lon="-1.63179">
        <ele>2</ele>
        <time>2016-08-31T07:15:27Z</time>
      </trkpt>
      <trkpt lat="47.18567" lon="-1.6319">
        <ele>2</ele>
        <time>2016-08-31T07:15:32Z</time>
      </trkpt>
      <trkpt lat="47.18564" lon="-1.63196">
        <ele>2</ele>
        <time>2016-08-31T07:15:37Z</time>
      </trkpt>
      <trkpt lat="47.18559" lon="-1.63205">
        <ele>2</ele>
        <time>2016-08-31T07:15:43Z</time>
      </trkpt>
      <trkpt lat="47.18557" lon="-1.63214">
        <ele>2</ele>
        <time>2016-08-31T07:15:48Z</time>
      </trkpt>
      <trkpt lat="47.18555" lon="-1.63223">
        <ele>2</ele>
        <time>2016-08-31T07:15:53Z</time>
      </trkpt>
      <trkpt lat="47.18558" lon="-1.63232">
        <ele>2</ele>
        <time>2016-08-31T07:15:58Z</time>
      </trkpt>
      <trkpt lat="47.18563" lon="-1.6324">
        <ele>1</ele>
        <time>2016-08-31T07:16:03Z</time>
      </trkpt>
      <trkpt lat="47.18568" lon="-1.63247">
        <ele>1</ele>
        <time>2016-08-31T07:16:08Z</time>
      </trkpt>
      <trkpt lat="47.18575" lon="-1.63252">
        <ele>1</ele>
        <time>2016-08-31T07:16:13Z</time>
      </trkpt>
      <trkpt lat="47.1858" lon="-1.63259">
        <ele>1</ele>
        <time>2016-08-31T07:16:18Z</time>
      </trkpt>
      <trkpt lat="47.18584" lon="-1.63266">
        <ele>1</ele>
        <time>2016-08-31T07:16:24Z</time>
      </trkpt>
      <trkpt lat="47.1859" lon="-1.63275">
        <ele>1</ele>
        <time>2016-08-31T07:16:29Z</time>
      </trkpt>
      <trkpt lat="47.18595" lon="-1.63284">
        <ele>1</ele>
        <time>2016-08-31T07:16:35Z</time>
      </trkpt>
      <trkpt lat="47.18599" lon="-1.63292">
        <ele>1</ele>
        <time>2016-08-31T07:16:40Z</time>
      </trkpt>
      <trkpt lat="47.18604" lon="-1.63298">
        <ele>1</ele>
        <time>2016-08-31T07:16:45Z</time>
      </trkpt>
      <trkpt lat="47.18609" lon="-1.63306">
        <ele>1</ele>
        <time>2016-08-31T07:16:50Z</time>
      </trkpt>
      <trkpt lat="47.18613" lon="-1.63314">
        <ele>1</ele>
        <time>2016-08-31T07:16:55Z</time>
      </trkpt>
      <trkpt lat="47.18617" lon="-1.63322">
        <ele>1</ele>
        <time>2016-08-31T07:17:00Z</time>
      </trkpt>
      <trkpt lat="47.18621" lon="-1.63331">
        <ele>1</ele>
        <time>2016-08-31T07:17:05Z</time>
      </trkpt>
      <trkpt lat="47.18625" lon="-1.63339">
        <ele>3.2</ele>
        <time>2016-08-31T07:17:10Z</time>
      </trkpt>
      <trkpt lat="47.18629" lon="-1.63349">
        <ele>3.4</ele>
        <time>2016-08-31T07:17:15Z</time>
      </trkpt>
      <trkpt lat="47.18633" lon="-1.63357">
        <ele>3.8</ele>
        <time>2016-08-31T07:17:20Z</time>
      </trkpt>
      <trkpt lat="47.18637" lon="-1.63366">
        <ele>4</ele>
        <time>2016-08-31T07:17:25Z</time>
      </trkpt>
      <trkpt lat="47.18642" lon="-1.63373">
        <ele>3.8</ele>
        <time>2016-08-31T07:17:30Z</time>
      </trkpt>
      <trkpt lat="47.18646" lon="-1.63381">
        <ele>3.7</ele>
        <time>2016-08-31T07:17:35Z</time>
      </trkpt>
      <trkpt lat="47.1865" lon="-1.63389">
        <ele>3.6</ele>
        <time>2016-08-31T07:17:40Z</time>
      </trkpt>
      <trkpt lat="47.18654" lon="-1.63399">
        <ele>3.8</ele>
        <time>2016-08-31T07:17:46Z</time>
      </trkpt>
      <trkpt lat="47.18658" lon="-1.63407">
        <ele>4</ele>
        <time>2016-08-31T07:17:51Z</time>
      </trkpt>
      <trkpt lat="47.18662" lon="-1.63416">
        <ele>4.1</ele>
        <time>2016-08-31T07:17:57Z</time>
      </trkpt>
      <trkpt lat="47.18666" lon="-1.63424">
        <ele>4.3</ele>
        <time>2016-08-31T07:18:02Z</time>
      </trkpt>
      <trkpt lat="47.18672" lon="-1.63432">
        <ele>4.3</ele>
        <time>2016-08-31T07:18:08Z</time>
      </trkpt>
      <trkpt lat="47.18677" lon="-1.63439">
        <ele>4.4</ele>
        <time>2016-08-31T07:18:13Z</time>
      </trkpt>
      <trkpt lat="47.18682" lon="-1.63445">
        <ele>4.5</ele>
        <time>2016-08-31T07:18:18Z</time>
      </trkpt>
      <trkpt lat="47.18687" lon="-1.63452">
        <ele>4.6</ele>
        <time>2016-08-31T07:18:23Z</time>
      </trkpt>
      <trkpt lat="47.18692" lon="-1.63461">
        <ele>4.7</ele>
        <time>2016-08-31T07:18:29Z</time>
      </trkpt>
      <trkpt lat="47.18697" lon="-1.6347">
        <ele>4.7</ele>
        <time>2016-08-31T07:18:35Z</time>
      </trkpt>
      <trkpt lat="47.18701" lon="-1.63478">
        <ele>4.6</ele>
        <time>2016-08-31T07:18:40Z</time>
      </trkpt>
      <trkpt lat="47.18706" lon="-1.63487">
        <ele>4.4</ele>
        <time>2016-08-31T07:18:45Z</time>
      </trkpt>
      <trkpt lat="47.18709" lon="-1.63493">
        <ele>4.4</ele>
        <time>2016-08-31T07:18:50Z</time>
      </trkpt>
      <trkpt lat="47.18713" lon="-1.63501">
        <ele>4.4</ele>
        <time>2016-08-31T07:18:55Z</time>
      </trkpt>
      <trkpt lat="47.18717" lon="-1.63508">
        <ele>4.5</ele>
        <time>2016-08-31T07:19:00Z</time>
      </trkpt>
      <trkpt lat="47.18721" lon="-1.63516">
        <ele>4.6</ele>
        <time>2016-08-31T07:19:05Z</time>
      </trkpt>
      <trkpt lat="47.18726" lon="-1.63523">
        <ele>4.6</ele>
        <time>2016-08-31T07:19:10Z</time>
      </trkpt>
      <trkpt lat="47.1873" lon="-1.63533">
        <ele>4.6</ele>
        <time>2016-08-31T07:19:15Z</time>
      </trkpt>
      <trkpt lat="47.18733" lon="-1.63542">
        <ele>4.7</ele>
        <time>2016-08-31T07:19:20Z</time>
      </trkpt>
      <trkpt lat="47.18737" lon="-1.63552">
        <ele>4.9</ele>
        <time>2016-08-31T07:19:26Z</time>
      </trkpt>
      <trkpt lat="47.18741" lon="-1.6356">
        <ele>4.7</ele>
        <time>2016-08-31T07:19:31Z</time>
      </trkpt>
      <trkpt lat="47.18744" lon="-1.63569">
        <ele>4.5</ele>
        <time>2016-08-31T07:19:36Z</time>
      </trkpt>
      <trkpt lat="47.18747" lon="-1.63578">
        <ele>4.3</ele>
        <time>2016-08-31T07:19:41Z</time>
      </trkpt>
      <trkpt lat="47.1875" lon="-1.63587">
        <ele>4.2</ele>
        <time>2016-08-31T07:19:46Z</time>
      </trkpt>
      <trkpt lat="47.18753" lon="-1.63595">
        <ele>4.4</ele>
        <time>2016-08-31T07:19:51Z</time>
      </trkpt>
      <trkpt lat="47.18756" lon="-1.63606">
        <ele>4.6</ele>
        <time>2016-08-31T07:19:57Z</time>
      </trkpt>
      <trkpt lat="47.1876" lon="-1.63614">
        <ele>4.7</ele>
        <time>2016-08-31T07:20:02Z</time>
      </trkpt>
      <trkpt lat="47.18764" lon="-1.63624">
        <ele>4.7</ele>
        <time>2016-08-31T07:20:08Z</time>
      </trkpt>
      <trkpt lat="47.18768" lon="-1.63634">
        <ele>4.6</ele>
        <time>2016-08-31T07:20:13Z</time>
      </trkpt>
      <trkpt lat="47.18771" lon="-1.63641">
        <ele>4.5</ele>
        <time>2016-08-31T07:20:18Z</time>
      </trkpt>
      <trkpt lat="47.18774" lon="-1.63651">
        <ele>4.6</ele>
        <time>2016-08-31T07:20:23Z</time>
      </trkpt>
      <trkpt lat="47.18778" lon="-1.6366">
        <ele>4.7</ele>
        <time>2016-08-31T07:20:28Z</time>
      </trkpt>
      <trkpt lat="47.18784" lon="-1.63667">
        <ele>4.8</ele>
        <time>2016-08-31T07:20:33Z</time>
      </trkpt>
      <trkpt lat="47.18787" lon="-1.63675">
        <ele>2</ele>
        <time>2016-08-31T07:20:38Z</time>
      </trkpt>
      <trkpt lat="47.18789" lon="-1.63685">
        <ele>2</ele>
        <time>2016-08-31T07:20:43Z</time>
      </trkpt>
      <trkpt lat="47.18792" lon="-1.63693">
        <ele>2</ele>
        <time>2016-08-31T07:20:48Z</time>
      </trkpt>
      <trkpt lat="47.18794" lon="-1.63704">
        <ele>2</ele>
        <time>2016-08-31T07:20:54Z</time>
      </trkpt>
      <trkpt lat="47.18797" lon="-1.63712">
        <ele>2</ele>
        <time>2016-08-31T07:20:59Z</time>
      </trkpt>
      <trkpt lat="47.188" lon="-1.63722">
        <ele>2</ele>
        <time>2016-08-31T07:21:04Z</time>
      </trkpt>
      <trkpt lat="47.18803" lon="-1.63731">
        <ele>2</ele>
        <time>2016-08-31T07:21:09Z</time>
      </trkpt>
      <trkpt lat="47.18806" lon="-1.6374">
        <ele>2</ele>
        <time>2016-08-31T07:21:14Z</time>
      </trkpt>
      <trkpt lat="47.18809" lon="-1.63749">
        <ele>2</ele>
        <time>2016-08-31T07:21:19Z</time>
      </trkpt>
      <trkpt lat="47.18813" lon="-1.63758">
        <ele>2</ele>
        <time>2016-08-31T07:21:25Z</time>
      </trkpt>
      <trkpt lat="47.18817" lon="-1.63767">
        <ele>2</ele>
        <time>2016-08-31T07:21:30Z</time>
      </trkpt>
      <trkpt lat="47.18821" lon="-1.63775">
        <ele>2</ele>
        <time>2016-08-31T07:21:35Z</time>
      </trkpt>
      <trkpt lat="47.18824" lon="-1.63784">
        <ele>2</ele>
        <time>2016-08-31T07:21:40Z</time>
      </trkpt>
      <trkpt lat="47.18828" lon="-1.63794">
        <ele>2</ele>
        <time>2016-08-31T07:21:45Z</time>
      </trkpt>
      <trkpt lat="47.18832" lon="-1.63803">
        <ele>2</ele>
        <time>2016-08-31T07:21:50Z</time>
      </trkpt>
      <trkpt lat="47.18836" lon="-1.63813">
        <ele>2</ele>
        <time>2016-08-31T07:21:55Z</time>
      </trkpt>
      <trkpt lat="47.18839" lon="-1.63821">
        <ele>2</ele>
        <time>2016-08-31T07:22:00Z</time>
      </trkpt>
      <trkpt lat="47.18842" lon="-1.63827">
        <ele>2</ele>
        <time>2016-08-31T07:22:05Z</time>
      </trkpt>
      <trkpt lat="47.18846" lon="-1.63837">
        <ele>2</ele>
        <time>2016-08-31T07:22:11Z</time>
      </trkpt>
      <trkpt lat="47.18851" lon="-1.63844">
        <ele>2</ele>
        <time>2016-08-31T07:22:16Z</time>
      </trkpt>
      <trkpt lat="47.18855" lon="-1.63853">
        <ele>2</ele>
        <time>2016-08-31T07:22:21Z</time>
      </trkpt>
      <trkpt lat="47.18858" lon="-1.63862">
        <ele>2</ele>
        <time>2016-08-31T07:22:26Z</time>
      </trkpt>
      <trkpt lat="47.18863" lon="-1.6387">
        <ele>2</ele>
        <time>2016-08-31T07:22:31Z</time>
      </trkpt>
      <trkpt lat="47.18866" lon="-1.63877">
        <ele>1</ele>
        <time>2016-08-31T07:22:36Z</time>
      </trkpt>
      <trkpt lat="47.18872" lon="-1.63883">
        <ele>3.6</ele>
        <time>2016-08-31T07:22:41Z</time>
      </trkpt>
      <trkpt lat="47.18877" lon="-1.63889">
        <ele>3.4</ele>
        <time>2016-08-31T07:22:46Z</time>
      </trkpt>
      <trkpt lat="47.18883" lon="-1.63898">
        <ele>3.5</ele>
        <time>2016-08-31T07:22:52Z</time>
      </trkpt>
      <trkpt lat="47.18887" lon="-1.63906">
        <ele>3.6</ele>
        <time>2016-08-31T07:22:57Z</time>
      </trkpt>
      <trkpt lat="47.18892" lon="-1.63914">
        <ele>3.8</ele>
        <time>2016-08-31T07:23:03Z</time>
      </trkpt>
      <trkpt lat="47.18895" lon="-1.63924">
        <ele>3.6</ele>
        <time>2016-08-31T07:23:08Z</time>
      </trkpt>
      <trkpt lat="47.189" lon="-1.63931">
        <ele>3.3</ele>
        <time>2016-08-31T07:23:13Z</time>
      </trkpt>
      <trkpt lat="47.18905" lon="-1.63937">
        <ele>3.1</ele>
        <time>2016-08-31T07:23:18Z</time>
      </trkpt>
      <trkpt lat="47.18911" lon="-1.63945">
        <ele>3</ele>
        <time>2016-08-31T07:23:23Z</time>
      </trkpt>
      <trkpt lat="47.18916" lon="-1.63954">
        <ele>3</ele>
        <time>2016-08-31T07:23:28Z</time>
      </trkpt>
      <trkpt lat="47.18921" lon="-1.63961">
        <ele>3</ele>
        <time>2016-08-31T07:23:33Z</time>
      </trkpt>
      <trkpt lat="47.18926" lon="-1.6397">
        <ele>3</ele>
        <time>2016-08-31T07:23:39Z</time>
      </trkpt>
      <trkpt lat="47.18932" lon="-1.63977">
        <ele>3.1</ele>
        <time>2016-08-31T07:23:44Z</time>
      </trkpt>
      <trkpt lat="47.18936" lon="-1.63986">
        <ele>3.4</ele>
        <time>2016-08-31T07:23:50Z</time>
      </trkpt>
      <trkpt lat="47.18941" lon="-1.63995">
        <ele>3.7</ele>
        <time>2016-08-31T07:23:55Z</time>
      </trkpt>
      <trkpt lat="47.18946" lon="-1.64003">
        <ele>3.9</ele>
        <time>2016-08-31T07:24:01Z</time>
      </trkpt>
      <trkpt lat="47.18951" lon="-1.64012">
        <ele>3.5</ele>
        <time>2016-08-31T07:24:06Z</time>
      </trkpt>
      <trkpt lat="47.18957" lon="-1.6402">
        <ele>3.1</ele>
        <time>2016-08-31T07:24:12Z</time>
      </trkpt>
      <trkpt lat="47.18961" lon="-1.64029">
        <ele>2.8</ele>
        <time>2016-08-31T07:24:17Z</time>
      </trkpt>
      <trkpt lat="47.18966" lon="-1.64038">
        <ele>3</ele>
        <time>2016-08-31T07:24:22Z</time>
      </trkpt>
      <trkpt lat="47.18969" lon="-1.64047">
        <ele>3.4</ele>
        <time>2016-08-31T07:24:27Z</time>
      </trkpt>
      <trkpt lat="47.18973" lon="-1.64055">
        <ele>3.9</ele>
        <time>2016-08-31T07:24:32Z</time>
      </trkpt>
      <trkpt lat="47.18979" lon="-1.64065">
        <ele>3.3</ele>
        <time>2016-08-31T07:24:38Z</time>
      </trkpt>
      <trkpt lat="47.18985" lon="-1.64073">
        <ele>3</ele>
        <time>2016-08-31T07:24:43Z</time>
      </trkpt>
      <trkpt lat="47.18991" lon="-1.64079">
        <ele>2.9</ele>
        <time>2016-08-31T07:24:48Z</time>
      </trkpt>
      <trkpt lat="47.18996" lon="-1.64089">
        <ele>3</ele>
        <time>2016-08-31T07:24:54Z</time>
      </trkpt>
      <trkpt lat="47.19001" lon="-1.64096">
        <ele>3</ele>
        <time>2016-08-31T07:24:59Z</time>
      </trkpt>
      <trkpt lat="47.19005" lon="-1.64104">
        <ele>2.8</ele>
        <time>2016-08-31T07:25:04Z</time>
      </trkpt>
      <trkpt lat="47.19011" lon="-1.64111">
        <ele>2.6</ele>
        <time>2016-08-31T07:25:09Z</time>
      </trkpt>
      <trkpt lat="47.19014" lon="-1.64119">
        <ele>2.8</ele>
        <time>2016-08-31T07:25:14Z</time>
      </trkpt>
      <trkpt lat="47.1902" lon="-1.64127">
        <ele>3.1</ele>
        <time>2016-08-31T07:25:19Z</time>
      </trkpt>
      <trkpt lat="47.19024" lon="-1.64134">
        <ele>3.5</ele>
        <time>2016-08-31T07:25:24Z</time>
      </trkpt>
      <trkpt lat="47.1903" lon="-1.64141">
        <ele>3.9</ele>
        <time>2016-08-31T07:25:29Z</time>
      </trkpt>
      <trkpt lat="47.19035" lon="-1.6415">
        <ele>3.5</ele>
        <time>2016-08-31T07:25:35Z</time>
      </trkpt>
      <trkpt lat="47.19039" lon="-1.64158">
        <ele>3.2</ele>
        <time>2016-08-31T07:25:40Z</time>
      </trkpt>
      <trkpt lat="47.19043" lon="-1.64167">
        <ele>2.9</ele>
        <time>2016-08-31T07:25:46Z</time>
      </trkpt>
      <trkpt lat="47.19048" lon="-1.64176">
        <ele>3.1</ele>
        <time>2016-08-31T07:25:51Z</time>
      </trkpt>
      <trkpt lat="47.1905" lon="-1.64184">
        <ele>3.4</ele>
        <time>2016-08-31T07:25:56Z</time>
      </trkpt>
      <trkpt lat="47.19049" lon="-1.64194">
        <ele>4</ele>
        <time>2016-08-31T07:26:01Z</time>
      </trkpt>
      <trkpt lat="47.19046" lon="-1.64203">
        <ele>4</ele>
        <time>2016-08-31T07:26:06Z</time>
      </trkpt>
      <trkpt lat="47.19044" lon="-1.64211">
        <ele>4</ele>
        <time>2016-08-31T07:26:11Z</time>
      </trkpt>
      <trkpt lat="47.19043" lon="-1.6422">
        <ele>4</ele>
        <time>2016-08-31T07:26:16Z</time>
      </trkpt>
      <trkpt lat="47.1904" lon="-1.64231">
        <ele>4</ele>
        <time>2016-08-31T07:26:21Z</time>
      </trkpt>
      <trkpt lat="47.19036" lon="-1.64241">
        <ele>4</ele>
        <time>2016-08-31T07:26:26Z</time>
      </trkpt>
      <trkpt lat="47.19035" lon="-1.64253">
        <ele>4</ele>
        <time>2016-08-31T07:26:31Z</time>
      </trkpt>
      <trkpt lat="47.19033" lon="-1.64261">
        <ele>4.2</ele>
        <time>2016-08-31T07:26:36Z</time>
      </trkpt>
      <trkpt lat="47.19031" lon="-1.64271">
        <ele>4.5</ele>
        <time>2016-08-31T07:26:41Z</time>
      </trkpt>
      <trkpt lat="47.19032" lon="-1.6428">
        <ele>4.6</ele>
        <time>2016-08-31T07:26:46Z</time>
      </trkpt>
      <trkpt lat="47.1903" lon="-1.64291">
        <ele>4.8</ele>
        <time>2016-08-31T07:26:51Z</time>
      </trkpt>
      <trkpt lat="47.1903" lon="-1.643">
        <ele>5</ele>
        <time>2016-08-31T07:26:56Z</time>
      </trkpt>
      <trkpt lat="47.19032" lon="-1.6431">
        <ele>5</ele>
        <time>2016-08-31T07:27:01Z</time>
      </trkpt>
      <trkpt lat="47.19038" lon="-1.64313">
        <ele>5</ele>
        <time>2016-08-31T07:27:06Z</time>
      </trkpt>
      <trkpt lat="47.19045" lon="-1.64314">
        <ele>5</ele>
        <time>2016-08-31T07:27:11Z</time>
      </trkpt>
      <trkpt lat="47.1905" lon="-1.64315">
        <ele>5</ele>
        <time>2016-08-31T07:27:16Z</time>
      </trkpt>
      <trkpt lat="47.19057" lon="-1.64317">
        <ele>4.9</ele>
        <time>2016-08-31T07:27:21Z</time>
      </trkpt>
      <trkpt lat="47.19061" lon="-1.64323">
        <ele>4.4</ele>
        <time>2016-08-31T07:27:26Z</time>
      </trkpt>
      <trkpt lat="47.19061" lon="-1.64332">
        <ele>4.5</ele>
        <time>2016-08-31T07:27:32Z</time>
      </trkpt>
      <trkpt lat="47.19059" lon="-1.64341">
        <ele>4.7</ele>
        <time>2016-08-31T07:27:37Z</time>
      </trkpt>
      <trkpt lat="47.19057" lon="-1.64351">
        <ele>4.8</ele>
        <time>2016-08-31T07:27:42Z</time>
      </trkpt>
      <trkpt lat="47.19061" lon="-1.64362">
        <ele>4.4</ele>
        <time>2016-08-31T07:27:47Z</time>
      </trkpt>
      <trkpt lat="47.19062" lon="-1.64372">
        <ele>4</ele>
        <time>2016-08-31T07:27:52Z</time>
      </trkpt>
      <trkpt lat="47.19061" lon="-1.64381">
        <ele>3.8</ele>
        <time>2016-08-31T07:27:58Z</time>
      </trkpt>
      <trkpt lat="47.19061" lon="-1.64388">
        <ele>3.6</ele>
        <time>2016-08-31T07:28:03Z</time>
      </trkpt>
      <trkpt lat="47.1906" lon="-1.64401">
        <ele>3.7</ele>
        <time>2016-08-31T07:28:08Z</time>
      </trkpt>
      <trkpt lat="47.19055" lon="-1.64409">
        <ele>4</ele>
        <time>2016-08-31T07:28:14Z</time>
      </trkpt>
      <trkpt lat="47.19053" lon="-1.64419">
        <ele>4</ele>
        <time>2016-08-31T07:28:19Z</time>
      </trkpt>
      <trkpt lat="47.19046" lon="-1.64421">
        <ele>4.2</ele>
        <time>2016-08-31T07:28:24Z</time>
      </trkpt>
      <trkpt lat="47.19038" lon="-1.64423">
        <ele>4.5</ele>
        <time>2016-08-31T07:28:29Z</time>
      </trkpt>
      <trkpt lat="47.19032" lon="-1.64423">
        <ele>4.8</ele>
        <time>2016-08-31T07:28:34Z</time>
      </trkpt>
      <trkpt lat="47.19026" lon="-1.64421">
        <ele>5</ele>
        <time>2016-08-31T07:28:39Z</time>
      </trkpt>
      <trkpt lat="47.19017" lon="-1.64423">
        <ele>5.2</ele>
        <time>2016-08-31T07:28:44Z</time>
      </trkpt>
      <trkpt lat="47.19011" lon="-1.6443">
        <ele>5.6</ele>
        <time>2016-08-31T07:28:49Z</time>
      </trkpt>
      <trkpt lat="47.19008" lon="-1.64437">
        <ele>6</ele>
        <time>2016-08-31T07:28:54Z</time>
      </trkpt>
      <trkpt lat="47.19004" lon="-1.64445">
        <ele>6.7</ele>
        <time>2016-08-31T07:28:59Z</time>
      </trkpt>
      <trkpt lat="47.18999" lon="-1.64452">
        <ele>6.9</ele>
        <time>2016-08-31T07:29:04Z</time>
      </trkpt>
      <trkpt lat="47.18995" lon="-1.64461">
        <ele>6.8</ele>
        <time>2016-08-31T07:29:09Z</time>
      </trkpt>
      <trkpt lat="47.18994" lon="-1.64471">
        <ele>6.8</ele>
        <time>2016-08-31T07:29:14Z</time>
      </trkpt>
      <trkpt lat="47.18993" lon="-1.6448">
        <ele>7</ele>
        <time>2016-08-31T07:29:19Z</time>
      </trkpt>
      <trkpt lat="47.18993" lon="-1.64492">
        <ele>7.3</ele>
        <time>2016-08-31T07:29:24Z</time>
      </trkpt>
      <trkpt lat="47.18993" lon="-1.64502">
        <ele>7.5</ele>
        <time>2016-08-31T07:29:29Z</time>
      </trkpt>
      <trkpt lat="47.18991" lon="-1.64514">
        <ele>7.4</ele>
        <time>2016-08-31T07:29:34Z</time>
      </trkpt>
      <trkpt lat="47.1899" lon="-1.64523">
        <ele>7.3</ele>
        <time>2016-08-31T07:29:39Z</time>
      </trkpt>
      <trkpt lat="47.1899" lon="-1.64533">
        <ele>7.3</ele>
        <time>2016-08-31T07:29:44Z</time>
      </trkpt>
      <trkpt lat="47.18991" lon="-1.64544">
        <ele>7.4</ele>
        <time>2016-08-31T07:29:49Z</time>
      </trkpt>
      <trkpt lat="47.18994" lon="-1.64554">
        <ele>7.6</ele>
        <time>2016-08-31T07:29:54Z</time>
      </trkpt>
      <trkpt lat="47.18994" lon="-1.64564">
        <ele>7.3</ele>
        <time>2016-08-31T07:29:59Z</time>
      </trkpt>
      <trkpt lat="47.18991" lon="-1.64574">
        <ele>1</ele>
        <time>2016-08-31T07:30:04Z</time>
      </trkpt>
      <trkpt lat="47.18991" lon="-1.64584">
        <ele>1</ele>
        <time>2016-08-31T07:30:09Z</time>
      </trkpt>
      <trkpt lat="47.18993" lon="-1.64593">
        <ele>1</ele>
        <time>2016-08-31T07:30:14Z</time>
      </trkpt>
      <trkpt lat="47.18996" lon="-1.64603">
        <ele>1</ele>
        <time>2016-08-31T07:30:19Z</time>
      </trkpt>
      <trkpt lat="47.18999" lon="-1.64611">
        <ele>1</ele>
        <time>2016-08-31T07:30:24Z</time>
      </trkpt>
      <trkpt lat="47.19001" lon="-1.64621">
        <ele>1</ele>
        <time>2016-08-31T07:30:29Z</time>
      </trkpt>
      <trkpt lat="47.19005" lon="-1.64631">
        <ele>1</ele>
        <time>2016-08-31T07:30:34Z</time>
      </trkpt>
      <trkpt lat="47.19008" lon="-1.6464">
        <ele>1</ele>
        <time>2016-08-31T07:30:39Z</time>
      </trkpt>
      <trkpt lat="47.1901" lon="-1.64649">
        <ele>1</ele>
        <time>2016-08-31T07:30:44Z</time>
      </trkpt>
      <trkpt lat="47.19009" lon="-1.64658">
        <ele>1</ele>
        <time>2016-08-31T07:30:49Z</time>
      </trkpt>
      <trkpt lat="47.19007" lon="-1.64666">
        <ele>1</ele>
        <time>2016-08-31T07:30:54Z</time>
      </trkpt>
      <trkpt lat="47.19005" lon="-1.64675">
        <ele>1</ele>
        <time>2016-08-31T07:30:59Z</time>
      </trkpt>
      <trkpt lat="47.19006" lon="-1.64685">
        <ele>1</ele>
        <time>2016-08-31T07:31:04Z</time>
      </trkpt>
      <trkpt lat="47.19005" lon="-1.64696">
        <ele>1</ele>
        <time>2016-08-31T07:31:09Z</time>
      </trkpt>
      <trkpt lat="47.19006" lon="-1.64705">
        <ele>1</ele>
        <time>2016-08-31T07:31:14Z</time>
      </trkpt>
      <trkpt lat="47.19006" lon="-1.64715">
        <ele>1</ele>
        <time>2016-08-31T07:31:19Z</time>
      </trkpt>
      <trkpt lat="47.19005" lon="-1.64724">
        <ele>4.8</ele>
        <time>2016-08-31T07:31:24Z</time>
      </trkpt>
      <trkpt lat="47.19009" lon="-1.64731">
        <ele>4.6</ele>
        <time>2016-08-31T07:31:29Z</time>
      </trkpt>
      <trkpt lat="47.19014" lon="-1.6474">
        <ele>4.2</ele>
        <time>2016-08-31T07:31:34Z</time>
      </trkpt>
      <trkpt lat="47.19016" lon="-1.64748">
        <ele>3.9</ele>
        <time>2016-08-31T07:31:39Z</time>
      </trkpt>
      <trkpt lat="47.19018" lon="-1.64756">
        <ele>3.7</ele>
        <time>2016-08-31T07:31:44Z</time>
      </trkpt>
      <trkpt lat="47.1902" lon="-1.64764">
        <ele>3.6</ele>
        <time>2016-08-31T07:31:49Z</time>
      </trkpt>
      <trkpt lat="47.19022" lon="-1.64773">
        <ele>3.4</ele>
        <time>2016-08-31T07:31:54Z</time>
      </trkpt>
      <trkpt lat="47.19024" lon="-1.64779">
        <ele>3.3</ele>
        <time>2016-08-31T07:31:59Z</time>
      </trkpt>
      <trkpt lat="47.19025" lon="-1.6478">
        <ele>3.2</ele>
        <time>2016-08-31T07:32:05Z</time>
      </trkpt>
      <trkpt lat="47.19028" lon="-1.64779">
        <ele>3</ele>
        <time>2016-08-31T07:32:12Z</time>
      </trkpt>
      <trkpt lat="47.19027" lon="-1.64779">
        <ele>-1</ele>
        <time>2016-08-31T07:32:22Z</time>
      </trkpt>
      <trkpt lat="47.19026" lon="-1.64784">
        <ele>-1</ele>
        <time>2016-08-31T07:32:28Z</time>
      </trkpt>
      <trkpt lat="47.19024" lon="-1.64795">
        <ele>-1</ele>
        <time>2016-08-31T07:32:33Z</time>
      </trkpt>
      <trkpt lat="47.19022" lon="-1.64803">
        <ele>-1</ele>
        <time>2016-08-31T07:32:38Z</time>
      </trkpt>
      <trkpt lat="47.19021" lon="-1.64813">
        <ele>-1</ele>
        <time>2016-08-31T07:32:43Z</time>
      </trkpt>
      <trkpt lat="47.19021" lon="-1.64822">
        <ele>-1</ele>
        <time>2016-08-31T07:32:48Z</time>
      </trkpt>
      <trkpt lat="47.19019" lon="-1.64834">
        <ele>-1</ele>
        <time>2016-08-31T07:32:53Z</time>
      </trkpt>
      <trkpt lat="47.19018" lon="-1.64843">
        <ele>3.9</ele>
        <time>2016-08-31T07:32:58Z</time>
      </trkpt>
      <trkpt lat="47.19015" lon="-1.64854">
        <ele>4.6</ele>
        <time>2016-08-31T07:33:03Z</time>
      </trkpt>
      <trkpt lat="47.19014" lon="-1.64866">
        <ele>4.9</ele>
        <time>2016-08-31T07:33:08Z</time>
      </trkpt>
      <trkpt lat="47.19012" lon="-1.64875">
        <ele>4.7</ele>
        <time>2016-08-31T07:33:13Z</time>
      </trkpt>
      <trkpt lat="47.1901" lon="-1.64884">
        <ele>4.5</ele>
        <time>2016-08-31T07:33:18Z</time>
      </trkpt>
      <trkpt lat="47.19008" lon="-1.64894">
        <ele>4.8</ele>
        <time>2016-08-31T07:33:23Z</time>
      </trkpt>
      <trkpt lat="47.19007" lon="-1.64904">
        <ele>5.5</ele>
        <time>2016-08-31T07:33:29Z</time>
      </trkpt>
      <trkpt lat="47.19006" lon="-1.64912">
        <ele>6</ele>
        <time>2016-08-31T07:33:34Z</time>
      </trkpt>
      <trkpt lat="47.19003" lon="-1.6492">
        <ele>6.6</ele>
        <time>2016-08-31T07:33:39Z</time>
      </trkpt>
      <trkpt lat="47.19" lon="-1.64929">
        <ele>6.5</ele>
        <time>2016-08-31T07:33:44Z</time>
      </trkpt>
      <trkpt lat="47.19" lon="-1.64938">
        <ele>6.2</ele>
        <time>2016-08-31T07:33:49Z</time>
      </trkpt>
      <trkpt lat="47.18999" lon="-1.64948">
        <ele>5.9</ele>
        <time>2016-08-31T07:33:54Z</time>
      </trkpt>
      <trkpt lat="47.18997" lon="-1.64958">
        <ele>5.5</ele>
        <time>2016-08-31T07:33:59Z</time>
      </trkpt>
      <trkpt lat="47.18996" lon="-1.64968">
        <ele>5.2</ele>
        <time>2016-08-31T07:34:04Z</time>
      </trkpt>
      <trkpt lat="47.18994" lon="-1.64977">
        <ele>4.8</ele>
        <time>2016-08-31T07:34:09Z</time>
      </trkpt>
      <trkpt lat="47.18993" lon="-1.64988">
        <ele>4.4</ele>
        <time>2016-08-31T07:34:14Z</time>
      </trkpt>
      <trkpt lat="47.18994" lon="-1.64998">
        <ele>4.1</ele>
        <time>2016-08-31T07:34:19Z</time>
      </trkpt>
      <trkpt lat="47.18996" lon="-1.65008">
        <ele>3.7</ele>
        <time>2016-08-31T07:34:24Z</time>
      </trkpt>
      <trkpt lat="47.18997" lon="-1.65018">
        <ele>3.3</ele>
        <time>2016-08-31T07:34:29Z</time>
      </trkpt>
      <trkpt lat="47.19" lon="-1.65027">
        <ele>3</ele>
        <time>2016-08-31T07:34:34Z</time>
      </trkpt>
      <trkpt lat="47.19005" lon="-1.65034">
        <ele>3</ele>
        <time>2016-08-31T07:34:39Z</time>
      </trkpt>
      <trkpt lat="47.19009" lon="-1.65042">
        <ele>3</ele>
        <time>2016-08-31T07:34:44Z</time>
      </trkpt>
      <trkpt lat="47.19013" lon="-1.65052">
        <ele>3</ele>
        <time>2016-08-31T07:34:49Z</time>
      </trkpt>
      <trkpt lat="47.19017" lon="-1.65061">
        <ele>3</ele>
        <time>2016-08-31T07:34:54Z</time>
      </trkpt>
      <trkpt lat="47.19019" lon="-1.65072">
        <ele>3</ele>
        <time>2016-08-31T07:34:59Z</time>
      </trkpt>
      <trkpt lat="47.19018" lon="-1.65081">
        <ele>3</ele>
        <time>2016-08-31T07:35:04Z</time>
      </trkpt>
      <trkpt lat="47.19017" lon="-1.65091">
        <ele>3</ele>
        <time>2016-08-31T07:35:09Z</time>
      </trkpt>
      <trkpt lat="47.19016" lon="-1.65101">
        <ele>3</ele>
        <time>2016-08-31T07:35:14Z</time>
      </trkpt>
      <trkpt lat="47.19015" lon="-1.65111">
        <ele>3</ele>
        <time>2016-08-31T07:35:19Z</time>
      </trkpt>
      <trkpt lat="47.19013" lon="-1.6512">
        <ele>3.2</ele>
        <time>2016-08-31T07:35:24Z</time>
      </trkpt>
      <trkpt lat="47.1901" lon="-1.6513">
        <ele>3.2</ele>
        <time>2016-08-31T07:35:30Z</time>
      </trkpt>
      <trkpt lat="47.19006" lon="-1.65137">
        <ele>3.2</ele>
        <time>2016-08-31T07:35:35Z</time>
      </trkpt>
      <trkpt lat="47.19002" lon="-1.65146">
        <ele>3</ele>
        <time>2016-08-31T07:35:40Z</time>
      </trkpt>
      <trkpt lat="47.19005" lon="-1.65155">
        <ele>3.1</ele>
        <time>2016-08-31T07:35:45Z</time>
      </trkpt>
      <trkpt lat="47.19009" lon="-1.65165">
        <ele>3</ele>
        <time>2016-08-31T07:35:51Z</time>
      </trkpt>
      <trkpt lat="47.19011" lon="-1.65175">
        <ele>3</ele>
        <time>2016-08-31T07:35:56Z</time>
      </trkpt>
      <trkpt lat="47.19009" lon="-1.65184">
        <ele>3</ele>
        <time>2016-08-31T07:36:01Z</time>
      </trkpt>
      <trkpt lat="47.19008" lon="-1.65192">
        <ele>3</ele>
        <time>2016-08-31T07:36:06Z</time>
      </trkpt>
      <trkpt lat="47.19008" lon="-1.65202">
        <ele>3</ele>
        <time>2016-08-31T07:36:11Z</time>
      </trkpt>
      <trkpt lat="47.1901" lon="-1.65213">
        <ele>3</ele>
        <time>2016-08-31T07:36:16Z</time>
      </trkpt>
      <trkpt lat="47.19012" lon="-1.65224">
        <ele>3</ele>
        <time>2016-08-31T07:36:21Z</time>
      </trkpt>
      <trkpt lat="47.19016" lon="-1.65234">
        <ele>3.1</ele>
        <time>2016-08-31T07:36:26Z</time>
      </trkpt>
      <trkpt lat="47.19018" lon="-1.65243">
        <ele>3.2</ele>
        <time>2016-08-31T07:36:31Z</time>
      </trkpt>
      <trkpt lat="47.19019" lon="-1.65252">
        <ele>3.3</ele>
        <time>2016-08-31T07:36:36Z</time>
      </trkpt>
      <trkpt lat="47.19023" lon="-1.65255">
        <ele>3.5</ele>
        <time>2016-08-31T07:36:41Z</time>
      </trkpt>
      <trkpt lat="47.19028" lon="-1.65257">
        <ele>3.8</ele>
        <time>2016-08-31T07:36:47Z</time>
      </trkpt>
      <trkpt lat="47.19034" lon="-1.65259">
        <ele>3.5</ele>
        <time>2016-08-31T07:36:52Z</time>
      </trkpt>
      <trkpt lat="47.19041" lon="-1.65262">
        <ele>3.3</ele>
        <time>2016-08-31T07:36:58Z</time>
      </trkpt>
      <trkpt lat="47.19046" lon="-1.65264">
        <ele>3.2</ele>
        <time>2016-08-31T07:37:03Z</time>
      </trkpt>
      <trkpt lat="47.19048" lon="-1.65261">
        <ele>3.2</ele>
        <time>2016-08-31T07:37:13Z</time>
      </trkpt>
      <trkpt lat="47.1905" lon="-1.65261">
        <ele>3.1</ele>
        <time>2016-08-31T07:37:19Z</time>
      </trkpt>
      <trkpt lat="47.19054" lon="-1.65261">
        <ele>3</ele>
        <time>2016-08-31T07:37:24Z</time>
      </trkpt>
      <trkpt lat="47.19055" lon="-1.65261">
        <ele>3</ele>
        <time>2016-08-31T07:37:37Z</time>
      </trkpt>
      <trkpt lat="47.19054" lon="-1.6526">
        <ele>3</ele>
        <time>2016-08-31T07:37:44Z</time>
      </trkpt>
      <trkpt lat="47.19056" lon="-1.6526">
        <ele>3</ele>
        <time>2016-08-31T07:38:02Z</time>
      </trkpt>
      <trkpt lat="47.19057" lon="-1.65261">
        <ele>3</ele>
        <time>2016-08-31T07:38:08Z</time>
      </trkpt>
      <trkpt lat="47.19055" lon="-1.65261">
        <ele>3</ele>
        <time>2016-08-31T07:38:16Z</time>
      </trkpt>
      <trkpt lat="47.19053" lon="-1.65264">
        <ele>3</ele>
        <time>2016-08-31T07:38:26Z</time>
      </trkpt>
      <trkpt lat="47.19051" lon="-1.65267">
        <ele>3.1</ele>
        <time>2016-08-31T07:38:33Z</time>
      </trkpt>
      <trkpt lat="47.19049" lon="-1.65266">
        <ele>3.1</ele>
        <time>2016-08-31T07:38:40Z</time>
      </trkpt>
      <trkpt lat="47.19046" lon="-1.65261">
        <ele>3.2</ele>
        <time>2016-08-31T07:38:46Z</time>
      </trkpt>
      <trkpt lat="47.19038" lon="-1.6526">
        <ele>3.4</ele>
        <time>2016-08-31T07:38:53Z</time>
      </trkpt>
      <trkpt lat="47.19035" lon="-1.65261">
        <ele>3.5</ele>
        <time>2016-08-31T07:39:00Z</time>
      </trkpt>
      <trkpt lat="47.19029" lon="-1.65259">
        <ele>3.6</ele>
        <time>2016-08-31T07:39:06Z</time>
      </trkpt>
      <trkpt lat="47.19025" lon="-1.65256">
        <ele>3.6</ele>
        <time>2016-08-31T07:39:11Z</time>
      </trkpt>
      <trkpt lat="47.1902" lon="-1.65255">
        <ele>3.3</ele>
        <time>2016-08-31T07:39:16Z</time>
      </trkpt>
      <trkpt lat="47.19012" lon="-1.65259">
        <ele>2.7</ele>
        <time>2016-08-31T07:39:21Z</time>
      </trkpt>
      <trkpt lat="47.19005" lon="-1.65263">
        <ele>2.3</ele>
        <time>2016-08-31T07:39:27Z</time>
      </trkpt>
      <trkpt lat="47.19001" lon="-1.65267">
        <ele>2.1</ele>
        <time>2016-08-31T07:39:33Z</time>
      </trkpt>
      <trkpt lat="47.18995" lon="-1.65267">
        <ele>2.2</ele>
        <time>2016-08-31T07:39:38Z</time>
      </trkpt>
      <trkpt lat="47.18989" lon="-1.6527">
        <ele>2.6</ele>
        <time>2016-08-31T07:39:44Z</time>
      </trkpt>
      <trkpt lat="47.18982" lon="-1.65271">
        <ele>3</ele>
        <time>2016-08-31T07:39:49Z</time>
      </trkpt>
      <trkpt lat="47.18974" lon="-1.65271">
        <ele>3.4</ele>
        <time>2016-08-31T07:39:55Z</time>
      </trkpt>
      <trkpt lat="47.18967" lon="-1.65269">
        <ele>3.3</ele>
        <time>2016-08-31T07:40:01Z</time>
      </trkpt>
      <trkpt lat="47.18962" lon="-1.65266">
        <ele>3.2</ele>
        <time>2016-08-31T07:40:06Z</time>
      </trkpt>
      <trkpt lat="47.18956" lon="-1.65263">
        <ele>3.3</ele>
        <time>2016-08-31T07:40:11Z</time>
      </trkpt>
      <trkpt lat="47.18949" lon="-1.65262">
        <ele>3.5</ele>
        <time>2016-08-31T07:40:16Z</time>
      </trkpt>
      <trkpt lat="47.18941" lon="-1.65259">
        <ele>3.6</ele>
        <time>2016-08-31T07:40:21Z</time>
      </trkpt>
      <trkpt lat="47.18933" lon="-1.65254">
        <ele>3.5</ele>
        <time>2016-08-31T07:40:27Z</time>
      </trkpt>
      <trkpt lat="47.18927" lon="-1.6525">
        <ele>3.4</ele>
        <time>2016-08-31T07:40:32Z</time>
      </trkpt>
      <trkpt lat="47.18921" lon="-1.65249">
        <ele>3.1</ele>
        <time>2016-08-31T07:40:37Z</time>
      </trkpt>
      <trkpt lat="47.18915" lon="-1.65246">
        <ele>3</ele>
        <time>2016-08-31T07:40:42Z</time>
      </trkpt>
      <trkpt lat="47.18908" lon="-1.65243">
        <ele>3</ele>
        <time>2016-08-31T07:40:47Z</time>
      </trkpt>
      <trkpt lat="47.18901" lon="-1.65236">
        <ele>3</ele>
        <time>2016-08-31T07:40:52Z</time>
      </trkpt>
      <trkpt lat="47.18895" lon="-1.65234">
        <ele>3</ele>
        <time>2016-08-31T07:40:57Z</time>
      </trkpt>
      <trkpt lat="47.18888" lon="-1.65229">
        <ele>3</ele>
        <time>2016-08-31T07:41:03Z</time>
      </trkpt>
      <trkpt lat="47.18881" lon="-1.65226">
        <ele>3</ele>
        <time>2016-08-31T07:41:08Z</time>
      </trkpt>
      <trkpt lat="47.18876" lon="-1.65224">
        <ele>3</ele>
        <time>2016-08-31T07:41:13Z</time>
      </trkpt>
      <trkpt lat="47.18868" lon="-1.65219">
        <ele>3</ele>
        <time>2016-08-31T07:41:18Z</time>
      </trkpt>
      <trkpt lat="47.18861" lon="-1.65213">
        <ele>3</ele>
        <time>2016-08-31T07:41:24Z</time>
      </trkpt>
      <trkpt lat="47.18854" lon="-1.65211">
        <ele>3.1</ele>
        <time>2016-08-31T07:41:29Z</time>
      </trkpt>
      <trkpt lat="47.1885" lon="-1.65208">
        <ele>3.2</ele>
        <time>2016-08-31T07:41:34Z</time>
      </trkpt>
      <trkpt lat="47.18843" lon="-1.65202">
        <ele>3.5</ele>
        <time>2016-08-31T07:41:40Z</time>
      </trkpt>
      <trkpt lat="47.18837" lon="-1.65198">
        <ele>3.8</ele>
        <time>2016-08-31T07:41:45Z</time>
      </trkpt>
      <trkpt lat="47.1883" lon="-1.65193">
        <ele>3.8</ele>
        <time>2016-08-31T07:41:51Z</time>
      </trkpt>
      <trkpt lat="47.18826" lon="-1.65189">
        <ele>3.6</ele>
        <time>2016-08-31T07:41:56Z</time>
      </trkpt>
      <trkpt lat="47.18819" lon="-1.65182">
        <ele>3.3</ele>
        <time>2016-08-31T07:42:01Z</time>
      </trkpt>
      <trkpt lat="47.18812" lon="-1.65178">
        <ele>3.1</ele>
        <time>2016-08-31T07:42:06Z</time>
      </trkpt>
      <trkpt lat="47.18806" lon="-1.65172">
        <ele>3</ele>
        <time>2016-08-31T07:42:12Z</time>
      </trkpt>
      <trkpt lat="47.188" lon="-1.65169">
        <ele>3</ele>
        <time>2016-08-31T07:42:18Z</time>
      </trkpt>
      <trkpt lat="47.18797" lon="-1.65166">
        <ele>3</ele>
        <time>2016-08-31T07:42:23Z</time>
      </trkpt>
      <trkpt lat="47.1879" lon="-1.6516">
        <ele>3</ele>
        <time>2016-08-31T07:42:28Z</time>
      </trkpt>
      <trkpt lat="47.18783" lon="-1.65153">
        <ele>3</ele>
        <time>2016-08-31T07:42:33Z</time>
      </trkpt>
      <trkpt lat="47.18777" lon="-1.65147">
        <ele>3</ele>
        <time>2016-08-31T07:42:38Z</time>
      </trkpt>
      <trkpt lat="47.18769" lon="-1.65142">
        <ele>3.3</ele>
        <time>2016-08-31T07:42:43Z</time>
      </trkpt>
      <trkpt lat="47.18762" lon="-1.65139">
        <ele>3.6</ele>
        <time>2016-08-31T07:42:48Z</time>
      </trkpt>
      <trkpt lat="47.18756" lon="-1.65134">
        <ele>3.7</ele>
        <time>2016-08-31T07:42:54Z</time>
      </trkpt>
      <trkpt lat="47.18748" lon="-1.65131">
        <ele>3.7</ele>
        <time>2016-08-31T07:43:00Z</time>
      </trkpt>
      <trkpt lat="47.18743" lon="-1.65128">
        <ele>3.5</ele>
        <time>2016-08-31T07:43:05Z</time>
      </trkpt>
      <trkpt lat="47.18735" lon="-1.65123">
        <ele>3.5</ele>
        <time>2016-08-31T07:43:10Z</time>
      </trkpt>
      <trkpt lat="47.18729" lon="-1.6512">
        <ele>3.6</ele>
        <time>2016-08-31T07:43:15Z</time>
      </trkpt>
      <trkpt lat="47.18721" lon="-1.65117">
        <ele>3.7</ele>
        <time>2016-08-31T07:43:20Z</time>
      </trkpt>
      <trkpt lat="47.18713" lon="-1.65114">
        <ele>3.6</ele>
        <time>2016-08-31T07:43:25Z</time>
      </trkpt>
      <trkpt lat="47.18706" lon="-1.65112">
        <ele>3.4</ele>
        <time>2016-08-31T07:43:30Z</time>
      </trkpt>
      <trkpt lat="47.187" lon="-1.65109">
        <ele>3.2</ele>
        <time>2016-08-31T07:43:35Z</time>
      </trkpt>
      <trkpt lat="47.18693" lon="-1.65105">
        <ele>3</ele>
        <time>2016-08-31T07:43:40Z</time>
      </trkpt>
      <trkpt lat="47.18687" lon="-1.65103">
        <ele>3</ele>
        <time>2016-08-31T07:43:45Z</time>
      </trkpt>
      <trkpt lat="47.18681" lon="-1.65101">
        <ele>3</ele>
        <time>2016-08-31T07:43:51Z</time>
      </trkpt>
      <trkpt lat="47.18674" lon="-1.65097">
        <ele>3</ele>
        <time>2016-08-31T07:43:56Z</time>
      </trkpt>
      <trkpt lat="47.18666" lon="-1.65094">
        <ele>3</ele>
        <time>2016-08-31T07:44:02Z</time>
      </trkpt>
      <trkpt lat="47.18658" lon="-1.65091">
        <ele>3.2</ele>
        <time>2016-08-31T07:44:07Z</time>
      </trkpt>
      <trkpt lat="47.18652" lon="-1.6509">
        <ele>3.4</ele>
        <time>2016-08-31T07:44:12Z</time>
      </trkpt>
      <trkpt lat="47.18645" lon="-1.65089">
        <ele>3.6</ele>
        <time>2016-08-31T07:44:17Z</time>
      </trkpt>
      <trkpt lat="47.18639" lon="-1.65086">
        <ele>3.9</ele>
        <time>2016-08-31T07:44:22Z</time>
      </trkpt>
      <trkpt lat="47.18631" lon="-1.65081">
        <ele>3.9</ele>
        <time>2016-08-31T07:44:28Z</time>
      </trkpt>
      <trkpt lat="47.18625" lon="-1.65079">
        <ele>3.8</ele>
        <time>2016-08-31T07:44:34Z</time>
      </trkpt>
      <trkpt lat="47.18619" lon="-1.65075">
        <ele>3.7</ele>
        <time>2016-08-31T07:44:39Z</time>
      </trkpt>
      <trkpt lat="47.18613" lon="-1.65072">
        <ele>3.6</ele>
        <time>2016-08-31T07:44:44Z</time>
      </trkpt>
      <trkpt lat="47.18606" lon="-1.65068">
        <ele>3.4</ele>
        <time>2016-08-31T07:44:49Z</time>
      </trkpt>
      <trkpt lat="47.18597" lon="-1.65066">
        <ele>3.2</ele>
        <time>2016-08-31T07:44:54Z</time>
      </trkpt>
      <trkpt lat="47.18589" lon="-1.65064">
        <ele>3.1</ele>
        <time>2016-08-31T07:44:59Z</time>
      </trkpt>
      <trkpt lat="47.18583" lon="-1.65061">
        <ele>3</ele>
        <time>2016-08-31T07:45:04Z</time>
      </trkpt>
      <trkpt lat="47.18576" lon="-1.65061">
        <ele>3</ele>
        <time>2016-08-31T07:45:10Z</time>
      </trkpt>
      <trkpt lat="47.18575" lon="-1.65058">
        <ele>3</ele>
        <time>2016-08-31T07:45:15Z</time>
      </trkpt>
      <trkpt lat="47.1857" lon="-1.65053">
        <ele>3</ele>
        <time>2016-08-31T07:45:20Z</time>
      </trkpt>
      <trkpt lat="47.18562" lon="-1.65049">
        <ele>3</ele>
        <time>2016-08-31T07:45:25Z</time>
      </trkpt>
      <trkpt lat="47.18556" lon="-1.65043">
        <ele>3</ele>
        <time>2016-08-31T07:45:30Z</time>
      </trkpt>
      <trkpt lat="47.1855" lon="-1.65041">
        <ele>3.1</ele>
        <time>2016-08-31T07:45:36Z</time>
      </trkpt>
      <trkpt lat="47.18545" lon="-1.65036">
        <ele>3.3</ele>
        <time>2016-08-31T07:45:42Z</time>
      </trkpt>
      <trkpt lat="47.1854" lon="-1.65031">
        <ele>3.5</ele>
        <time>2016-08-31T07:45:47Z</time>
      </trkpt>
      <trkpt lat="47.18533" lon="-1.65024">
        <ele>4</ele>
        <time>2016-08-31T07:45:53Z</time>
      </trkpt>
      <trkpt lat="47.18529" lon="-1.6502">
        <ele>4.5</ele>
        <time>2016-08-31T07:45:58Z</time>
      </trkpt>
      <trkpt lat="47.18523" lon="-1.65015">
        <ele>-1</ele>
        <time>2016-08-31T07:46:03Z</time>
      </trkpt>
      <trkpt lat="47.18518" lon="-1.65009">
        <ele>-1</ele>
        <time>2016-08-31T07:46:08Z</time>
      </trkpt>
      <trkpt lat="47.18513" lon="-1.65004">
        <ele>-1</ele>
        <time>2016-08-31T07:46:13Z</time>
      </trkpt>
      <trkpt lat="47.18505" lon="-1.65">
        <ele>-1</ele>
        <time>2016-08-31T07:46:18Z</time>
      </trkpt>
      <trkpt lat="47.18501" lon="-1.64996">
        <ele>-1</ele>
        <time>2016-08-31T07:46:23Z</time>
      </trkpt>
      <trkpt lat="47.18495" lon="-1.6499">
        <ele>-1</ele>
        <time>2016-08-31T07:46:28Z</time>
      </trkpt>
      <trkpt lat="47.1849" lon="-1.64984">
        <ele>-1</ele>
        <time>2016-08-31T07:46:33Z</time>
      </trkpt>
      <trkpt lat="47.18482" lon="-1.64979">
        <ele>-1</ele>
        <time>2016-08-31T07:46:38Z</time>
      </trkpt>
      <trkpt lat="47.18474" lon="-1.64974">
        <ele>-1</ele>
        <time>2016-08-31T07:46:44Z</time>
      </trkpt>
      <trkpt lat="47.18468" lon="-1.64967">
        <ele>-1</ele>
        <time>2016-08-31T07:46:49Z</time>
      </trkpt>
      <trkpt lat="47.18462" lon="-1.64959">
        <ele>-1</ele>
        <time>2016-08-31T07:46:54Z</time>
      </trkpt>
      <trkpt lat="47.18457" lon="-1.64955">
        <ele>-1</ele>
        <time>2016-08-31T07:46:59Z</time>
      </trkpt>
      <trkpt lat="47.18454" lon="-1.64949">
        <ele>4.5</ele>
        <time>2016-08-31T07:47:06Z</time>
      </trkpt>
      <trkpt lat="47.1845" lon="-1.64942">
        <ele>4.5</ele>
        <time>2016-08-31T07:47:12Z</time>
      </trkpt>
      <trkpt lat="47.18443" lon="-1.64937">
        <ele>4.5</ele>
        <time>2016-08-31T07:47:17Z</time>
      </trkpt>
      <trkpt lat="47.18438" lon="-1.64929">
        <ele>4.9</ele>
        <time>2016-08-31T07:47:23Z</time>
      </trkpt>
      <trkpt lat="47.18435" lon="-1.6492">
        <ele>5.2</ele>
        <time>2016-08-31T07:47:28Z</time>
      </trkpt>
      <trkpt lat="47.18434" lon="-1.64912">
        <ele>5.2</ele>
        <time>2016-08-31T07:47:33Z</time>
      </trkpt>
      <trkpt lat="47.18432" lon="-1.64899">
        <ele>5</ele>
        <time>2016-08-31T07:47:38Z</time>
      </trkpt>
      <trkpt lat="47.18428" lon="-1.64889">
        <ele>5</ele>
        <time>2016-08-31T07:47:43Z</time>
      </trkpt>
      <trkpt lat="47.18423" lon="-1.64885">
        <ele>4.8</ele>
        <time>2016-08-31T07:47:49Z</time>
      </trkpt>
      <trkpt lat="47.18417" lon="-1.64887">
        <ele>4.9</ele>
        <time>2016-08-31T07:47:55Z</time>
      </trkpt>
      <trkpt lat="47.18416" lon="-1.64894">
        <ele>4.9</ele>
        <time>2016-08-31T07:48:00Z</time>
      </trkpt>
      <trkpt lat="47.18412" lon="-1.64901">
        <ele>4.8</ele>
        <time>2016-08-31T07:48:06Z</time>
      </trkpt>
      <trkpt lat="47.18412" lon="-1.64911">
        <ele>4.5</ele>
        <time>2016-08-31T07:48:11Z</time>
      </trkpt>
      <trkpt lat="47.1841" lon="-1.64922">
        <ele>4.5</ele>
        <time>2016-08-31T07:48:17Z</time>
      </trkpt>
      <trkpt lat="47.18407" lon="-1.64933">
        <ele>4.9</ele>
        <time>2016-08-31T07:48:22Z</time>
      </trkpt>
      <trkpt lat="47.18403" lon="-1.64943">
        <ele>5.5</ele>
        <time>2016-08-31T07:48:27Z</time>
      </trkpt>
      <trkpt lat="47.184" lon="-1.64951">
        <ele>5.5</ele>
        <time>2016-08-31T07:48:32Z</time>
      </trkpt>
      <trkpt lat="47.18397" lon="-1.64959">
        <ele>5.3</ele>
        <time>2016-08-31T07:48:38Z</time>
      </trkpt>
      <trkpt lat="47.18392" lon="-1.64969">
        <ele>5</ele>
        <time>2016-08-31T07:48:43Z</time>
      </trkpt>
      <trkpt lat="47.18391" lon="-1.64977">
        <ele>4.7</ele>
        <time>2016-08-31T07:48:48Z</time>
      </trkpt>
      <trkpt lat="47.18387" lon="-1.64984">
        <ele>4.7</ele>
        <time>2016-08-31T07:48:53Z</time>
      </trkpt>
      <trkpt lat="47.18384" lon="-1.64993">
        <ele>4.4</ele>
        <time>2016-08-31T07:48:59Z</time>
      </trkpt>
      <trkpt lat="47.18383" lon="-1.65">
        <ele>4.2</ele>
        <time>2016-08-31T07:49:04Z</time>
      </trkpt>
      <trkpt lat="47.18378" lon="-1.65009">
        <ele>4.4</ele>
        <time>2016-08-31T07:49:09Z</time>
      </trkpt>
      <trkpt lat="47.18376" lon="-1.65017">
        <ele>4.5</ele>
        <time>2016-08-31T07:49:14Z</time>
      </trkpt>
      <trkpt lat="47.18374" lon="-1.65026">
        <ele>4.5</ele>
        <time>2016-08-31T07:49:19Z</time>
      </trkpt>
      <trkpt lat="47.1837" lon="-1.65032">
        <ele>-1</ele>
        <time>2016-08-31T07:49:24Z</time>
      </trkpt>
      <trkpt lat="47.18368" lon="-1.65041">
        <ele>-1</ele>
        <time>2016-08-31T07:49:29Z</time>
      </trkpt>
      <trkpt lat="47.18365" lon="-1.65051">
        <ele>-1</ele>
        <time>2016-08-31T07:49:34Z</time>
      </trkpt>
      <trkpt lat="47.18361" lon="-1.65063">
        <ele>-1</ele>
        <time>2016-08-31T07:49:39Z</time>
      </trkpt>
      <trkpt lat="47.18352" lon="-1.65072">
        <ele>7.3</ele>
        <time>2016-08-31T07:49:44Z</time>
      </trkpt>
      <trkpt lat="47.18346" lon="-1.65075">
        <ele>7.5</ele>
        <time>2016-08-31T07:49:49Z</time>
      </trkpt>
      <trkpt lat="47.18339" lon="-1.65073">
        <ele>7.3</ele>
        <time>2016-08-31T07:49:55Z</time>
      </trkpt>
      <trkpt lat="47.18333" lon="-1.65072">
        <ele>7.2</ele>
        <time>2016-08-31T07:50:00Z</time>
      </trkpt>
      <trkpt lat="47.18326" lon="-1.65066">
        <ele>2</ele>
        <time>2016-08-31T07:50:06Z</time>
      </trkpt>
      <trkpt lat="47.18322" lon="-1.65067">
        <ele>4</ele>
        <time>2016-08-31T07:50:11Z</time>
      </trkpt>
      <trkpt lat="47.18322" lon="-1.65073">
        <ele>5</ele>
        <time>2016-08-31T07:50:16Z</time>
      </trkpt>
      <trkpt lat="47.18317" lon="-1.65072">
        <ele>5</ele>
        <time>2016-08-31T07:50:22Z</time>
      </trkpt>
      <trkpt lat="47.18314" lon="-1.65072">
        <ele>5</ele>
        <time>2016-08-31T07:50:27Z</time>
      </trkpt>
      <trkpt lat="47.18307" lon="-1.65072">
        <ele>5</ele>
        <time>2016-08-31T07:50:32Z</time>
      </trkpt>
      <trkpt lat="47.18301" lon="-1.65074">
        <ele>5</ele>
        <time>2016-08-31T07:50:38Z</time>
      </trkpt>
      <trkpt lat="47.18298" lon="-1.65073">
        <ele>6</ele>
        <time>2016-08-31T07:50:43Z</time>
      </trkpt>
      <trkpt lat="47.18297" lon="-1.65075">
        <ele>9</ele>
        <time>2016-08-31T07:50:50Z</time>
      </trkpt>
      <trkpt lat="47.18296" lon="-1.65084">
        <ele>10</ele>
        <time>2016-08-31T07:50:56Z</time>
      </trkpt>
      <trkpt lat="47.18293" lon="-1.65084">
        <ele>13</ele>
        <time>2016-08-31T07:51:01Z</time>
      </trkpt>
      <trkpt lat="47.18287" lon="-1.65085">
        <ele>15</ele>
        <time>2016-08-31T07:51:06Z</time>
      </trkpt>
      <trkpt lat="47.18281" lon="-1.6509">
        <ele>17</ele>
        <time>2016-08-31T07:51:12Z</time>
      </trkpt>
      <trkpt lat="47.18275" lon="-1.65094">
        <ele>17</ele>
        <time>2016-08-31T07:51:18Z</time>
      </trkpt>
      <trkpt lat="47.18274" lon="-1.65099">
        <ele>17</ele>
        <time>2016-08-31T07:51:23Z</time>
      </trkpt>
      <trkpt lat="47.18277" lon="-1.65103">
        <ele>17</ele>
        <time>2016-08-31T07:51:31Z</time>
      </trkpt>
      <trkpt lat="47.18282" lon="-1.65106">
        <ele>17</ele>
        <time>2016-08-31T07:51:37Z</time>
      </trkpt>
      <trkpt lat="47.18285" lon="-1.65111">
        <ele>18</ele>
        <time>2016-08-31T07:51:42Z</time>
      </trkpt>
      <trkpt lat="47.18287" lon="-1.65118">
        <ele>19</ele>
        <time>2016-08-31T07:51:48Z</time>
      </trkpt>
      <trkpt lat="47.18289" lon="-1.65125">
        <ele>21</ele>
        <time>2016-08-31T07:51:53Z</time>
      </trkpt>
      <trkpt lat="47.1829" lon="-1.65132">
        <ele>23</ele>
        <time>2016-08-31T07:51:58Z</time>
      </trkpt>
      <trkpt lat="47.18291" lon="-1.65138">
        <ele>24</ele>
        <time>2016-08-31T07:52:03Z</time>
      </trkpt>
      <trkpt lat="47.18294" lon="-1.65147">
        <ele>26</ele>
        <time>2016-08-31T07:52:09Z</time>
      </trkpt>
      <trkpt lat="47.18298" lon="-1.65155">
        <ele>26</ele>
        <time>2016-08-31T07:52:15Z</time>
      </trkpt>
      <trkpt lat="47.18302" lon="-1.65161">
        <ele>26</ele>
        <time>2016-08-31T07:52:20Z</time>
      </trkpt>
      <trkpt lat="47.18305" lon="-1.65168">
        <ele>26</ele>
        <time>2016-08-31T07:52:26Z</time>
      </trkpt>
      <trkpt lat="47.18304" lon="-1.65177">
        <ele>26</ele>
        <time>2016-08-31T07:52:32Z</time>
      </trkpt>
      <trkpt lat="47.18301" lon="-1.65184">
        <ele>26</ele>
        <time>2016-08-31T07:52:38Z</time>
      </trkpt>
      <trkpt lat="47.183" lon="-1.65188">
        <ele>26</ele>
        <time>2016-08-31T07:52:43Z</time>
      </trkpt>
      <trkpt lat="47.183" lon="-1.6519">
        <ele>27</ele>
        <time>2016-08-31T07:52:52Z</time>
      </trkpt>
      <trkpt lat="47.18298" lon="-1.65193">
        <ele>27</ele>
        <time>2016-08-31T07:53:05Z</time>
      </trkpt>
      <trkpt lat="47.18299" lon="-1.65197">
        <ele>27</ele>
        <time>2016-08-31T07:53:16Z</time>
      </trkpt>
      <trkpt lat="47.18299" lon="-1.65198">
        <ele>27</ele>
        <time>2016-08-31T07:53:21Z</time>
      </trkpt>
      <trkpt lat="47.18296" lon="-1.65204">
        <ele>27</ele>
        <time>2016-08-31T07:53:27Z</time>
      </trkpt>
      <trkpt lat="47.18293" lon="-1.65208">
        <ele>27</ele>
        <time>2016-08-31T07:53:33Z</time>
      </trkpt>
      <trkpt lat="47.1829" lon="-1.65214">
        <ele>27</ele>
        <time>2016-08-31T07:53:38Z</time>
      </trkpt>
      <trkpt lat="47.18287" lon="-1.65221">
        <ele>27</ele>
        <time>2016-08-31T07:53:43Z</time>
      </trkpt>
      <trkpt lat="47.18286" lon="-1.65231">
        <ele>27</ele>
        <time>2016-08-31T07:53:49Z</time>
      </trkpt>
      <trkpt lat="47.18287" lon="-1.65241">
        <ele>27</ele>
        <time>2016-08-31T07:53:54Z</time>
      </trkpt>
      <trkpt lat="47.18287" lon="-1.65249">
        <ele>27</ele>
        <time>2016-08-31T07:53:59Z</time>
      </trkpt>
      <trkpt lat="47.18288" lon="-1.65257">
        <ele>27</ele>
        <time>2016-08-31T07:54:04Z</time>
      </trkpt>
      <trkpt lat="47.18288" lon="-1.65263">
        <ele>27</ele>
        <time>2016-08-31T07:54:09Z</time>
      </trkpt>
      <trkpt lat="47.18287" lon="-1.65271">
        <ele>27</ele>
        <time>2016-08-31T07:54:14Z</time>
      </trkpt>
      <trkpt lat="47.18284" lon="-1.65278">
        <ele>27</ele>
        <time>2016-08-31T07:54:19Z</time>
      </trkpt>
      <trkpt lat="47.18279" lon="-1.65284">
        <ele>27</ele>
        <time>2016-08-31T07:54:24Z</time>
      </trkpt>
      <trkpt lat="47.18275" lon="-1.6529">
        <ele>27</ele>
        <time>2016-08-31T07:54:29Z</time>
      </trkpt>
      <trkpt lat="47.1827" lon="-1.65296">
        <ele>27</ele>
        <time>2016-08-31T07:54:34Z</time>
      </trkpt>
      <trkpt lat="47.18268" lon="-1.65305">
        <ele>27</ele>
        <time>2016-08-31T07:54:39Z</time>
      </trkpt>
      <trkpt lat="47.18269" lon="-1.65314">
        <ele>27</ele>
        <time>2016-08-31T07:54:44Z</time>
      </trkpt>
      <trkpt lat="47.18267" lon="-1.65322">
        <ele>27</ele>
        <time>2016-08-31T07:54:49Z</time>
      </trkpt>
      <trkpt lat="47.18269" lon="-1.65331">
        <ele>27</ele>
        <time>2016-08-31T07:54:54Z</time>
      </trkpt>
      <trkpt lat="47.18272" lon="-1.6534">
        <ele>27</ele>
        <time>2016-08-31T07:54:59Z</time>
      </trkpt>
      <trkpt lat="47.18275" lon="-1.6535">
        <ele>27</ele>
        <time>2016-08-31T07:55:05Z</time>
      </trkpt>
      <trkpt lat="47.1828" lon="-1.65357">
        <ele>27</ele>
        <time>2016-08-31T07:55:10Z</time>
      </trkpt>
      <trkpt lat="47.18283" lon="-1.65366">
        <ele>27</ele>
        <time>2016-08-31T07:55:15Z</time>
      </trkpt>
      <trkpt lat="47.18287" lon="-1.65375">
        <ele>27</ele>
        <time>2016-08-31T07:55:21Z</time>
      </trkpt>
      <trkpt lat="47.18291" lon="-1.65381">
        <ele>27</ele>
        <time>2016-08-31T07:55:27Z</time>
      </trkpt>
      <trkpt lat="47.18295" lon="-1.6539">
        <ele>27</ele>
        <time>2016-08-31T07:55:32Z</time>
      </trkpt>
      <trkpt lat="47.18297" lon="-1.65397">
        <ele>27</ele>
        <time>2016-08-31T07:55:37Z</time>
      </trkpt>
      <trkpt lat="47.18298" lon="-1.65405">
        <ele>28</ele>
        <time>2016-08-31T07:55:42Z</time>
      </trkpt>
      <trkpt lat="47.18299" lon="-1.65413">
        <ele>29</ele>
        <time>2016-08-31T07:55:47Z</time>
      </trkpt>
      <trkpt lat="47.18304" lon="-1.65418">
        <ele>30</ele>
        <time>2016-08-31T07:55:53Z</time>
      </trkpt>
      <trkpt lat="47.18306" lon="-1.65422">
        <ele>31</ele>
        <time>2016-08-31T07:55:58Z</time>
      </trkpt>
      <trkpt lat="47.18305" lon="-1.65421">
        <ele>32</ele>
        <time>2016-08-31T07:56:14Z</time>
      </trkpt>
      <trkpt lat="47.18304" lon="-1.65422">
        <ele>32</ele>
        <time>2016-08-31T07:56:21Z</time>
      </trkpt>
      <trkpt lat="47.18306" lon="-1.65421">
        <ele>32</ele>
        <time>2016-08-31T07:56:36Z</time>
      </trkpt>
      <trkpt lat="47.18305" lon="-1.65421">
        <ele>32</ele>
        <time>2016-08-31T07:56:45Z</time>
      </trkpt>
      <trkpt lat="47.18305" lon="-1.65423">
        <ele>32</ele>
        <time>2016-08-31T07:56:57Z</time>
      </trkpt>
      <trkpt lat="47.18306" lon="-1.65424">
        <ele>31</ele>
        <time>2016-08-31T07:57:06Z</time>
      </trkpt>
      <trkpt lat="47.18306" lon="-1.65426">
        <ele>31</ele>
        <time>2016-08-31T07:57:16Z</time>
      </trkpt>
      <trkpt lat="47.18309" lon="-1.65428">
        <ele>31</ele>
        <time>2016-08-31T07:57:28Z</time>
      </trkpt>
      <trkpt lat="47.18308" lon="-1.65426">
        <ele>30</ele>
        <time>2016-08-31T07:57:36Z</time>
      </trkpt>
      <trkpt lat="47.18306" lon="-1.65426">
        <ele>30</ele>
        <time>2016-08-31T07:57:42Z</time>
      </trkpt>
      <trkpt lat="47.18305" lon="-1.65425">
        <ele>30</ele>
        <time>2016-08-31T07:57:48Z</time>
      </trkpt>
      <trkpt lat="47.18305" lon="-1.65424">
        <ele>31</ele>
        <time>2016-08-31T07:58:01Z</time>
      </trkpt>
      <trkpt lat="47.18303" lon="-1.65424">
        <ele>33</ele>
        <time>2016-08-31T07:58:07Z</time>
      </trkpt>
      <trkpt lat="47.18302" lon="-1.65426">
        <ele>33</ele>
        <time>2016-08-31T07:58:12Z</time>
      </trkpt>
      <trkpt lat="47.18302" lon="-1.65428">
        <ele>33</ele>
        <time>2016-08-31T07:58:33Z</time>
      </trkpt>
      <trkpt lat="47.18301" lon="-1.65432">
        <ele>33</ele>
        <time>2016-08-31T07:58:39Z</time>
      </trkpt>
      <trkpt lat="47.18304" lon="-1.65436">
        <ele>33</ele>
        <time>2016-08-31T07:58:48Z</time>
      </trkpt>
      <trkpt lat="47.18306" lon="-1.65443">
        <ele>33</ele>
        <time>2016-08-31T07:58:54Z</time>
      </trkpt>
      <trkpt lat="47.18312" lon="-1.65447">
        <ele>33</ele>
        <time>2016-08-31T07:58:59Z</time>
      </trkpt>
      <trkpt lat="47.18315" lon="-1.65454">
        <ele>32</ele>
        <time>2016-08-31T07:59:04Z</time>
      </trkpt>
      <trkpt lat="47.18319" lon="-1.65463">
        <ele>32</ele>
        <time>2016-08-31T07:59:10Z</time>
      </trkpt>
      <trkpt lat="47.18325" lon="-1.65469">
        <ele>32</ele>
        <time>2016-08-31T07:59:15Z</time>
      </trkpt>
      <trkpt lat="47.1833" lon="-1.65475">
        <ele>32</ele>
        <time>2016-08-31T07:59:20Z</time>
      </trkpt>
      <trkpt lat="47.18337" lon="-1.65483">
        <ele>31</ele>
        <time>2016-08-31T07:59:26Z</time>
      </trkpt>
      <trkpt lat="47.18343" lon="-1.65489">
        <ele>31</ele>
        <time>2016-08-31T07:59:32Z</time>
      </trkpt>
      <trkpt lat="47.18346" lon="-1.65495">
        <ele>31</ele>
        <time>2016-08-31T07:59:37Z</time>
      </trkpt>
      <trkpt lat="47.1835" lon="-1.65502">
        <ele>31</ele>
        <time>2016-08-31T07:59:42Z</time>
      </trkpt>
      <trkpt lat="47.18355" lon="-1.65508">
        <ele>30</ele>
        <time>2016-08-31T07:59:47Z</time>
      </trkpt>
      <trkpt lat="47.1836" lon="-1.65514">
        <ele>30</ele>
        <time>2016-08-31T07:59:52Z</time>
      </trkpt>
      <trkpt lat="47.18365" lon="-1.6552">
        <ele>30</ele>
        <time>2016-08-31T07:59:57Z</time>
      </trkpt>
      <trkpt lat="47.18369" lon="-1.65524">
        <ele>30</ele>
        <time>2016-08-31T08:00:02Z</time>
      </trkpt>
      <trkpt lat="47.18376" lon="-1.65528">
        <ele>30</ele>
        <time>2016-08-31T08:00:08Z</time>
      </trkpt>
      <trkpt lat="47.18385" lon="-1.65532">
        <ele>30</ele>
        <time>2016-08-31T08:00:15Z</time>
      </trkpt>
      <trkpt lat="47.18391" lon="-1.65535">
        <ele>30</ele>
        <time>2016-08-31T08:00:20Z</time>
      </trkpt>
      <trkpt lat="47.18397" lon="-1.65537">
        <ele>30</ele>
        <time>2016-08-31T08:00:25Z</time>
      </trkpt>
      <trkpt lat="47.18405" lon="-1.65541">
        <ele>30</ele>
        <time>2016-08-31T08:00:31Z</time>
      </trkpt>
      <trkpt lat="47.18412" lon="-1.65543">
        <ele>30</ele>
        <time>2016-08-31T08:00:36Z</time>
      </trkpt>
      <trkpt lat="47.18419" lon="-1.65544">
        <ele>30</ele>
        <time>2016-08-31T08:00:41Z</time>
      </trkpt>
      <trkpt lat="47.18425" lon="-1.65546">
        <ele>30</ele>
        <time>2016-08-31T08:00:47Z</time>
      </trkpt>
      <trkpt lat="47.1843" lon="-1.65547">
        <ele>30</ele>
        <time>2016-08-31T08:00:52Z</time>
      </trkpt>
      <trkpt lat="47.18435" lon="-1.65553">
        <ele>30</ele>
        <time>2016-08-31T08:00:57Z</time>
      </trkpt>
      <trkpt lat="47.18442" lon="-1.65561">
        <ele>30</ele>
        <time>2016-08-31T08:01:03Z</time>
      </trkpt>
      <trkpt lat="47.18446" lon="-1.65568">
        <ele>30</ele>
        <time>2016-08-31T08:01:08Z</time>
      </trkpt>
      <trkpt lat="47.1845" lon="-1.65577">
        <ele>30</ele>
        <time>2016-08-31T08:01:13Z</time>
      </trkpt>
      <trkpt lat="47.18454" lon="-1.65584">
        <ele>30</ele>
        <time>2016-08-31T08:01:18Z</time>
      </trkpt>
      <trkpt lat="47.18458" lon="-1.65592">
        <ele>30</ele>
        <time>2016-08-31T08:01:23Z</time>
      </trkpt>
      <trkpt lat="47.18464" lon="-1.65598">
        <ele>30</ele>
        <time>2016-08-31T08:01:29Z</time>
      </trkpt>
      <trkpt lat="47.18469" lon="-1.65603">
        <ele>30</ele>
        <time>2016-08-31T08:01:34Z</time>
      </trkpt>
      <trkpt lat="47.18473" lon="-1.65611">
        <ele>30</ele>
        <time>2016-08-31T08:01:40Z</time>
      </trkpt>
      <trkpt lat="47.18477" lon="-1.65619">
        <ele>30</ele>
        <time>2016-08-31T08:01:45Z</time>
      </trkpt>
      <trkpt lat="47.18479" lon="-1.65628">
        <ele>30</ele>
        <time>2016-08-31T08:01:50Z</time>
      </trkpt>
      <trkpt lat="47.18482" lon="-1.65637">
        <ele>30</ele>
        <time>2016-08-31T08:01:55Z</time>
      </trkpt>
      <trkpt lat="47.18486" lon="-1.65643">
        <ele>30</ele>
        <time>2016-08-31T08:02:00Z</time>
      </trkpt>
      <trkpt lat="47.18492" lon="-1.65655">
        <ele>30</ele>
        <time>2016-08-31T08:02:07Z</time>
      </trkpt>
      <trkpt lat="47.18493" lon="-1.65661">
        <ele>30</ele>
        <time>2016-08-31T08:02:13Z</time>
      </trkpt>
      <trkpt lat="47.18495" lon="-1.65669">
        <ele>30</ele>
        <time>2016-08-31T08:02:18Z</time>
      </trkpt>
      <trkpt lat="47.18499" lon="-1.65677">
        <ele>30</ele>
        <time>2016-08-31T08:02:24Z</time>
      </trkpt>
      <trkpt lat="47.18504" lon="-1.65685">
        <ele>30</ele>
        <time>2016-08-31T08:02:29Z</time>
      </trkpt>
      <trkpt lat="47.18507" lon="-1.65692">
        <ele>30</ele>
        <time>2016-08-31T08:02:34Z</time>
      </trkpt>
      <trkpt lat="47.18517" lon="-1.65699">
        <ele>30</ele>
        <time>2016-08-31T08:02:39Z</time>
      </trkpt>
      <trkpt lat="47.18521" lon="-1.65706">
        <ele>30</ele>
        <time>2016-08-31T08:02:44Z</time>
      </trkpt>
      <trkpt lat="47.18525" lon="-1.65714">
        <ele>30</ele>
        <time>2016-08-31T08:02:49Z</time>
      </trkpt>
      <trkpt lat="47.1853" lon="-1.65721">
        <ele>30</ele>
        <time>2016-08-31T08:02:54Z</time>
      </trkpt>
      <trkpt lat="47.18533" lon="-1.6573">
        <ele>30</ele>
        <time>2016-08-31T08:02:59Z</time>
      </trkpt>
      <trkpt lat="47.18536" lon="-1.65741">
        <ele>30</ele>
        <time>2016-08-31T08:03:05Z</time>
      </trkpt>
      <trkpt lat="47.1854" lon="-1.6575">
        <ele>30</ele>
        <time>2016-08-31T08:03:10Z</time>
      </trkpt>
      <trkpt lat="47.18542" lon="-1.6576">
        <ele>30</ele>
        <time>2016-08-31T08:03:15Z</time>
      </trkpt>
      <trkpt lat="47.18543" lon="-1.65771">
        <ele>30</ele>
        <time>2016-08-31T08:03:21Z</time>
      </trkpt>
      <trkpt lat="47.18544" lon="-1.6578">
        <ele>30</ele>
        <time>2016-08-31T08:03:27Z</time>
      </trkpt>
      <trkpt lat="47.18543" lon="-1.65788">
        <ele>30</ele>
        <time>2016-08-31T08:03:32Z</time>
      </trkpt>
      <trkpt lat="47.18536" lon="-1.65794">
        <ele>30</ele>
        <time>2016-08-31T08:03:38Z</time>
      </trkpt>
      <trkpt lat="47.18531" lon="-1.65802">
        <ele>30</ele>
        <time>2016-08-31T08:03:43Z</time>
      </trkpt>
      <trkpt lat="47.18526" lon="-1.6581">
        <ele>30</ele>
        <time>2016-08-31T08:03:49Z</time>
      </trkpt>
      <trkpt lat="47.18522" lon="-1.65817">
        <ele>30</ele>
        <time>2016-08-31T08:03:54Z</time>
      </trkpt>
      <trkpt lat="47.18522" lon="-1.65827">
        <ele>30</ele>
        <time>2016-08-31T08:03:59Z</time>
      </trkpt>
      <trkpt lat="47.18521" lon="-1.65834">
        <ele>29</ele>
        <time>2016-08-31T08:04:04Z</time>
      </trkpt>
      <trkpt lat="47.18518" lon="-1.65844">
        <ele>29</ele>
        <time>2016-08-31T08:04:10Z</time>
      </trkpt>
      <trkpt lat="47.18513" lon="-1.65851">
        <ele>29</ele>
        <time>2016-08-31T08:04:16Z</time>
      </trkpt>
      <trkpt lat="47.18508" lon="-1.65859">
        <ele>29</ele>
        <time>2016-08-31T08:04:22Z</time>
      </trkpt>
      <trkpt lat="47.18503" lon="-1.65862">
        <ele>26</ele>
        <time>2016-08-31T08:04:27Z</time>
      </trkpt>
      <trkpt lat="47.18497" lon="-1.65868">
        <ele>24</ele>
        <time>2016-08-31T08:04:32Z</time>
      </trkpt>
      <trkpt lat="47.18492" lon="-1.65873">
        <ele>24</ele>
        <time>2016-08-31T08:04:37Z</time>
      </trkpt>
      <trkpt lat="47.18485" lon="-1.6588">
        <ele>22</ele>
        <time>2016-08-31T08:04:43Z</time>
      </trkpt>
      <trkpt lat="47.18483" lon="-1.65891">
        <ele>20</ele>
        <time>2016-08-31T08:04:49Z</time>
      </trkpt>
      <trkpt lat="47.18477" lon="-1.65899">
        <ele>20</ele>
        <time>2016-08-31T08:04:55Z</time>
      </trkpt>
      <trkpt lat="47.1847" lon="-1.65904">
        <ele>20</ele>
        <time>2016-08-31T08:05:01Z</time>
      </trkpt>
      <trkpt lat="47.18462" lon="-1.65913">
        <ele>20</ele>
        <time>2016-08-31T08:05:06Z</time>
      </trkpt>
      <trkpt lat="47.18457" lon="-1.65919">
        <ele>20</ele>
        <time>2016-08-31T08:05:12Z</time>
      </trkpt>
      <trkpt lat="47.18453" lon="-1.65926">
        <ele>20</ele>
        <time>2016-08-31T08:05:17Z</time>
      </trkpt>
      <trkpt lat="47.18453" lon="-1.65936">
        <ele>18</ele>
        <time>2016-08-31T08:05:22Z</time>
      </trkpt>
      <trkpt lat="47.18456" lon="-1.65949">
        <ele>18</ele>
        <time>2016-08-31T08:05:27Z</time>
      </trkpt>
      <trkpt lat="47.18459" lon="-1.65956">
        <ele>18</ele>
        <time>2016-08-31T08:05:32Z</time>
      </trkpt>
      <trkpt lat="47.18464" lon="-1.65963">
        <ele>18</ele>
        <time>2016-08-31T08:05:38Z</time>
      </trkpt>
      <trkpt lat="47.1847" lon="-1.65969">
        <ele>18</ele>
        <time>2016-08-31T08:05:43Z</time>
      </trkpt>
      <trkpt lat="47.18473" lon="-1.65977">
        <ele>18</ele>
        <time>2016-08-31T08:05:48Z</time>
      </trkpt>
      <trkpt lat="47.18476" lon="-1.65987">
        <ele>19</ele>
        <time>2016-08-31T08:05:54Z</time>
      </trkpt>
      <trkpt lat="47.18478" lon="-1.65994">
        <ele>21</ele>
        <time>2016-08-31T08:05:59Z</time>
      </trkpt>
      <trkpt lat="47.18478" lon="-1.66001">
        <ele>22</ele>
        <time>2016-08-31T08:06:05Z</time>
      </trkpt>
      <trkpt lat="47.18487" lon="-1.66009">
        <ele>24</ele>
        <time>2016-08-31T08:06:11Z</time>
      </trkpt>
      <trkpt lat="47.18492" lon="-1.66013">
        <ele>24</ele>
        <time>2016-08-31T08:06:16Z</time>
      </trkpt>
      <trkpt lat="47.18497" lon="-1.66019">
        <ele>24</ele>
        <time>2016-08-31T08:06:21Z</time>
      </trkpt>
      <trkpt lat="47.18504" lon="-1.66025">
        <ele>24</ele>
        <time>2016-08-31T08:06:27Z</time>
      </trkpt>
      <trkpt lat="47.18509" lon="-1.66032">
        <ele>23</ele>
        <time>2016-08-31T08:06:32Z</time>
      </trkpt>
      <trkpt lat="47.1851" lon="-1.66037">
        <ele>23</ele>
        <time>2016-08-31T08:06:37Z</time>
      </trkpt>
      <trkpt lat="47.18515" lon="-1.66046">
        <ele>23</ele>
        <time>2016-08-31T08:06:42Z</time>
      </trkpt>
      <trkpt lat="47.18518" lon="-1.66052">
        <ele>21</ele>
        <time>2016-08-31T08:06:47Z</time>
      </trkpt>
      <trkpt lat="47.18523" lon="-1.66059">
        <ele>20</ele>
        <time>2016-08-31T08:06:53Z</time>
      </trkpt>
      <trkpt lat="47.18529" lon="-1.6606">
        <ele>20</ele>
        <time>2016-08-31T08:06:58Z</time>
      </trkpt>
      <trkpt lat="47.18533" lon="-1.66065">
        <ele>20</ele>
        <time>2016-08-31T08:07:03Z</time>
      </trkpt>
      <trkpt lat="47.1854" lon="-1.66066">
        <ele>20</ele>
        <time>2016-08-31T08:07:08Z</time>
      </trkpt>
      <trkpt lat="47.18547" lon="-1.66065">
        <ele>25</ele>
        <time>2016-08-31T08:07:13Z</time>
      </trkpt>
      <trkpt lat="47.18555" lon="-1.66067">
        <ele>26</ele>
        <time>2016-08-31T08:07:18Z</time>
      </trkpt>
      <trkpt lat="47.18562" lon="-1.66069">
        <ele>26</ele>
        <time>2016-08-31T08:07:23Z</time>
      </trkpt>
      <trkpt lat="47.18563" lon="-1.66074">
        <ele>27</ele>
        <time>2016-08-31T08:07:28Z</time>
      </trkpt>
      <trkpt lat="47.18571" lon="-1.66081">
        <ele>29</ele>
        <time>2016-08-31T08:07:37Z</time>
      </trkpt>
      <trkpt lat="47.18581" lon="-1.66084">
        <ele>30</ele>
        <time>2016-08-31T08:07:42Z</time>
      </trkpt>
      <trkpt lat="47.18587" lon="-1.66088">
        <ele>30</ele>
        <time>2016-08-31T08:07:51Z</time>
      </trkpt>
      <trkpt lat="47.18596" lon="-1.66096">
        <ele>28</ele>
        <time>2016-08-31T08:07:56Z</time>
      </trkpt>
      <trkpt lat="47.186" lon="-1.66101">
        <ele>28</ele>
        <time>2016-08-31T08:08:01Z</time>
      </trkpt>
      <trkpt lat="47.18607" lon="-1.6611">
        <ele>28</ele>
        <time>2016-08-31T08:08:06Z</time>
      </trkpt>
      <trkpt lat="47.18611" lon="-1.66117">
        <ele>28</ele>
        <time>2016-08-31T08:08:12Z</time>
      </trkpt>
      <trkpt lat="47.18614" lon="-1.6612">
        <ele>29</ele>
        <time>2016-08-31T08:08:17Z</time>
      </trkpt>
      <trkpt lat="47.1862" lon="-1.66127">
        <ele>29</ele>
        <time>2016-08-31T08:08:22Z</time>
      </trkpt>
      <trkpt lat="47.18626" lon="-1.66134">
        <ele>29</ele>
        <time>2016-08-31T08:08:28Z</time>
      </trkpt>
      <trkpt lat="47.18632" lon="-1.66141">
        <ele>34</ele>
        <time>2016-08-31T08:08:34Z</time>
      </trkpt>
      <trkpt lat="47.18636" lon="-1.66144">
        <ele>37</ele>
        <time>2016-08-31T08:08:39Z</time>
      </trkpt>
      <trkpt lat="47.18643" lon="-1.66149">
        <ele>38</ele>
        <time>2016-08-31T08:08:44Z</time>
      </trkpt>
      <trkpt lat="47.18653" lon="-1.66156">
        <ele>38</ele>
        <time>2016-08-31T08:08:51Z</time>
      </trkpt>
      <trkpt lat="47.18659" lon="-1.66159">
        <ele>34</ele>
        <time>2016-08-31T08:08:56Z</time>
      </trkpt>
      <trkpt lat="47.18667" lon="-1.66165">
        <ele>29</ele>
        <time>2016-08-31T08:09:01Z</time>
      </trkpt>
      <trkpt lat="47.18676" lon="-1.66168">
        <ele>28</ele>
        <time>2016-08-31T08:09:07Z</time>
      </trkpt>
      <trkpt lat="47.1868" lon="-1.6617">
        <ele>24</ele>
        <time>2016-08-31T08:09:12Z</time>
      </trkpt>
      <trkpt lat="47.18683" lon="-1.66175">
        <ele>23</ele>
        <time>2016-08-31T08:09:17Z</time>
      </trkpt>
      <trkpt lat="47.18689" lon="-1.66177">
        <ele>23</ele>
        <time>2016-08-31T08:09:23Z</time>
      </trkpt>
      <trkpt lat="47.18696" lon="-1.66184">
        <ele>23</ele>
        <time>2016-08-31T08:09:28Z</time>
      </trkpt>
      <trkpt lat="47.18701" lon="-1.66188">
        <ele>20</ele>
        <time>2016-08-31T08:09:33Z</time>
      </trkpt>
      <trkpt lat="47.18709" lon="-1.66194">
        <ele>19</ele>
        <time>2016-08-31T08:09:39Z</time>
      </trkpt>
      <trkpt lat="47.18714" lon="-1.662">
        <ele>17</ele>
        <time>2016-08-31T08:09:44Z</time>
      </trkpt>
      <trkpt lat="47.18718" lon="-1.66204">
        <ele>16</ele>
        <time>2016-08-31T08:09:49Z</time>
      </trkpt>
      <trkpt lat="47.18723" lon="-1.66212">
        <ele>16</ele>
        <time>2016-08-31T08:09:54Z</time>
      </trkpt>
      <trkpt lat="47.18727" lon="-1.66218">
        <ele>15</ele>
        <time>2016-08-31T08:09:59Z</time>
      </trkpt>
      <trkpt lat="47.18734" lon="-1.66222">
        <ele>12</ele>
        <time>2016-08-31T08:10:04Z</time>
      </trkpt>
      <trkpt lat="47.18738" lon="-1.66222">
        <ele>10</ele>
        <time>2016-08-31T08:10:10Z</time>
      </trkpt>
      <trkpt lat="47.18744" lon="-1.66223">
        <ele>10</ele>
        <time>2016-08-31T08:10:15Z</time>
      </trkpt>
      <trkpt lat="47.18753" lon="-1.66226">
        <ele>10</ele>
        <time>2016-08-31T08:10:20Z</time>
      </trkpt>
      <trkpt lat="47.18757" lon="-1.66228">
        <ele>10</ele>
        <time>2016-08-31T08:10:27Z</time>
      </trkpt>
      <trkpt lat="47.18757" lon="-1.66231">
        <ele>10</ele>
        <time>2016-08-31T08:10:37Z</time>
      </trkpt>
      <trkpt lat="47.18757" lon="-1.66232">
        <ele>10</ele>
        <time>2016-08-31T08:10:43Z</time>
      </trkpt>
      <trkpt lat="47.18759" lon="-1.66231">
        <ele>10</ele>
        <time>2016-08-31T08:10:48Z</time>
      </trkpt>
      <trkpt lat="47.18757" lon="-1.66234">
        <ele>11</ele>
        <time>2016-08-31T08:10:53Z</time>
      </trkpt>
      <trkpt lat="47.18758" lon="-1.66241">
        <ele>12</ele>
        <time>2016-08-31T08:10:59Z</time>
      </trkpt>
      <trkpt lat="47.18762" lon="-1.66246">
        <ele>12</ele>
        <time>2016-08-31T08:11:06Z</time>
      </trkpt>
      <trkpt lat="47.18768" lon="-1.66253">
        <ele>12</ele>
        <time>2016-08-31T08:11:13Z</time>
      </trkpt>
      <trkpt lat="47.18774" lon="-1.66256">
        <ele>10</ele>
        <time>2016-08-31T08:11:18Z</time>
      </trkpt>
      <trkpt lat="47.18778" lon="-1.66261">
        <ele>7</ele>
        <time>2016-08-31T08:11:24Z</time>
      </trkpt>
      <trkpt lat="47.1878" lon="-1.66268">
        <ele>6</ele>
        <time>2016-08-31T08:11:30Z</time>
      </trkpt>
      <trkpt lat="47.18779" lon="-1.66275">
        <ele>4</ele>
        <time>2016-08-31T08:11:35Z</time>
      </trkpt>
      <trkpt lat="47.18779" lon="-1.66284">
        <ele>3</ele>
        <time>2016-08-31T08:11:41Z</time>
      </trkpt>
      <trkpt lat="47.18779" lon="-1.66293">
        <ele>3</ele>
        <time>2016-08-31T08:11:46Z</time>
      </trkpt>
      <trkpt lat="47.1878" lon="-1.66303">
        <ele>3</ele>
        <time>2016-08-31T08:11:51Z</time>
      </trkpt>
      <trkpt lat="47.18778" lon="-1.66312">
        <ele>3</ele>
        <time>2016-08-31T08:11:56Z</time>
      </trkpt>
      <trkpt lat="47.18777" lon="-1.66321">
        <ele>3</ele>
        <time>2016-08-31T08:12:01Z</time>
      </trkpt>
      <trkpt lat="47.18776" lon="-1.66328">
        <ele>3</ele>
        <time>2016-08-31T08:12:06Z</time>
      </trkpt>
      <trkpt lat="47.18776" lon="-1.66338">
        <ele>3</ele>
        <time>2016-08-31T08:12:11Z</time>
      </trkpt>
      <trkpt lat="47.18782" lon="-1.6635">
        <ele>2</ele>
        <time>2016-08-31T08:12:16Z</time>
      </trkpt>
      <trkpt lat="47.18781" lon="-1.66358">
        <ele>2</ele>
        <time>2016-08-31T08:12:21Z</time>
      </trkpt>
      <trkpt lat="47.18779" lon="-1.6637">
        <ele>2</ele>
        <time>2016-08-31T08:12:28Z</time>
      </trkpt>
      <trkpt lat="47.18776" lon="-1.66385">
        <ele>2</ele>
        <time>2016-08-31T08:12:35Z</time>
      </trkpt>
      <trkpt lat="47.18774" lon="-1.66391">
        <ele>1</ele>
        <time>2016-08-31T08:12:40Z</time>
      </trkpt>
      <trkpt lat="47.18771" lon="-1.66403">
        <ele>1</ele>
        <time>2016-08-31T08:12:45Z</time>
      </trkpt>
      <trkpt lat="47.18769" lon="-1.66409">
        <ele>1</ele>
        <time>2016-08-31T08:12:50Z</time>
      </trkpt>
      <trkpt lat="47.18767" lon="-1.66419">
        <ele>1</ele>
        <time>2016-08-31T08:12:56Z</time>
      </trkpt>
      <trkpt lat="47.18763" lon="-1.66427">
        <ele>1</ele>
        <time>2016-08-31T08:13:01Z</time>
      </trkpt>
      <trkpt lat="47.18758" lon="-1.6643">
        <ele>1</ele>
        <time>2016-08-31T08:13:06Z</time>
      </trkpt>
      <trkpt lat="47.18752" lon="-1.66435">
        <ele>1</ele>
        <time>2016-08-31T08:13:11Z</time>
      </trkpt>
      <trkpt lat="47.18749" lon="-1.66446">
        <ele>1</ele>
        <time>2016-08-31T08:13:16Z</time>
      </trkpt>
      <trkpt lat="47.1875" lon="-1.66454">
        <ele>1</ele>
        <time>2016-08-31T08:13:21Z</time>
      </trkpt>
      <trkpt lat="47.18755" lon="-1.66468">
        <ele>1</ele>
        <time>2016-08-31T08:13:26Z</time>
      </trkpt>
      <trkpt lat="47.18759" lon="-1.66475">
        <ele>1</ele>
        <time>2016-08-31T08:13:31Z</time>
      </trkpt>
      <trkpt lat="47.1876" lon="-1.66481">
        <ele>1</ele>
        <time>2016-08-31T08:13:36Z</time>
      </trkpt>
      <trkpt lat="47.18762" lon="-1.66488">
        <ele>1</ele>
        <time>2016-08-31T08:13:41Z</time>
      </trkpt>
      <trkpt lat="47.18762" lon="-1.66489">
        <ele>1</ele>
        <time>2016-08-31T08:13:49Z</time>
      </trkpt>
      <trkpt lat="47.18763" lon="-1.66496">
        <ele>1</ele>
        <time>2016-08-31T08:13:54Z</time>
      </trkpt>
      <trkpt lat="47.18766" lon="-1.66504">
        <ele>1</ele>
        <time>2016-08-31T08:13:59Z</time>
      </trkpt>
      <trkpt lat="47.18767" lon="-1.66513">
        <ele>1</ele>
        <time>2016-08-31T08:14:04Z</time>
      </trkpt>
      <trkpt lat="47.18769" lon="-1.66523">
        <ele>1</ele>
        <time>2016-08-31T08:14:09Z</time>
      </trkpt>
      <trkpt lat="47.18768" lon="-1.66531">
        <ele>1</ele>
        <time>2016-08-31T08:14:14Z</time>
      </trkpt>
      <trkpt lat="47.18766" lon="-1.6654">
        <ele>1</ele>
        <time>2016-08-31T08:14:20Z</time>
      </trkpt>
      <trkpt lat="47.18759" lon="-1.66542">
        <ele>1</ele>
        <time>2016-08-31T08:14:26Z</time>
      </trkpt>
      <trkpt lat="47.18752" lon="-1.66542">
        <ele>1</ele>
        <time>2016-08-31T08:14:32Z</time>
      </trkpt>
      <trkpt lat="47.18745" lon="-1.66545">
        <ele>1</ele>
        <time>2016-08-31T08:14:37Z</time>
      </trkpt>
      <trkpt lat="47.1874" lon="-1.6655">
        <ele>1</ele>
        <time>2016-08-31T08:14:43Z</time>
      </trkpt>
      <trkpt lat="47.18734" lon="-1.66553">
        <ele>1</ele>
        <time>2016-08-31T08:14:49Z</time>
      </trkpt>
      <trkpt lat="47.1873" lon="-1.66561">
        <ele>1</ele>
        <time>2016-08-31T08:14:54Z</time>
      </trkpt>
      <trkpt lat="47.18724" lon="-1.66567">
        <ele>1</ele>
        <time>2016-08-31T08:15:00Z</time>
      </trkpt>
      <trkpt lat="47.18716" lon="-1.66575">
        <ele>1</ele>
        <time>2016-08-31T08:15:05Z</time>
      </trkpt>
      <trkpt lat="47.18711" lon="-1.66583">
        <ele>9.7</ele>
        <time>2016-08-31T08:15:12Z</time>
      </trkpt>
      <trkpt lat="47.18705" lon="-1.66592">
        <ele>10.7</ele>
        <time>2016-08-31T08:15:17Z</time>
      </trkpt>
      <trkpt lat="47.18702" lon="-1.66593">
        <ele>11</ele>
        <time>2016-08-31T08:15:23Z</time>
      </trkpt>
      <trkpt lat="47.187" lon="-1.66597">
        <ele>11.2</ele>
        <time>2016-08-31T08:15:28Z</time>
      </trkpt>
      <trkpt lat="47.18697" lon="-1.66601">
        <ele>11.7</ele>
        <time>2016-08-31T08:15:34Z</time>
      </trkpt>
      <trkpt lat="47.18684" lon="-1.66607">
        <ele>13.5</ele>
        <time>2016-08-31T08:15:39Z</time>
      </trkpt>
      <trkpt lat="47.18681" lon="-1.66614">
        <ele>1</ele>
        <time>2016-08-31T08:15:44Z</time>
      </trkpt>
      <trkpt lat="47.18677" lon="-1.66617">
        <ele>2</ele>
        <time>2016-08-31T08:15:52Z</time>
      </trkpt>
      <trkpt lat="47.18673" lon="-1.66619">
        <ele>14.8</ele>
        <time>2016-08-31T08:15:58Z</time>
      </trkpt>
      <trkpt lat="47.18655" lon="-1.66625">
        <ele>16.9</ele>
        <time>2016-08-31T08:16:05Z</time>
      </trkpt>
      <trkpt lat="47.18652" lon="-1.66631">
        <ele>17</ele>
        <time>2016-08-31T08:16:11Z</time>
      </trkpt>
      <trkpt lat="47.18644" lon="-1.66646">
        <ele>4</ele>
        <time>2016-08-31T08:16:21Z</time>
      </trkpt>
      <trkpt lat="47.18633" lon="-1.66659">
        <ele>12</ele>
        <time>2016-08-31T08:16:30Z</time>
      </trkpt>
      <trkpt lat="47.18631" lon="-1.66663">
        <ele>17</ele>
        <time>2016-08-31T08:16:35Z</time>
      </trkpt>
      <trkpt lat="47.18627" lon="-1.66671">
        <ele>22</ele>
        <time>2016-08-31T08:16:41Z</time>
      </trkpt>
      <trkpt lat="47.18626" lon="-1.66676">
        <ele>25</ele>
        <time>2016-08-31T08:16:46Z</time>
      </trkpt>
      <trkpt lat="47.18628" lon="-1.66683">
        <ele>26</ele>
        <time>2016-08-31T08:16:51Z</time>
      </trkpt>
      <trkpt lat="47.18625" lon="-1.66691">
        <ele>26</ele>
        <time>2016-08-31T08:16:56Z</time>
      </trkpt>
      <trkpt lat="47.18619" lon="-1.66698">
        <ele>26</ele>
        <time>2016-08-31T08:17:01Z</time>
      </trkpt>
      <trkpt lat="47.18619" lon="-1.66709">
        <ele>26</ele>
        <time>2016-08-31T08:17:07Z</time>
      </trkpt>
      <trkpt lat="47.18619" lon="-1.66718">
        <ele>26</ele>
        <time>2016-08-31T08:17:12Z</time>
      </trkpt>
      <trkpt lat="47.18615" lon="-1.66724">
        <ele>26</ele>
        <time>2016-08-31T08:17:17Z</time>
      </trkpt>
      <trkpt lat="47.18611" lon="-1.66731">
        <ele>27</ele>
        <time>2016-08-31T08:17:23Z</time>
      </trkpt>
      <trkpt lat="47.18609" lon="-1.6674">
        <ele>28</ele>
        <time>2016-08-31T08:17:28Z</time>
      </trkpt>
      <trkpt lat="47.1861" lon="-1.66746">
        <ele>28</ele>
        <time>2016-08-31T08:17:33Z</time>
      </trkpt>
      <trkpt lat="47.18604" lon="-1.66754">
        <ele>24</ele>
        <time>2016-08-31T08:17:39Z</time>
      </trkpt>
      <trkpt lat="47.18602" lon="-1.66763">
        <ele>22</ele>
        <time>2016-08-31T08:17:46Z</time>
      </trkpt>
      <trkpt lat="47.18597" lon="-1.6677">
        <ele>18</ele>
        <time>2016-08-31T08:17:52Z</time>
      </trkpt>
      <trkpt lat="47.18592" lon="-1.66773">
        <ele>15</ele>
        <time>2016-08-31T08:17:57Z</time>
      </trkpt>
      <trkpt lat="47.18586" lon="-1.66778">
        <ele>13</ele>
        <time>2016-08-31T08:18:02Z</time>
      </trkpt>
      <trkpt lat="47.18579" lon="-1.66784">
        <ele>13</ele>
        <time>2016-08-31T08:18:07Z</time>
      </trkpt>
      <trkpt lat="47.18574" lon="-1.66789">
        <ele>13</ele>
        <time>2016-08-31T08:18:12Z</time>
      </trkpt>
      <trkpt lat="47.18568" lon="-1.66793">
        <ele>13</ele>
        <time>2016-08-31T08:18:18Z</time>
      </trkpt>
      <trkpt lat="47.18563" lon="-1.66795">
        <ele>13</ele>
        <time>2016-08-31T08:18:23Z</time>
      </trkpt>
      <trkpt lat="47.18557" lon="-1.66793">
        <ele>16</ele>
        <time>2016-08-31T08:18:28Z</time>
      </trkpt>
      <trkpt lat="47.18552" lon="-1.66785">
        <ele>19</ele>
        <time>2016-08-31T08:18:34Z</time>
      </trkpt>
      <trkpt lat="47.18549" lon="-1.66776">
        <ele>20</ele>
        <time>2016-08-31T08:18:40Z</time>
      </trkpt>
      <trkpt lat="47.18546" lon="-1.66769">
        <ele>20</ele>
        <time>2016-08-31T08:18:45Z</time>
      </trkpt>
      <trkpt lat="47.18543" lon="-1.66762">
        <ele>20</ele>
        <time>2016-08-31T08:18:50Z</time>
      </trkpt>
      <trkpt lat="47.18539" lon="-1.66755">
        <ele>23</ele>
        <time>2016-08-31T08:18:55Z</time>
      </trkpt>
      <trkpt lat="47.18535" lon="-1.66747">
        <ele>24</ele>
        <time>2016-08-31T08:19:00Z</time>
      </trkpt>
      <trkpt lat="47.18533" lon="-1.66742">
        <ele>25</ele>
        <time>2016-08-31T08:19:06Z</time>
      </trkpt>
      <trkpt lat="47.18531" lon="-1.66733">
        <ele>25</ele>
        <time>2016-08-31T08:19:12Z</time>
      </trkpt>
      <trkpt lat="47.18527" lon="-1.66727">
        <ele>25</ele>
        <time>2016-08-31T08:19:19Z</time>
      </trkpt>
      <trkpt lat="47.18527" lon="-1.6672">
        <ele>30</ele>
        <time>2016-08-31T08:19:26Z</time>
      </trkpt>
      <trkpt lat="47.18524" lon="-1.66714">
        <ele>32</ele>
        <time>2016-08-31T08:19:31Z</time>
      </trkpt>
      <trkpt lat="47.18521" lon="-1.66707">
        <ele>34</ele>
        <time>2016-08-31T08:19:36Z</time>
      </trkpt>
      <trkpt lat="47.18518" lon="-1.66699">
        <ele>35</ele>
        <time>2016-08-31T08:19:41Z</time>
      </trkpt>
      <trkpt lat="47.18516" lon="-1.66692">
        <ele>35</ele>
        <time>2016-08-31T08:19:46Z</time>
      </trkpt>
      <trkpt lat="47.18515" lon="-1.66684">
        <ele>35</ele>
        <time>2016-08-31T08:19:51Z</time>
      </trkpt>
      <trkpt lat="47.18509" lon="-1.66682">
        <ele>35</ele>
        <time>2016-08-31T08:19:57Z</time>
      </trkpt>
      <trkpt lat="47.18503" lon="-1.66683">
        <ele>35</ele>
        <time>2016-08-31T08:20:02Z</time>
      </trkpt>
      <trkpt lat="47.18498" lon="-1.66684">
        <ele>35</ele>
        <time>2016-08-31T08:20:08Z</time>
      </trkpt>
      <trkpt lat="47.18492" lon="-1.66685">
        <ele>35</ele>
        <time>2016-08-31T08:20:14Z</time>
      </trkpt>
      <trkpt lat="47.18491" lon="-1.66678">
        <ele>35</ele>
        <time>2016-08-31T08:20:20Z</time>
      </trkpt>
      <trkpt lat="47.18488" lon="-1.66671">
        <ele>33</ele>
        <time>2016-08-31T08:20:25Z</time>
      </trkpt>
      <trkpt lat="47.18486" lon="-1.66664">
        <ele>33</ele>
        <time>2016-08-31T08:20:30Z</time>
      </trkpt>
      <trkpt lat="47.18483" lon="-1.66654">
        <ele>33</ele>
        <time>2016-08-31T08:20:35Z</time>
      </trkpt>
      <trkpt lat="47.18484" lon="-1.66644">
        <ele>33</ele>
        <time>2016-08-31T08:20:40Z</time>
      </trkpt>
      <trkpt lat="47.18483" lon="-1.66636">
        <ele>33</ele>
        <time>2016-08-31T08:20:45Z</time>
      </trkpt>
      <trkpt lat="47.18481" lon="-1.66629">
        <ele>33</ele>
        <time>2016-08-31T08:20:50Z</time>
      </trkpt>
      <trkpt lat="47.1848" lon="-1.6662">
        <ele>33</ele>
        <time>2016-08-31T08:20:55Z</time>
      </trkpt>
      <trkpt lat="47.18477" lon="-1.6661">
        <ele>33</ele>
        <time>2016-08-31T08:21:00Z</time>
      </trkpt>
      <trkpt lat="47.18475" lon="-1.66601">
        <ele>33</ele>
        <time>2016-08-31T08:21:05Z</time>
      </trkpt>
      <trkpt lat="47.18473" lon="-1.66589">
        <ele>33</ele>
        <time>2016-08-31T08:21:10Z</time>
      </trkpt>
      <trkpt lat="47.1847" lon="-1.66581">
        <ele>33</ele>
        <time>2016-08-31T08:21:15Z</time>
      </trkpt>
      <trkpt lat="47.18467" lon="-1.66572">
        <ele>33</ele>
        <time>2016-08-31T08:21:21Z</time>
      </trkpt>
      <trkpt lat="47.18467" lon="-1.66561">
        <ele>32</ele>
        <time>2016-08-31T08:21:26Z</time>
      </trkpt>
      <trkpt lat="47.18466" lon="-1.66552">
        <ele>32</ele>
        <time>2016-08-31T08:21:31Z</time>
      </trkpt>
      <trkpt lat="47.18465" lon="-1.6654">
        <ele>32</ele>
        <time>2016-08-31T08:21:36Z</time>
      </trkpt>
      <trkpt lat="47.18465" lon="-1.6653">
        <ele>32</ele>
        <time>2016-08-31T08:21:41Z</time>
      </trkpt>
      <trkpt lat="47.18462" lon="-1.6652">
        <ele>32</ele>
        <time>2016-08-31T08:21:46Z</time>
      </trkpt>
      <trkpt lat="47.1846" lon="-1.66511">
        <ele>33</ele>
        <time>2016-08-31T08:21:51Z</time>
      </trkpt>
      <trkpt lat="47.18458" lon="-1.66503">
        <ele>33</ele>
        <time>2016-08-31T08:21:56Z</time>
      </trkpt>
      <trkpt lat="47.18456" lon="-1.66494">
        <ele>33</ele>
        <time>2016-08-31T08:22:01Z</time>
      </trkpt>
      <trkpt lat="47.18454" lon="-1.66487">
        <ele>33</ele>
        <time>2016-08-31T08:22:06Z</time>
      </trkpt>
      <trkpt lat="47.18451" lon="-1.66478">
        <ele>33</ele>
        <time>2016-08-31T08:22:11Z</time>
      </trkpt>
      <trkpt lat="47.18451" lon="-1.66469">
        <ele>33</ele>
        <time>2016-08-31T08:22:16Z</time>
      </trkpt>
      <trkpt lat="47.1845" lon="-1.6646">
        <ele>33</ele>
        <time>2016-08-31T08:22:21Z</time>
      </trkpt>
      <trkpt lat="47.18449" lon="-1.66449">
        <ele>33</ele>
        <time>2016-08-31T08:22:27Z</time>
      </trkpt>
      <trkpt lat="47.18444" lon="-1.66449">
        <ele>33</ele>
        <time>2016-08-31T08:22:32Z</time>
      </trkpt>
      <trkpt lat="47.18439" lon="-1.66448">
        <ele>34</ele>
        <time>2016-08-31T08:22:39Z</time>
      </trkpt>
      <trkpt lat="47.18436" lon="-1.66447">
        <ele>39</ele>
        <time>2016-08-31T08:22:55Z</time>
      </trkpt>
      <trkpt lat="47.18435" lon="-1.66446">
        <ele>43</ele>
        <time>2016-08-31T08:23:22Z</time>
      </trkpt>
      <trkpt lat="47.18428" lon="-1.66446">
        <ele>43</ele>
        <time>2016-08-31T08:23:27Z</time>
      </trkpt>
      <trkpt lat="47.18423" lon="-1.66445">
        <ele>43</ele>
        <time>2016-08-31T08:23:32Z</time>
      </trkpt>
      <trkpt lat="47.18415" lon="-1.66446">
        <ele>43</ele>
        <time>2016-08-31T08:23:38Z</time>
      </trkpt>
      <trkpt lat="47.1841" lon="-1.66449">
        <ele>43</ele>
        <time>2016-08-31T08:23:43Z</time>
      </trkpt>
      <trkpt lat="47.18404" lon="-1.66451">
        <ele>43</ele>
        <time>2016-08-31T08:23:48Z</time>
      </trkpt>
      <trkpt lat="47.18397" lon="-1.66453">
        <ele>41</ele>
        <time>2016-08-31T08:23:53Z</time>
      </trkpt>
      <trkpt lat="47.18391" lon="-1.66455">
        <ele>40</ele>
        <time>2016-08-31T08:23:58Z</time>
      </trkpt>
      <trkpt lat="47.18383" lon="-1.66456">
        <ele>40</ele>
        <time>2016-08-31T08:24:04Z</time>
      </trkpt>
      <trkpt lat="47.18381" lon="-1.66464">
        <ele>40</ele>
        <time>2016-08-31T08:24:09Z</time>
      </trkpt>
      <trkpt lat="47.18383" lon="-1.6647">
        <ele>40</ele>
        <time>2016-08-31T08:24:19Z</time>
      </trkpt>
      <trkpt lat="47.18378" lon="-1.66469">
        <ele>40</ele>
        <time>2016-08-31T08:24:25Z</time>
      </trkpt>
      <trkpt lat="47.18371" lon="-1.66467">
        <ele>37</ele>
        <time>2016-08-31T08:24:31Z</time>
      </trkpt>
      <trkpt lat="47.18365" lon="-1.66464">
        <ele>37</ele>
        <time>2016-08-31T08:24:36Z</time>
      </trkpt>
      <trkpt lat="47.18359" lon="-1.66465">
        <ele>37</ele>
        <time>2016-08-31T08:24:42Z</time>
      </trkpt>
      <trkpt lat="47.18353" lon="-1.66468">
        <ele>37</ele>
        <time>2016-08-31T08:24:47Z</time>
      </trkpt>
      <trkpt lat="47.18346" lon="-1.6647">
        <ele>37</ele>
        <time>2016-08-31T08:24:52Z</time>
      </trkpt>
      <trkpt lat="47.18339" lon="-1.66471">
        <ele>38</ele>
        <time>2016-08-31T08:24:57Z</time>
      </trkpt>
      <trkpt lat="47.18332" lon="-1.66471">
        <ele>38</ele>
        <time>2016-08-31T08:25:03Z</time>
      </trkpt>
      <trkpt lat="47.18327" lon="-1.66473">
        <ele>38</ele>
        <time>2016-08-31T08:25:08Z</time>
      </trkpt>
      <trkpt lat="47.18319" lon="-1.66475">
        <ele>37</ele>
        <time>2016-08-31T08:25:13Z</time>
      </trkpt>
      <trkpt lat="47.18312" lon="-1.66474">
        <ele>37</ele>
        <time>2016-08-31T08:25:18Z</time>
      </trkpt>
      <trkpt lat="47.18306" lon="-1.66477">
        <ele>38</ele>
        <time>2016-08-31T08:25:23Z</time>
      </trkpt>
      <trkpt lat="47.183" lon="-1.6648">
        <ele>38</ele>
        <time>2016-08-31T08:25:28Z</time>
      </trkpt>
      <trkpt lat="47.18292" lon="-1.66482">
        <ele>38</ele>
        <time>2016-08-31T08:25:33Z</time>
      </trkpt>
      <trkpt lat="47.18286" lon="-1.66486">
        <ele>38</ele>
        <time>2016-08-31T08:25:39Z</time>
      </trkpt>
      <trkpt lat="47.18277" lon="-1.66488">
        <ele>38</ele>
        <time>2016-08-31T08:25:44Z</time>
      </trkpt>
      <trkpt lat="47.18269" lon="-1.66491">
        <ele>38</ele>
        <time>2016-08-31T08:25:49Z</time>
      </trkpt>
      <trkpt lat="47.18262" lon="-1.66496">
        <ele>39</ele>
        <time>2016-08-31T08:25:54Z</time>
      </trkpt>
      <trkpt lat="47.18258" lon="-1.66501">
        <ele>39</ele>
        <time>2016-08-31T08:25:59Z</time>
      </trkpt>
      <trkpt lat="47.18252" lon="-1.66505">
        <ele>39</ele>
        <time>2016-08-31T08:26:05Z</time>
      </trkpt>
      <trkpt lat="47.18245" lon="-1.66508">
        <ele>39</ele>
        <time>2016-08-31T08:26:10Z</time>
      </trkpt>
      <trkpt lat="47.18239" lon="-1.6651">
        <ele>39</ele>
        <time>2016-08-31T08:26:15Z</time>
      </trkpt>
      <trkpt lat="47.18234" lon="-1.66513">
        <ele>37</ele>
        <time>2016-08-31T08:26:20Z</time>
      </trkpt>
      <trkpt lat="47.18228" lon="-1.66515">
        <ele>34</ele>
        <time>2016-08-31T08:26:25Z</time>
      </trkpt>
      <trkpt lat="47.18221" lon="-1.66518">
        <ele>32</ele>
        <time>2016-08-31T08:26:30Z</time>
      </trkpt>
      <trkpt lat="47.18213" lon="-1.66519">
        <ele>32</ele>
        <time>2016-08-31T08:26:35Z</time>
      </trkpt>
      <trkpt lat="47.18209" lon="-1.66523">
        <ele>30</ele>
        <time>2016-08-31T08:26:40Z</time>
      </trkpt>
      <trkpt lat="47.18198" lon="-1.66524">
        <ele>28</ele>
        <time>2016-08-31T08:26:46Z</time>
      </trkpt>
      <trkpt lat="47.18189" lon="-1.66525">
        <ele>31</ele>
        <time>2016-08-31T08:26:51Z</time>
      </trkpt>
      <trkpt lat="47.1818" lon="-1.6653">
        <ele>37</ele>
        <time>2016-08-31T08:26:57Z</time>
      </trkpt>
      <trkpt lat="47.18172" lon="-1.66536">
        <ele>37</ele>
        <time>2016-08-31T08:27:03Z</time>
      </trkpt>
      <trkpt lat="47.18164" lon="-1.66541">
        <ele>37</ele>
        <time>2016-08-31T08:27:08Z</time>
      </trkpt>
      <trkpt lat="47.18158" lon="-1.66543">
        <ele>37</ele>
        <time>2016-08-31T08:27:13Z</time>
      </trkpt>
      <trkpt lat="47.18149" lon="-1.6655">
        <ele>37</ele>
        <time>2016-08-31T08:27:20Z</time>
      </trkpt>
      <trkpt lat="47.18143" lon="-1.66553">
        <ele>37</ele>
        <time>2016-08-31T08:27:25Z</time>
      </trkpt>
      <trkpt lat="47.18135" lon="-1.66554">
        <ele>37</ele>
        <time>2016-08-31T08:27:31Z</time>
      </trkpt>
      <trkpt lat="47.18129" lon="-1.66556">
        <ele>37</ele>
        <time>2016-08-31T08:27:36Z</time>
      </trkpt>
      <trkpt lat="47.18124" lon="-1.66562">
        <ele>37</ele>
        <time>2016-08-31T08:27:41Z</time>
      </trkpt>
      <trkpt lat="47.1812" lon="-1.66566">
        <ele>37</ele>
        <time>2016-08-31T08:27:46Z</time>
      </trkpt>
      <trkpt lat="47.18113" lon="-1.6657">
        <ele>35</ele>
        <time>2016-08-31T08:27:51Z</time>
      </trkpt>
      <trkpt lat="47.18106" lon="-1.66574">
        <ele>33</ele>
        <time>2016-08-31T08:27:56Z</time>
      </trkpt>
      <trkpt lat="47.18101" lon="-1.66577">
        <ele>32</ele>
        <time>2016-08-31T08:28:01Z</time>
      </trkpt>
      <trkpt lat="47.18094" lon="-1.66579">
        <ele>30</ele>
        <time>2016-08-31T08:28:06Z</time>
      </trkpt>
      <trkpt lat="47.18087" lon="-1.66582">
        <ele>27</ele>
        <time>2016-08-31T08:28:12Z</time>
      </trkpt>
      <trkpt lat="47.1808" lon="-1.66585">
        <ele>27</ele>
        <time>2016-08-31T08:28:17Z</time>
      </trkpt>
      <trkpt lat="47.18071" lon="-1.66585">
        <ele>27</ele>
        <time>2016-08-31T08:28:22Z</time>
      </trkpt>
      <trkpt lat="47.18064" lon="-1.6659">
        <ele>27</ele>
        <time>2016-08-31T08:28:27Z</time>
      </trkpt>
      <trkpt lat="47.18056" lon="-1.66594">
        <ele>29</ele>
        <time>2016-08-31T08:28:34Z</time>
      </trkpt>
      <trkpt lat="47.1805" lon="-1.66598">
        <ele>29</ele>
        <time>2016-08-31T08:28:39Z</time>
      </trkpt>
      <trkpt lat="47.18041" lon="-1.66604">
        <ele>32</ele>
        <time>2016-08-31T08:28:45Z</time>
      </trkpt>
      <trkpt lat="47.18033" lon="-1.6661">
        <ele>33</ele>
        <time>2016-08-31T08:28:51Z</time>
      </trkpt>
      <trkpt lat="47.18028" lon="-1.66614">
        <ele>33</ele>
        <time>2016-08-31T08:28:56Z</time>
      </trkpt>
      <trkpt lat="47.18024" lon="-1.66619">
        <ele>30</ele>
        <time>2016-08-31T08:29:01Z</time>
      </trkpt>
      <trkpt lat="47.18016" lon="-1.66619">
        <ele>30</ele>
        <time>2016-08-31T08:29:07Z</time>
      </trkpt>
      <trkpt lat="47.18009" lon="-1.66621">
        <ele>30</ele>
        <time>2016-08-31T08:29:12Z</time>
      </trkpt>
      <trkpt lat="47.18003" lon="-1.66624">
        <ele>30</ele>
        <time>2016-08-31T08:29:17Z</time>
      </trkpt>
      <trkpt lat="47.17997" lon="-1.66626">
        <ele>30</ele>
        <time>2016-08-31T08:29:22Z</time>
      </trkpt>
      <trkpt lat="47.17988" lon="-1.66625">
        <ele>30</ele>
        <time>2016-08-31T08:29:27Z</time>
      </trkpt>
      <trkpt lat="47.1798" lon="-1.66624">
        <ele>31</ele>
        <time>2016-08-31T08:29:32Z</time>
      </trkpt>
      <trkpt lat="47.17973" lon="-1.66626">
        <ele>35</ele>
        <time>2016-08-31T08:29:37Z</time>
      </trkpt>
      <trkpt lat="47.17964" lon="-1.66631">
        <ele>38</ele>
        <time>2016-08-31T08:29:42Z</time>
      </trkpt>
      <trkpt lat="47.17959" lon="-1.66635">
        <ele>39</ele>
        <time>2016-08-31T08:29:47Z</time>
      </trkpt>
      <trkpt lat="47.17957" lon="-1.66637">
        <ele>40</ele>
        <time>2016-08-31T08:29:52Z</time>
      </trkpt>
      <trkpt lat="47.17955" lon="-1.66637">
        <ele>40</ele>
        <time>2016-08-31T08:29:57Z</time>
      </trkpt>
      <trkpt lat="47.17956" lon="-1.66641">
        <ele>38</ele>
        <time>2016-08-31T08:30:02Z</time>
      </trkpt>
      <trkpt lat="47.17956" lon="-1.66643">
        <ele>36</ele>
        <time>2016-08-31T08:30:07Z</time>
      </trkpt>
      <trkpt lat="47.17951" lon="-1.66643">
        <ele>36</ele>
        <time>2016-08-31T08:30:14Z</time>
      </trkpt>
      <trkpt lat="47.17947" lon="-1.66644">
        <ele>36</ele>
        <time>2016-08-31T08:30:19Z</time>
      </trkpt>
      <trkpt lat="47.17943" lon="-1.66641">
        <ele>36</ele>
        <time>2016-08-31T08:30:24Z</time>
      </trkpt>
      <trkpt lat="47.17942" lon="-1.6664">
        <ele>36</ele>
        <time>2016-08-31T08:30:29Z</time>
      </trkpt>
      <trkpt lat="47.17941" lon="-1.66636">
        <ele>41</ele>
        <time>2016-08-31T08:30:34Z</time>
      </trkpt>
      <trkpt lat="47.17947" lon="-1.66638">
        <ele>45</ele>
        <time>2016-08-31T08:30:40Z</time>
      </trkpt>
      <trkpt lat="47.17952" lon="-1.6664">
        <ele>49</ele>
        <time>2016-08-31T08:30:45Z</time>
      </trkpt>
      <trkpt lat="47.17956" lon="-1.66642">
        <ele>52</ele>
        <time>2016-08-31T08:30:50Z</time>
      </trkpt>
      <trkpt lat="47.17956" lon="-1.66645">
        <ele>52</ele>
        <time>2016-08-31T08:30:55Z</time>
      </trkpt>
      <trkpt lat="47.17953" lon="-1.66645">
        <ele>56</ele>
        <time>2016-08-31T08:31:00Z</time>
      </trkpt>
      <trkpt lat="47.17952" lon="-1.66645">
        <ele>60</ele>
        <time>2016-08-31T08:31:06Z</time>
      </trkpt>
      <trkpt lat="47.17953" lon="-1.66648">
        <ele>60</ele>
        <time>2016-08-31T08:31:11Z</time>
      </trkpt>
      <trkpt lat="47.17957" lon="-1.66647">
        <ele>58</ele>
        <time>2016-08-31T08:31:17Z</time>
      </trkpt>
      <trkpt lat="47.17959" lon="-1.66642">
        <ele>50</ele>
        <time>2016-08-31T08:31:25Z</time>
      </trkpt>
      <trkpt lat="47.17963" lon="-1.66642">
        <ele>44</ele>
        <time>2016-08-31T08:31:31Z</time>
      </trkpt>
      <trkpt lat="47.17965" lon="-1.66641">
        <ele>42</ele>
        <time>2016-08-31T08:31:39Z</time>
      </trkpt>
      <trkpt lat="47.17966" lon="-1.66637">
        <ele>42</ele>
        <time>2016-08-31T08:31:45Z</time>
      </trkpt>
      <trkpt lat="47.17965" lon="-1.66635">
        <ele>41</ele>
        <time>2016-08-31T08:31:52Z</time>
      </trkpt>
      <trkpt lat="47.17962" lon="-1.66634">
        <ele>34</ele>
        <time>2016-08-31T08:32:00Z</time>
      </trkpt>
      <trkpt lat="47.17961" lon="-1.66635">
        <ele>31</ele>
        <time>2016-08-31T08:32:11Z</time>
      </trkpt>
      <trkpt lat="47.17962" lon="-1.66637">
        <ele>31</ele>
        <time>2016-08-31T08:32:19Z</time>
      </trkpt>
      <trkpt lat="47.17964" lon="-1.66637">
        <ele>35</ele>
        <time>2016-08-31T08:32:24Z</time>
      </trkpt>
      <trkpt lat="47.17965" lon="-1.66638">
        <ele>39</ele>
        <time>2016-08-31T08:32:30Z</time>
      </trkpt>
      <trkpt lat="47.17966" lon="-1.66636">
        <ele>41</ele>
        <time>2016-08-31T08:33:03Z</time>
      </trkpt>
      <trkpt lat="47.17965" lon="-1.66636">
        <ele>36</ele>
        <time>2016-08-31T08:33:08Z</time>
      </trkpt>
      <trkpt lat="47.17959" lon="-1.66639">
        <ele>42</ele>
        <time>2016-08-31T08:33:21Z</time>
      </trkpt>
      <trkpt lat="47.17959" lon="-1.66641">
        <ele>44</ele>
        <time>2016-08-31T08:33:32Z</time>
      </trkpt>
      <trkpt lat="47.17958" lon="-1.66633">
        <ele>44</ele>
        <time>2016-08-31T08:33:48Z</time>
      </trkpt>
      <trkpt lat="47.17959" lon="-1.6664">
        <ele>41</ele>
        <time>2016-08-31T08:33:53Z</time>
      </trkpt>
      <trkpt lat="47.17958" lon="-1.66644">
        <ele>37</ele>
        <time>2016-08-31T08:33:58Z</time>
      </trkpt>
      <trkpt lat="47.17953" lon="-1.66648">
        <ele>36</ele>
        <time>2016-08-31T08:34:08Z</time>
      </trkpt>
      <trkpt lat="47.17948" lon="-1.66656">
        <ele>30</ele>
        <time>2016-08-31T08:34:14Z</time>
      </trkpt>
      <trkpt lat="47.1795" lon="-1.66648">
        <ele>29</ele>
        <time>2016-08-31T08:34:20Z</time>
      </trkpt>
      <trkpt lat="47.17951" lon="-1.66649">
        <ele>28</ele>
        <time>2016-08-31T08:34:25Z</time>
      </trkpt>
      <trkpt lat="47.1795" lon="-1.66647">
        <ele>27</ele>
        <time>2016-08-31T08:34:31Z</time>
      </trkpt>
      <trkpt lat="47.17948" lon="-1.66646">
        <ele>24</ele>
        <time>2016-08-31T08:34:38Z</time>
      </trkpt>
      <trkpt lat="47.17945" lon="-1.66647">
        <ele>21</ele>
        <time>2016-08-31T08:34:44Z</time>
      </trkpt>
      <trkpt lat="47.17949" lon="-1.66646">
        <ele>21</ele>
        <time>2016-08-31T08:34:50Z</time>
      </trkpt>
      <trkpt lat="47.17953" lon="-1.66643">
        <ele>22</ele>
        <time>2016-08-31T08:34:56Z</time>
      </trkpt>
      <trkpt lat="47.17953" lon="-1.66643">
        <ele>28</ele>
        <time>2016-08-31T08:35:02Z</time>
      </trkpt>
      <trkpt lat="47.17954" lon="-1.66646">
        <ele>28</ele>
        <time>2016-08-31T08:35:13Z</time>
      </trkpt>
      <trkpt lat="47.17956" lon="-1.66644">
        <ele>28</ele>
        <time>2016-08-31T08:35:19Z</time>
      </trkpt>
      <trkpt lat="47.17954" lon="-1.66645">
        <ele>28</ele>
        <time>2016-08-31T08:35:24Z</time>
      </trkpt>
      <trkpt lat="47.17954" lon="-1.66646">
        <ele>28</ele>
        <time>2016-08-31T08:35:30Z</time>
      </trkpt>
      <trkpt lat="47.1795" lon="-1.66648">
        <ele>27</ele>
        <time>2016-08-31T08:35:40Z</time>
      </trkpt>
      <trkpt lat="47.17952" lon="-1.66645">
        <ele>26</ele>
        <time>2016-08-31T08:35:45Z</time>
      </trkpt>
      <trkpt lat="47.1795" lon="-1.66642">
        <ele>26</ele>
        <time>2016-08-31T08:35:51Z</time>
      </trkpt>
      <trkpt lat="47.17949" lon="-1.66642">
        <ele>28</ele>
        <time>2016-08-31T08:35:58Z</time>
      </trkpt>
      <trkpt lat="47.17951" lon="-1.66642">
        <ele>28</ele>
        <time>2016-08-31T08:36:07Z</time>
      </trkpt>
      <trkpt lat="47.17956" lon="-1.66639">
        <ele>28</ele>
        <time>2016-08-31T08:36:14Z</time>
      </trkpt>
      <trkpt lat="47.17955" lon="-1.66639">
        <ele>30</ele>
        <time>2016-08-31T08:36:32Z</time>
      </trkpt>
      <trkpt lat="47.1795" lon="-1.66639">
        <ele>32</ele>
        <time>2016-08-31T08:36:39Z</time>
      </trkpt>
      <trkpt lat="47.17949" lon="-1.6664">
        <ele>33</ele>
        <time>2016-08-31T08:36:44Z</time>
      </trkpt>
      <trkpt lat="47.1795" lon="-1.66639">
        <ele>33</ele>
        <time>2016-08-31T08:36:55Z</time>
      </trkpt>
      <trkpt lat="47.17951" lon="-1.6664">
        <ele>33</ele>
        <time>2016-08-31T08:37:08Z</time>
      </trkpt>
      <trkpt lat="47.17954" lon="-1.6664">
        <ele>32</ele>
        <time>2016-08-31T08:37:13Z</time>
      </trkpt>
      <trkpt lat="47.17957" lon="-1.6664">
        <ele>32</ele>
        <time>2016-08-31T08:37:18Z</time>
      </trkpt>
      <trkpt lat="47.17961" lon="-1.66638">
        <ele>32</ele>
        <time>2016-08-31T08:37:23Z</time>
      </trkpt>
      <trkpt lat="47.17961" lon="-1.66636">
        <ele>32</ele>
        <time>2016-08-31T08:37:31Z</time>
      </trkpt>
      <trkpt lat="47.17959" lon="-1.66633">
        <ele>33</ele>
        <time>2016-08-31T08:37:37Z</time>
      </trkpt>
      <trkpt lat="47.17958" lon="-1.66631">
        <ele>37</ele>
        <time>2016-08-31T08:37:43Z</time>
      </trkpt>
      <trkpt lat="47.17957" lon="-1.66626">
        <ele>41</ele>
        <time>2016-08-31T08:37:49Z</time>
      </trkpt>
      <trkpt lat="47.1796" lon="-1.6663">
        <ele>44</ele>
        <time>2016-08-31T08:37:55Z</time>
      </trkpt>
      <trkpt lat="47.17962" lon="-1.66636">
        <ele>39</ele>
        <time>2016-08-31T08:38:01Z</time>
      </trkpt>
      <trkpt lat="47.17965" lon="-1.66636">
        <ele>31</ele>
        <time>2016-08-31T08:38:09Z</time>
      </trkpt>
      <trkpt lat="47.17962" lon="-1.66636">
        <ele>30</ele>
        <time>2016-08-31T08:38:18Z</time>
      </trkpt>
      <trkpt lat="47.1796" lon="-1.66635">
        <ele>30</ele>
        <time>2016-08-31T08:38:23Z</time>
      </trkpt>
      <trkpt lat="47.17958" lon="-1.66636">
        <ele>35</ele>
        <time>2016-08-31T08:38:30Z</time>
      </trkpt>
      <trkpt lat="47.17956" lon="-1.66636">
        <ele>36</ele>
        <time>2016-08-31T08:38:36Z</time>
      </trkpt>
      <trkpt lat="47.17953" lon="-1.6664">
        <ele>36</ele>
        <time>2016-08-31T08:38:41Z</time>
      </trkpt>
      <trkpt lat="47.17946" lon="-1.6664">
        <ele>36</ele>
        <time>2016-08-31T08:38:46Z</time>
      </trkpt>
      <trkpt lat="47.17941" lon="-1.66641">
        <ele>36</ele>
        <time>2016-08-31T08:38:51Z</time>
      </trkpt>
      <trkpt lat="47.17932" lon="-1.66644">
        <ele>36</ele>
        <time>2016-08-31T08:38:56Z</time>
      </trkpt>
      <trkpt lat="47.17926" lon="-1.66648">
        <ele>36</ele>
        <time>2016-08-31T08:39:01Z</time>
      </trkpt>
      <trkpt lat="47.1792" lon="-1.6665">
        <ele>36</ele>
        <time>2016-08-31T08:39:06Z</time>
      </trkpt>
      <trkpt lat="47.17915" lon="-1.66653">
        <ele>36</ele>
        <time>2016-08-31T08:39:11Z</time>
      </trkpt>
      <trkpt lat="47.17908" lon="-1.66656">
        <ele>36</ele>
        <time>2016-08-31T08:39:16Z</time>
      </trkpt>
      <trkpt lat="47.17903" lon="-1.66657">
        <ele>36</ele>
        <time>2016-08-31T08:39:21Z</time>
      </trkpt>
      <trkpt lat="47.17896" lon="-1.66663">
        <ele>36</ele>
        <time>2016-08-31T08:39:27Z</time>
      </trkpt>
      <trkpt lat="47.17891" lon="-1.66668">
        <ele>36</ele>
        <time>2016-08-31T08:39:32Z</time>
      </trkpt>
      <trkpt lat="47.17884" lon="-1.66673">
        <ele>36</ele>
        <time>2016-08-31T08:39:38Z</time>
      </trkpt>
      <trkpt lat="47.17875" lon="-1.6668">
        <ele>36</ele>
        <time>2016-08-31T08:39:43Z</time>
      </trkpt>
      <trkpt lat="47.17868" lon="-1.66682">
        <ele>36</ele>
        <time>2016-08-31T08:39:48Z</time>
      </trkpt>
      <trkpt lat="47.17862" lon="-1.66687">
        <ele>36</ele>
        <time>2016-08-31T08:39:54Z</time>
      </trkpt>
      <trkpt lat="47.17854" lon="-1.66689">
        <ele>36</ele>
        <time>2016-08-31T08:39:59Z</time>
      </trkpt>
      <trkpt lat="47.17848" lon="-1.66694">
        <ele>36</ele>
        <time>2016-08-31T08:40:04Z</time>
      </trkpt>
      <trkpt lat="47.17841" lon="-1.66699">
        <ele>37</ele>
        <time>2016-08-31T08:40:09Z</time>
      </trkpt>
      <trkpt lat="47.17834" lon="-1.66702">
        <ele>38</ele>
        <time>2016-08-31T08:40:14Z</time>
      </trkpt>
      <trkpt lat="47.17826" lon="-1.66706">
        <ele>38</ele>
        <time>2016-08-31T08:40:20Z</time>
      </trkpt>
      <trkpt lat="47.1782" lon="-1.66708">
        <ele>38</ele>
        <time>2016-08-31T08:40:25Z</time>
      </trkpt>
      <trkpt lat="47.17812" lon="-1.66706">
        <ele>38</ele>
        <time>2016-08-31T08:40:30Z</time>
      </trkpt>
      <trkpt lat="47.17807" lon="-1.667">
        <ele>38</ele>
        <time>2016-08-31T08:40:35Z</time>
      </trkpt>
      <trkpt lat="47.17803" lon="-1.66689">
        <ele>38</ele>
        <time>2016-08-31T08:40:41Z</time>
      </trkpt>
      <trkpt lat="47.17801" lon="-1.66677">
        <ele>38</ele>
        <time>2016-08-31T08:40:48Z</time>
      </trkpt>
      <trkpt lat="47.17797" lon="-1.66668">
        <ele>38</ele>
        <time>2016-08-31T08:40:53Z</time>
      </trkpt>
      <trkpt lat="47.17795" lon="-1.66658">
        <ele>34</ele>
        <time>2016-08-31T08:40:58Z</time>
      </trkpt>
      <trkpt lat="47.17794" lon="-1.66648">
        <ele>29</ele>
        <time>2016-08-31T08:41:03Z</time>
      </trkpt>
      <trkpt lat="47.17792" lon="-1.66638">
        <ele>26</ele>
        <time>2016-08-31T08:41:08Z</time>
      </trkpt>
      <trkpt lat="47.17789" lon="-1.66628">
        <ele>22</ele>
        <time>2016-08-31T08:41:13Z</time>
      </trkpt>
      <trkpt lat="47.17787" lon="-1.66618">
        <ele>19</ele>
        <time>2016-08-31T08:41:18Z</time>
      </trkpt>
      <trkpt lat="47.17786" lon="-1.66608">
        <ele>19</ele>
        <time>2016-08-31T08:41:24Z</time>
      </trkpt>
      <trkpt lat="47.17783" lon="-1.666">
        <ele>19</ele>
        <time>2016-08-31T08:41:29Z</time>
      </trkpt>
      <trkpt lat="47.17778" lon="-1.66592">
        <ele>19</ele>
        <time>2016-08-31T08:41:34Z</time>
      </trkpt>
      <trkpt lat="47.17777" lon="-1.66585">
        <ele>19</ele>
        <time>2016-08-31T08:41:39Z</time>
      </trkpt>
      <trkpt lat="47.17774" lon="-1.66572">
        <ele>19</ele>
        <time>2016-08-31T08:41:44Z</time>
      </trkpt>
      <trkpt lat="47.17769" lon="-1.66563">
        <ele>22</ele>
        <time>2016-08-31T08:41:49Z</time>
      </trkpt>
      <trkpt lat="47.17766" lon="-1.66553">
        <ele>27</ele>
        <time>2016-08-31T08:41:54Z</time>
      </trkpt>
      <trkpt lat="47.17761" lon="-1.66545">
        <ele>33</ele>
        <time>2016-08-31T08:42:00Z</time>
      </trkpt>
      <trkpt lat="47.17762" lon="-1.66537">
        <ele>33</ele>
        <time>2016-08-31T08:42:05Z</time>
      </trkpt>
      <trkpt lat="47.17758" lon="-1.66525">
        <ele>33</ele>
        <time>2016-08-31T08:42:10Z</time>
      </trkpt>
      <trkpt lat="47.17754" lon="-1.66513">
        <ele>34</ele>
        <time>2016-08-31T08:42:15Z</time>
      </trkpt>
      <trkpt lat="47.17748" lon="-1.66497">
        <ele>40</ele>
        <time>2016-08-31T08:42:21Z</time>
      </trkpt>
      <trkpt lat="47.17747" lon="-1.66492">
        <ele>45</ele>
        <time>2016-08-31T08:42:26Z</time>
      </trkpt>
      <trkpt lat="47.17746" lon="-1.66482">
        <ele>46</ele>
        <time>2016-08-31T08:42:31Z</time>
      </trkpt>
      <trkpt lat="47.17742" lon="-1.66478">
        <ele>44</ele>
        <time>2016-08-31T08:42:36Z</time>
      </trkpt>
      <trkpt lat="47.17741" lon="-1.66471">
        <ele>41</ele>
        <time>2016-08-31T08:42:41Z</time>
      </trkpt>
      <trkpt lat="47.17737" lon="-1.66457">
        <ele>35</ele>
        <time>2016-08-31T08:42:47Z</time>
      </trkpt>
      <trkpt lat="47.17736" lon="-1.66447">
        <ele>31</ele>
        <time>2016-08-31T08:42:52Z</time>
      </trkpt>
      <trkpt lat="47.17734" lon="-1.66436">
        <ele>31</ele>
        <time>2016-08-31T08:42:58Z</time>
      </trkpt>
      <trkpt lat="47.17731" lon="-1.66427">
        <ele>31</ele>
        <time>2016-08-31T08:43:03Z</time>
      </trkpt>
      <trkpt lat="47.17728" lon="-1.66417">
        <ele>30</ele>
        <time>2016-08-31T08:43:08Z</time>
      </trkpt>
      <trkpt lat="47.17726" lon="-1.66408">
        <ele>30</ele>
        <time>2016-08-31T08:43:13Z</time>
      </trkpt>
      <trkpt lat="47.17724" lon="-1.66398">
        <ele>30</ele>
        <time>2016-08-31T08:43:18Z</time>
      </trkpt>
      <trkpt lat="47.17723" lon="-1.66389">
        <ele>30</ele>
        <time>2016-08-31T08:43:23Z</time>
      </trkpt>
      <trkpt lat="47.1772" lon="-1.66379">
        <ele>30</ele>
        <time>2016-08-31T08:43:28Z</time>
      </trkpt>
      <trkpt lat="47.17718" lon="-1.66371">
        <ele>30</ele>
        <time>2016-08-31T08:43:33Z</time>
      </trkpt>
      <trkpt lat="47.17716" lon="-1.6636">
        <ele>31</ele>
        <time>2016-08-31T08:43:38Z</time>
      </trkpt>
      <trkpt lat="47.17715" lon="-1.66351">
        <ele>34</ele>
        <time>2016-08-31T08:43:43Z</time>
      </trkpt>
      <trkpt lat="47.17716" lon="-1.66339">
        <ele>35</ele>
        <time>2016-08-31T08:43:49Z</time>
      </trkpt>
      <trkpt lat="47.17713" lon="-1.6633">
        <ele>37</ele>
        <time>2016-08-31T08:43:54Z</time>
      </trkpt>
      <trkpt lat="47.17713" lon="-1.66321">
        <ele>37</ele>
        <time>2016-08-31T08:43:59Z</time>
      </trkpt>
      <trkpt lat="47.1771" lon="-1.66309">
        <ele>37</ele>
        <time>2016-08-31T08:44:05Z</time>
      </trkpt>
      <trkpt lat="47.17709" lon="-1.66301">
        <ele>37</ele>
        <time>2016-08-31T08:44:10Z</time>
      </trkpt>
      <trkpt lat="47.17706" lon="-1.66292">
        <ele>37</ele>
        <time>2016-08-31T08:44:15Z</time>
      </trkpt>
      <trkpt lat="47.17705" lon="-1.66282">
        <ele>37</ele>
        <time>2016-08-31T08:44:20Z</time>
      </trkpt>
      <trkpt lat="47.17704" lon="-1.66274">
        <ele>36</ele>
        <time>2016-08-31T08:44:25Z</time>
      </trkpt>
      <trkpt lat="47.177" lon="-1.66265">
        <ele>35</ele>
        <time>2016-08-31T08:44:30Z</time>
      </trkpt>
      <trkpt lat="47.17699" lon="-1.66256">
        <ele>35</ele>
        <time>2016-08-31T08:44:35Z</time>
      </trkpt>
      <trkpt lat="47.17698" lon="-1.66244">
        <ele>35</ele>
        <time>2016-08-31T08:44:41Z</time>
      </trkpt>
      <trkpt lat="47.17697" lon="-1.66235">
        <ele>35</ele>
        <time>2016-08-31T08:44:46Z</time>
      </trkpt>
      <trkpt lat="47.17696" lon="-1.66226">
        <ele>35</ele>
        <time>2016-08-31T08:44:51Z</time>
      </trkpt>
      <trkpt lat="47.17694" lon="-1.66215">
        <ele>35</ele>
        <time>2016-08-31T08:44:56Z</time>
      </trkpt>
      <trkpt lat="47.17693" lon="-1.66206">
        <ele>37</ele>
        <time>2016-08-31T08:45:01Z</time>
      </trkpt>
      <trkpt lat="47.17691" lon="-1.66196">
        <ele>38</ele>
        <time>2016-08-31T08:45:06Z</time>
      </trkpt>
      <trkpt lat="47.17691" lon="-1.66186">
        <ele>41</ele>
        <time>2016-08-31T08:45:11Z</time>
      </trkpt>
      <trkpt lat="47.17688" lon="-1.66176">
        <ele>42</ele>
        <time>2016-08-31T08:45:16Z</time>
      </trkpt>
      <trkpt lat="47.17689" lon="-1.66166">
        <ele>42</ele>
        <time>2016-08-31T08:45:21Z</time>
      </trkpt>
      <trkpt lat="47.17688" lon="-1.66157">
        <ele>42</ele>
        <time>2016-08-31T08:45:26Z</time>
      </trkpt>
      <trkpt lat="47.17687" lon="-1.66145">
        <ele>42</ele>
        <time>2016-08-31T08:45:31Z</time>
      </trkpt>
      <trkpt lat="47.17685" lon="-1.66135">
        <ele>42</ele>
        <time>2016-08-31T08:45:36Z</time>
      </trkpt>
      <trkpt lat="47.17684" lon="-1.66126">
        <ele>42</ele>
        <time>2016-08-31T08:45:41Z</time>
      </trkpt>
      <trkpt lat="47.1768" lon="-1.66116">
        <ele>42</ele>
        <time>2016-08-31T08:45:46Z</time>
      </trkpt>
      <trkpt lat="47.17679" lon="-1.66106">
        <ele>40</ele>
        <time>2016-08-31T08:45:51Z</time>
      </trkpt>
      <trkpt lat="47.17678" lon="-1.66098">
        <ele>37</ele>
        <time>2016-08-31T08:45:56Z</time>
      </trkpt>
      <trkpt lat="47.17678" lon="-1.66086">
        <ele>33</ele>
        <time>2016-08-31T08:46:02Z</time>
      </trkpt>
      <trkpt lat="47.17678" lon="-1.66073">
        <ele>33</ele>
        <time>2016-08-31T08:46:07Z</time>
      </trkpt>
      <trkpt lat="47.17673" lon="-1.66061">
        <ele>33</ele>
        <time>2016-08-31T08:46:12Z</time>
      </trkpt>
      <trkpt lat="47.17672" lon="-1.66051">
        <ele>33</ele>
        <time>2016-08-31T08:46:17Z</time>
      </trkpt>
      <trkpt lat="47.17674" lon="-1.66043">
        <ele>33</ele>
        <time>2016-08-31T08:46:22Z</time>
      </trkpt>
      <trkpt lat="47.1767" lon="-1.66034">
        <ele>33</ele>
        <time>2016-08-31T08:46:27Z</time>
      </trkpt>
      <trkpt lat="47.17668" lon="-1.66024">
        <ele>33</ele>
        <time>2016-08-31T08:46:33Z</time>
      </trkpt>
      <trkpt lat="47.17667" lon="-1.66016">
        <ele>37</ele>
        <time>2016-08-31T08:46:38Z</time>
      </trkpt>
      <trkpt lat="47.17663" lon="-1.66004">
        <ele>37</ele>
        <time>2016-08-31T08:46:44Z</time>
      </trkpt>
      <trkpt lat="47.17661" lon="-1.65992">
        <ele>35</ele>
        <time>2016-08-31T08:46:49Z</time>
      </trkpt>
      <trkpt lat="47.17661" lon="-1.65983">
        <ele>35</ele>
        <time>2016-08-31T08:46:54Z</time>
      </trkpt>
      <trkpt lat="47.1766" lon="-1.65974">
        <ele>36</ele>
        <time>2016-08-31T08:46:59Z</time>
      </trkpt>
      <trkpt lat="47.17657" lon="-1.65965">
        <ele>38</ele>
        <time>2016-08-31T08:47:04Z</time>
      </trkpt>
      <trkpt lat="47.17652" lon="-1.65956">
        <ele>38</ele>
        <time>2016-08-31T08:47:09Z</time>
      </trkpt>
      <trkpt lat="47.17646" lon="-1.65948">
        <ele>38</ele>
        <time>2016-08-31T08:47:15Z</time>
      </trkpt>
      <trkpt lat="47.17641" lon="-1.65941">
        <ele>38</ele>
        <time>2016-08-31T08:47:21Z</time>
      </trkpt>
      <trkpt lat="47.17635" lon="-1.65935">
        <ele>38</ele>
        <time>2016-08-31T08:47:26Z</time>
      </trkpt>
      <trkpt lat="47.17631" lon="-1.65927">
        <ele>38</ele>
        <time>2016-08-31T08:47:32Z</time>
      </trkpt>
      <trkpt lat="47.17627" lon="-1.65916">
        <ele>38</ele>
        <time>2016-08-31T08:47:37Z</time>
      </trkpt>
      <trkpt lat="47.17623" lon="-1.65908">
        <ele>38</ele>
        <time>2016-08-31T08:47:43Z</time>
      </trkpt>
      <trkpt lat="47.17616" lon="-1.65901">
        <ele>36</ele>
        <time>2016-08-31T08:47:48Z</time>
      </trkpt>
      <trkpt lat="47.17612" lon="-1.65891">
        <ele>36</ele>
        <time>2016-08-31T08:47:53Z</time>
      </trkpt>
      <trkpt lat="47.1761" lon="-1.65878">
        <ele>34</ele>
        <time>2016-08-31T08:47:59Z</time>
      </trkpt>
      <trkpt lat="47.17607" lon="-1.65869">
        <ele>33</ele>
        <time>2016-08-31T08:48:04Z</time>
      </trkpt>
      <trkpt lat="47.17607" lon="-1.65859">
        <ele>33</ele>
        <time>2016-08-31T08:48:09Z</time>
      </trkpt>
      <trkpt lat="47.17603" lon="-1.65849">
        <ele>33</ele>
        <time>2016-08-31T08:48:15Z</time>
      </trkpt>
      <trkpt lat="47.17599" lon="-1.65844">
        <ele>29</ele>
        <time>2016-08-31T08:48:21Z</time>
      </trkpt>
      <trkpt lat="47.17593" lon="-1.65835">
        <ele>28</ele>
        <time>2016-08-31T08:48:26Z</time>
      </trkpt>
      <trkpt lat="47.1759" lon="-1.65825">
        <ele>28</ele>
        <time>2016-08-31T08:48:32Z</time>
      </trkpt>
      <trkpt lat="47.17585" lon="-1.65818">
        <ele>25</ele>
        <time>2016-08-31T08:48:37Z</time>
      </trkpt>
      <trkpt lat="47.17579" lon="-1.65811">
        <ele>25</ele>
        <time>2016-08-31T08:48:42Z</time>
      </trkpt>
      <trkpt lat="47.17573" lon="-1.65803">
        <ele>25</ele>
        <time>2016-08-31T08:48:47Z</time>
      </trkpt>
      <trkpt lat="47.17569" lon="-1.65794">
        <ele>25</ele>
        <time>2016-08-31T08:48:53Z</time>
      </trkpt>
      <trkpt lat="47.17564" lon="-1.65786">
        <ele>25</ele>
        <time>2016-08-31T08:48:58Z</time>
      </trkpt>
      <trkpt lat="47.1756" lon="-1.65779">
        <ele>25</ele>
        <time>2016-08-31T08:49:04Z</time>
      </trkpt>
      <trkpt lat="47.17558" lon="-1.65767">
        <ele>25</ele>
        <time>2016-08-31T08:49:09Z</time>
      </trkpt>
      <trkpt lat="47.17559" lon="-1.65759">
        <ele>25</ele>
        <time>2016-08-31T08:49:14Z</time>
      </trkpt>
      <trkpt lat="47.17559" lon="-1.65749">
        <ele>25</ele>
        <time>2016-08-31T08:49:19Z</time>
      </trkpt>
      <trkpt lat="47.1756" lon="-1.65739">
        <ele>25</ele>
        <time>2016-08-31T08:49:24Z</time>
      </trkpt>
      <trkpt lat="47.17561" lon="-1.6573">
        <ele>25</ele>
        <time>2016-08-31T08:49:29Z</time>
      </trkpt>
      <trkpt lat="47.17558" lon="-1.6572">
        <ele>25</ele>
        <time>2016-08-31T08:49:34Z</time>
      </trkpt>
      <trkpt lat="47.17555" lon="-1.65714">
        <ele>25</ele>
        <time>2016-08-31T08:49:39Z</time>
      </trkpt>
      <trkpt lat="47.17552" lon="-1.6572">
        <ele>25</ele>
        <time>2016-08-31T08:49:44Z</time>
      </trkpt>
      <trkpt lat="47.17546" lon="-1.65726">
        <ele>25</ele>
        <time>2016-08-31T08:49:49Z</time>
      </trkpt>
      <trkpt lat="47.17541" lon="-1.65735">
        <ele>25</ele>
        <time>2016-08-31T08:49:55Z</time>
      </trkpt>
      <trkpt lat="47.17535" lon="-1.65741">
        <ele>25</ele>
        <time>2016-08-31T08:50:00Z</time>
      </trkpt>
      <trkpt lat="47.1753" lon="-1.65747">
        <ele>26</ele>
        <time>2016-08-31T08:50:05Z</time>
      </trkpt>
      <trkpt lat="47.17525" lon="-1.65753">
        <ele>26</ele>
        <time>2016-08-31T08:50:11Z</time>
      </trkpt>
      <trkpt lat="47.17518" lon="-1.65753">
        <ele>26</ele>
        <time>2016-08-31T08:50:16Z</time>
      </trkpt>
      <trkpt lat="47.17513" lon="-1.65752">
        <ele>26</ele>
        <time>2016-08-31T08:50:21Z</time>
      </trkpt>
      <trkpt lat="47.17506" lon="-1.6575">
        <ele>28</ele>
        <time>2016-08-31T08:50:26Z</time>
      </trkpt>
      <trkpt lat="47.17499" lon="-1.65746">
        <ele>29</ele>
        <time>2016-08-31T08:50:32Z</time>
      </trkpt>
      <trkpt lat="47.17491" lon="-1.65746">
        <ele>29</ele>
        <time>2016-08-31T08:50:37Z</time>
      </trkpt>
      <trkpt lat="47.17485" lon="-1.65743">
        <ele>29</ele>
        <time>2016-08-31T08:50:42Z</time>
      </trkpt>
      <trkpt lat="47.17478" lon="-1.65741">
        <ele>29</ele>
        <time>2016-08-31T08:50:47Z</time>
      </trkpt>
      <trkpt lat="47.1747" lon="-1.65738">
        <ele>29</ele>
        <time>2016-08-31T08:50:52Z</time>
      </trkpt>
      <trkpt lat="47.17464" lon="-1.65734">
        <ele>29</ele>
        <time>2016-08-31T08:50:57Z</time>
      </trkpt>
      <trkpt lat="47.17459" lon="-1.65726">
        <ele>31</ele>
        <time>2016-08-31T08:51:02Z</time>
      </trkpt>
      <trkpt lat="47.17454" lon="-1.65718">
        <ele>32</ele>
        <time>2016-08-31T08:51:07Z</time>
      </trkpt>
      <trkpt lat="47.1745" lon="-1.65709">
        <ele>32</ele>
        <time>2016-08-31T08:51:12Z</time>
      </trkpt>
      <trkpt lat="47.17451" lon="-1.657">
        <ele>32</ele>
        <time>2016-08-31T08:51:17Z</time>
      </trkpt>
      <trkpt lat="47.17453" lon="-1.65691">
        <ele>32</ele>
        <time>2016-08-31T08:51:22Z</time>
      </trkpt>
      <trkpt lat="47.17458" lon="-1.65682">
        <ele>36</ele>
        <time>2016-08-31T08:51:27Z</time>
      </trkpt>
      <trkpt lat="47.17463" lon="-1.65673">
        <ele>37</ele>
        <time>2016-08-31T08:51:32Z</time>
      </trkpt>
      <trkpt lat="47.17465" lon="-1.65665">
        <ele>35</ele>
        <time>2016-08-31T08:51:37Z</time>
      </trkpt>
      <trkpt lat="47.17467" lon="-1.65657">
        <ele>35</ele>
        <time>2016-08-31T08:51:42Z</time>
      </trkpt>
      <trkpt lat="47.17472" lon="-1.65648">
        <ele>35</ele>
        <time>2016-08-31T08:51:47Z</time>
      </trkpt>
      <trkpt lat="47.17474" lon="-1.6564">
        <ele>35</ele>
        <time>2016-08-31T08:51:52Z</time>
      </trkpt>
      <trkpt lat="47.17479" lon="-1.65632">
        <ele>36</ele>
        <time>2016-08-31T08:51:57Z</time>
      </trkpt>
      <trkpt lat="47.17484" lon="-1.65623">
        <ele>36</ele>
        <time>2016-08-31T08:52:02Z</time>
      </trkpt>
      <trkpt lat="47.17487" lon="-1.65616">
        <ele>36</ele>
        <time>2016-08-31T08:52:07Z</time>
      </trkpt>
      <trkpt lat="47.17491" lon="-1.65607">
        <ele>36</ele>
        <time>2016-08-31T08:52:12Z</time>
      </trkpt>
      <trkpt lat="47.17495" lon="-1.656">
        <ele>36</ele>
        <time>2016-08-31T08:52:17Z</time>
      </trkpt>
      <trkpt lat="47.17501" lon="-1.65594">
        <ele>36</ele>
        <time>2016-08-31T08:52:22Z</time>
      </trkpt>
      <trkpt lat="47.17508" lon="-1.65587">
        <ele>36</ele>
        <time>2016-08-31T08:52:28Z</time>
      </trkpt>
      <trkpt lat="47.17515" lon="-1.65585">
        <ele>36</ele>
        <time>2016-08-31T08:52:33Z</time>
      </trkpt>
      <trkpt lat="47.17519" lon="-1.65578">
        <ele>37</ele>
        <time>2016-08-31T08:52:38Z</time>
      </trkpt>
      <trkpt lat="47.17526" lon="-1.65575">
        <ele>37</ele>
        <time>2016-08-31T08:52:44Z</time>
      </trkpt>
      <trkpt lat="47.17535" lon="-1.65571">
        <ele>37</ele>
        <time>2016-08-31T08:52:50Z</time>
      </trkpt>
      <trkpt lat="47.17537" lon="-1.65563">
        <ele>37</ele>
        <time>2016-08-31T08:52:55Z</time>
      </trkpt>
      <trkpt lat="47.17535" lon="-1.65553">
        <ele>32</ele>
        <time>2016-08-31T08:53:00Z</time>
      </trkpt>
      <trkpt lat="47.17534" lon="-1.65543">
        <ele>27</ele>
        <time>2016-08-31T08:53:05Z</time>
      </trkpt>
      <trkpt lat="47.17532" lon="-1.65533">
        <ele>26</ele>
        <time>2016-08-31T08:53:10Z</time>
      </trkpt>
      <trkpt lat="47.17532" lon="-1.65527">
        <ele>26</ele>
        <time>2016-08-31T08:53:18Z</time>
      </trkpt>
      <trkpt lat="47.17532" lon="-1.65517">
        <ele>26</ele>
        <time>2016-08-31T08:53:24Z</time>
      </trkpt>
      <trkpt lat="47.1753" lon="-1.65507">
        <ele>26</ele>
        <time>2016-08-31T08:53:29Z</time>
      </trkpt>
      <trkpt lat="47.1753" lon="-1.65495">
        <ele>26</ele>
        <time>2016-08-31T08:53:34Z</time>
      </trkpt>
      <trkpt lat="47.17532" lon="-1.65487">
        <ele>26</ele>
        <time>2016-08-31T08:53:39Z</time>
      </trkpt>
      <trkpt lat="47.17533" lon="-1.65477">
        <ele>26</ele>
        <time>2016-08-31T08:53:44Z</time>
      </trkpt>
      <trkpt lat="47.17533" lon="-1.65467">
        <ele>26</ele>
        <time>2016-08-31T08:53:49Z</time>
      </trkpt>
      <trkpt lat="47.17535" lon="-1.65456">
        <ele>27</ele>
        <time>2016-08-31T08:53:54Z</time>
      </trkpt>
      <trkpt lat="47.17537" lon="-1.65447">
        <ele>27</ele>
        <time>2016-08-31T08:53:59Z</time>
      </trkpt>
      <trkpt lat="47.17533" lon="-1.65439">
        <ele>27</ele>
        <time>2016-08-31T08:54:04Z</time>
      </trkpt>
      <trkpt lat="47.17532" lon="-1.65428">
        <ele>27</ele>
        <time>2016-08-31T08:54:09Z</time>
      </trkpt>
      <trkpt lat="47.1753" lon="-1.65418">
        <ele>26</ele>
        <time>2016-08-31T08:54:14Z</time>
      </trkpt>
      <trkpt lat="47.1753" lon="-1.65403">
        <ele>25</ele>
        <time>2016-08-31T08:54:20Z</time>
      </trkpt>
      <trkpt lat="47.17529" lon="-1.65392">
        <ele>25</ele>
        <time>2016-08-31T08:54:25Z</time>
      </trkpt>
      <trkpt lat="47.17528" lon="-1.65381">
        <ele>25</ele>
        <time>2016-08-31T08:54:30Z</time>
      </trkpt>
      <trkpt lat="47.17525" lon="-1.65372">
        <ele>25</ele>
        <time>2016-08-31T08:54:35Z</time>
      </trkpt>
      <trkpt lat="47.1752" lon="-1.65364">
        <ele>24</ele>
        <time>2016-08-31T08:54:40Z</time>
      </trkpt>
      <trkpt lat="47.17515" lon="-1.65358">
        <ele>23</ele>
        <time>2016-08-31T08:54:45Z</time>
      </trkpt>
      <trkpt lat="47.17508" lon="-1.6535">
        <ele>23</ele>
        <time>2016-08-31T08:54:50Z</time>
      </trkpt>
      <trkpt lat="47.17503" lon="-1.65345">
        <ele>25</ele>
        <time>2016-08-31T08:54:55Z</time>
      </trkpt>
      <trkpt lat="47.17494" lon="-1.65338">
        <ele>31</ele>
        <time>2016-08-31T08:55:01Z</time>
      </trkpt>
      <trkpt lat="47.17487" lon="-1.6534">
        <ele>31</ele>
        <time>2016-08-31T08:55:06Z</time>
      </trkpt>
      <trkpt lat="47.17481" lon="-1.65337">
        <ele>29</ele>
        <time>2016-08-31T08:55:11Z</time>
      </trkpt>
      <trkpt lat="47.17477" lon="-1.65331">
        <ele>29</ele>
        <time>2016-08-31T08:55:16Z</time>
      </trkpt>
      <trkpt lat="47.17472" lon="-1.6532">
        <ele>29</ele>
        <time>2016-08-31T08:55:21Z</time>
      </trkpt>
      <trkpt lat="47.1747" lon="-1.65311">
        <ele>28</ele>
        <time>2016-08-31T08:55:26Z</time>
      </trkpt>
      <trkpt lat="47.17467" lon="-1.65303">
        <ele>26</ele>
        <time>2016-08-31T08:55:31Z</time>
      </trkpt>
      <trkpt lat="47.17463" lon="-1.65291">
        <ele>25</ele>
        <time>2016-08-31T08:55:36Z</time>
      </trkpt>
      <trkpt lat="47.17461" lon="-1.65281">
        <ele>25</ele>
        <time>2016-08-31T08:55:41Z</time>
      </trkpt>
      <trkpt lat="47.17456" lon="-1.65271">
        <ele>25</ele>
        <time>2016-08-31T08:55:46Z</time>
      </trkpt>
      <trkpt lat="47.1745" lon="-1.65263">
        <ele>25</ele>
        <time>2016-08-31T08:55:52Z</time>
      </trkpt>
      <trkpt lat="47.17448" lon="-1.65256">
        <ele>20</ele>
        <time>2016-08-31T08:55:57Z</time>
      </trkpt>
      <trkpt lat="47.17445" lon="-1.65246">
        <ele>18</ele>
        <time>2016-08-31T08:56:02Z</time>
      </trkpt>
      <trkpt lat="47.17442" lon="-1.65237">
        <ele>18</ele>
        <time>2016-08-31T08:56:07Z</time>
      </trkpt>
      <trkpt lat="47.17439" lon="-1.65227">
        <ele>18</ele>
        <time>2016-08-31T08:56:12Z</time>
      </trkpt>
      <trkpt lat="47.17437" lon="-1.65218">
        <ele>20</ele>
        <time>2016-08-31T08:56:17Z</time>
      </trkpt>
      <trkpt lat="47.17436" lon="-1.65207">
        <ele>26</ele>
        <time>2016-08-31T08:56:23Z</time>
      </trkpt>
      <trkpt lat="47.17435" lon="-1.65197">
        <ele>28</ele>
        <time>2016-08-31T08:56:28Z</time>
      </trkpt>
      <trkpt lat="47.17437" lon="-1.65186">
        <ele>29</ele>
        <time>2016-08-31T08:56:33Z</time>
      </trkpt>
      <trkpt lat="47.17439" lon="-1.65175">
        <ele>31</ele>
        <time>2016-08-31T08:56:39Z</time>
      </trkpt>
      <trkpt lat="47.17438" lon="-1.65164">
        <ele>31</ele>
        <time>2016-08-31T08:56:44Z</time>
      </trkpt>
      <trkpt lat="47.17437" lon="-1.65154">
        <ele>31</ele>
        <time>2016-08-31T08:56:50Z</time>
      </trkpt>
      <trkpt lat="47.17435" lon="-1.65143">
        <ele>31</ele>
        <time>2016-08-31T08:56:56Z</time>
      </trkpt>
      <trkpt lat="47.17433" lon="-1.65131">
        <ele>31</ele>
        <time>2016-08-31T08:57:01Z</time>
      </trkpt>
      <trkpt lat="47.17436" lon="-1.65119">
        <ele>31</ele>
        <time>2016-08-31T08:57:06Z</time>
      </trkpt>
      <trkpt lat="47.17437" lon="-1.65108">
        <ele>32</ele>
        <time>2016-08-31T08:57:11Z</time>
      </trkpt>
      <trkpt lat="47.17437" lon="-1.65099">
        <ele>37</ele>
        <time>2016-08-31T08:57:16Z</time>
      </trkpt>
      <trkpt lat="47.17436" lon="-1.65087">
        <ele>41</ele>
        <time>2016-08-31T08:57:21Z</time>
      </trkpt>
      <trkpt lat="47.17438" lon="-1.65078">
        <ele>42</ele>
        <time>2016-08-31T08:57:26Z</time>
      </trkpt>
      <trkpt lat="47.17439" lon="-1.65067">
        <ele>42</ele>
        <time>2016-08-31T08:57:31Z</time>
      </trkpt>
      <trkpt lat="47.1744" lon="-1.65057">
        <ele>42</ele>
        <time>2016-08-31T08:57:36Z</time>
      </trkpt>
      <trkpt lat="47.17439" lon="-1.65045">
        <ele>42</ele>
        <time>2016-08-31T08:57:41Z</time>
      </trkpt>
      <trkpt lat="47.17439" lon="-1.65035">
        <ele>45</ele>
        <time>2016-08-31T08:57:46Z</time>
      </trkpt>
      <trkpt lat="47.17438" lon="-1.65025">
        <ele>45</ele>
        <time>2016-08-31T08:57:51Z</time>
      </trkpt>
      <trkpt lat="47.17438" lon="-1.65018">
        <ele>40</ele>
        <time>2016-08-31T08:57:56Z</time>
      </trkpt>
      <trkpt lat="47.17436" lon="-1.65009">
        <ele>31</ele>
        <time>2016-08-31T08:58:02Z</time>
      </trkpt>
      <trkpt lat="47.17434" lon="-1.65003">
        <ele>23</ele>
        <time>2016-08-31T08:58:07Z</time>
      </trkpt>
      <trkpt lat="47.17432" lon="-1.64993">
        <ele>18</ele>
        <time>2016-08-31T08:58:12Z</time>
      </trkpt>
      <trkpt lat="47.17432" lon="-1.64981">
        <ele>17</ele>
        <time>2016-08-31T08:58:17Z</time>
      </trkpt>
      <trkpt lat="47.1743" lon="-1.6497">
        <ele>18</ele>
        <time>2016-08-31T08:58:22Z</time>
      </trkpt>
      <trkpt lat="47.1743" lon="-1.64955">
        <ele>23</ele>
        <time>2016-08-31T08:58:27Z</time>
      </trkpt>
      <trkpt lat="47.1743" lon="-1.64945">
        <ele>26</ele>
        <time>2016-08-31T08:58:32Z</time>
      </trkpt>
      <trkpt lat="47.17431" lon="-1.64936">
        <ele>29</ele>
        <time>2016-08-31T08:58:37Z</time>
      </trkpt>
      <trkpt lat="47.17428" lon="-1.64927">
        <ele>32</ele>
        <time>2016-08-31T08:58:42Z</time>
      </trkpt>
      <trkpt lat="47.17425" lon="-1.64915">
        <ele>35</ele>
        <time>2016-08-31T08:58:47Z</time>
      </trkpt>
      <trkpt lat="47.17422" lon="-1.64905">
        <ele>40</ele>
        <time>2016-08-31T08:58:52Z</time>
      </trkpt>
      <trkpt lat="47.17421" lon="-1.64896">
        <ele>40</ele>
        <time>2016-08-31T08:58:57Z</time>
      </trkpt>
      <trkpt lat="47.17419" lon="-1.64885">
        <ele>40</ele>
        <time>2016-08-31T08:59:03Z</time>
      </trkpt>
      <trkpt lat="47.17419" lon="-1.64874">
        <ele>40</ele>
        <time>2016-08-31T08:59:08Z</time>
      </trkpt>
      <trkpt lat="47.17419" lon="-1.64861">
        <ele>40</ele>
        <time>2016-08-31T08:59:13Z</time>
      </trkpt>
      <trkpt lat="47.17419" lon="-1.64851">
        <ele>40</ele>
        <time>2016-08-31T08:59:18Z</time>
      </trkpt>
      <trkpt lat="47.17416" lon="-1.6484">
        <ele>40</ele>
        <time>2016-08-31T08:59:23Z</time>
      </trkpt>
      <trkpt lat="47.17416" lon="-1.64832">
        <ele>40</ele>
        <time>2016-08-31T08:59:28Z</time>
      </trkpt>
      <trkpt lat="47.17417" lon="-1.64821">
        <ele>39</ele>
        <time>2016-08-31T08:59:33Z</time>
      </trkpt>
      <trkpt lat="47.17416" lon="-1.64812">
        <ele>34</ele>
        <time>2016-08-31T08:59:38Z</time>
      </trkpt>
      <trkpt lat="47.17414" lon="-1.64802">
        <ele>29</ele>
        <time>2016-08-31T08:59:43Z</time>
      </trkpt>
      <trkpt lat="47.17412" lon="-1.64794">
        <ele>26</ele>
        <time>2016-08-31T08:59:48Z</time>
      </trkpt>
      <trkpt lat="47.17412" lon="-1.64786">
        <ele>21</ele>
        <time>2016-08-31T08:59:53Z</time>
      </trkpt>
      <trkpt lat="47.1741" lon="-1.64776">
        <ele>17</ele>
        <time>2016-08-31T08:59:59Z</time>
      </trkpt>
      <trkpt lat="47.17409" lon="-1.64769">
        <ele>13</ele>
        <time>2016-08-31T09:00:04Z</time>
      </trkpt>
      <trkpt lat="47.17406" lon="-1.64756">
        <ele>13</ele>
        <time>2016-08-31T09:00:09Z</time>
      </trkpt>
      <trkpt lat="47.17404" lon="-1.64745">
        <ele>13</ele>
        <time>2016-08-31T09:00:14Z</time>
      </trkpt>
      <trkpt lat="47.17403" lon="-1.6473">
        <ele>18</ele>
        <time>2016-08-31T09:00:19Z</time>
      </trkpt>
      <trkpt lat="47.17403" lon="-1.6472">
        <ele>21</ele>
        <time>2016-08-31T09:00:24Z</time>
      </trkpt>
      <trkpt lat="47.17402" lon="-1.6471">
        <ele>21</ele>
        <time>2016-08-31T09:00:29Z</time>
      </trkpt>
      <trkpt lat="47.174" lon="-1.64699">
        <ele>21</ele>
        <time>2016-08-31T09:00:34Z</time>
      </trkpt>
      <trkpt lat="47.17397" lon="-1.64691">
        <ele>21</ele>
        <time>2016-08-31T09:00:39Z</time>
      </trkpt>
      <trkpt lat="47.17397" lon="-1.64681">
        <ele>21</ele>
        <time>2016-08-31T09:00:45Z</time>
      </trkpt>
      <trkpt lat="47.17395" lon="-1.64671">
        <ele>21</ele>
        <time>2016-08-31T09:00:50Z</time>
      </trkpt>
      <trkpt lat="47.17393" lon="-1.6466">
        <ele>21</ele>
        <time>2016-08-31T09:00:55Z</time>
      </trkpt>
      <trkpt lat="47.17393" lon="-1.64648">
        <ele>22</ele>
        <time>2016-08-31T09:01:01Z</time>
      </trkpt>
      <trkpt lat="47.1739" lon="-1.6464">
        <ele>24</ele>
        <time>2016-08-31T09:01:06Z</time>
      </trkpt>
      <trkpt lat="47.17385" lon="-1.64633">
        <ele>24</ele>
        <time>2016-08-31T09:01:12Z</time>
      </trkpt>
      <trkpt lat="47.1738" lon="-1.64626">
        <ele>24</ele>
        <time>2016-08-31T09:01:17Z</time>
      </trkpt>
      <trkpt lat="47.17374" lon="-1.64616">
        <ele>27</ele>
        <time>2016-08-31T09:01:22Z</time>
      </trkpt>
      <trkpt lat="47.17371" lon="-1.64606">
        <ele>27</ele>
        <time>2016-08-31T09:01:27Z</time>
      </trkpt>
      <trkpt lat="47.17364" lon="-1.64601">
        <ele>27</ele>
        <time>2016-08-31T09:01:32Z</time>
      </trkpt>
      <trkpt lat="47.17358" lon="-1.64595">
        <ele>27</ele>
        <time>2016-08-31T09:01:38Z</time>
      </trkpt>
      <trkpt lat="47.17351" lon="-1.64591">
        <ele>22</ele>
        <time>2016-08-31T09:01:43Z</time>
      </trkpt>
      <trkpt lat="47.17349" lon="-1.64581">
        <ele>20</ele>
        <time>2016-08-31T09:01:48Z</time>
      </trkpt>
      <trkpt lat="47.17345" lon="-1.64577">
        <ele>18</ele>
        <time>2016-08-31T09:01:53Z</time>
      </trkpt>
      <trkpt lat="47.17347" lon="-1.64574">
        <ele>16</ele>
        <time>2016-08-31T09:01:58Z</time>
      </trkpt>
      <trkpt lat="47.17353" lon="-1.6457">
        <ele>16</ele>
        <time>2016-08-31T09:02:05Z</time>
      </trkpt>
      <trkpt lat="47.17359" lon="-1.64564">
        <ele>16</ele>
        <time>2016-08-31T09:02:10Z</time>
      </trkpt>
      <trkpt lat="47.17367" lon="-1.64562">
        <ele>17</ele>
        <time>2016-08-31T09:02:15Z</time>
      </trkpt>
      <trkpt lat="47.17373" lon="-1.64556">
        <ele>17</ele>
        <time>2016-08-31T09:02:20Z</time>
      </trkpt>
      <trkpt lat="47.17377" lon="-1.64547">
        <ele>17</ele>
        <time>2016-08-31T09:02:25Z</time>
      </trkpt>
      <trkpt lat="47.17379" lon="-1.64539">
        <ele>17</ele>
        <time>2016-08-31T09:02:30Z</time>
      </trkpt>
      <trkpt lat="47.17383" lon="-1.64531">
        <ele>17</ele>
        <time>2016-08-31T09:02:35Z</time>
      </trkpt>
      <trkpt lat="47.17387" lon="-1.64522">
        <ele>19</ele>
        <time>2016-08-31T09:02:40Z</time>
      </trkpt>
      <trkpt lat="47.17386" lon="-1.64515">
        <ele>20</ele>
        <time>2016-08-31T09:02:47Z</time>
      </trkpt>
      <trkpt lat="47.17392" lon="-1.64506">
        <ele>20</ele>
        <time>2016-08-31T09:02:52Z</time>
      </trkpt>
      <trkpt lat="47.17399" lon="-1.64498">
        <ele>20</ele>
        <time>2016-08-31T09:02:57Z</time>
      </trkpt>
      <trkpt lat="47.17403" lon="-1.64489">
        <ele>20</ele>
        <time>2016-08-31T09:03:02Z</time>
      </trkpt>
      <trkpt lat="47.17404" lon="-1.64482">
        <ele>20</ele>
        <time>2016-08-31T09:03:08Z</time>
      </trkpt>
      <trkpt lat="47.17408" lon="-1.64471">
        <ele>20</ele>
        <time>2016-08-31T09:03:13Z</time>
      </trkpt>
      <trkpt lat="47.17413" lon="-1.64463">
        <ele>20</ele>
        <time>2016-08-31T09:03:20Z</time>
      </trkpt>
      <trkpt lat="47.17419" lon="-1.64454">
        <ele>20</ele>
        <time>2016-08-31T09:03:26Z</time>
      </trkpt>
      <trkpt lat="47.17421" lon="-1.64446">
        <ele>19</ele>
        <time>2016-08-31T09:03:31Z</time>
      </trkpt>
      <trkpt lat="47.17422" lon="-1.64435">
        <ele>17</ele>
        <time>2016-08-31T09:03:36Z</time>
      </trkpt>
      <trkpt lat="47.17423" lon="-1.64429">
        <ele>12</ele>
        <time>2016-08-31T09:03:41Z</time>
      </trkpt>
      <trkpt lat="47.17422" lon="-1.64419">
        <ele>10</ele>
        <time>2016-08-31T09:03:46Z</time>
      </trkpt>
      <trkpt lat="47.17424" lon="-1.6441">
        <ele>10</ele>
        <time>2016-08-31T09:03:51Z</time>
      </trkpt>
      <trkpt lat="47.17425" lon="-1.64401">
        <ele>10</ele>
        <time>2016-08-31T09:03:56Z</time>
      </trkpt>
      <trkpt lat="47.17426" lon="-1.64387">
        <ele>15</ele>
        <time>2016-08-31T09:04:01Z</time>
      </trkpt>
      <trkpt lat="47.17432" lon="-1.64375">
        <ele>16</ele>
        <time>2016-08-31T09:04:06Z</time>
      </trkpt>
      <trkpt lat="47.17432" lon="-1.64363">
        <ele>20</ele>
        <time>2016-08-31T09:04:11Z</time>
      </trkpt>
      <trkpt lat="47.17436" lon="-1.64355">
        <ele>22</ele>
        <time>2016-08-31T09:04:16Z</time>
      </trkpt>
      <trkpt lat="47.17439" lon="-1.64347">
        <ele>22</ele>
        <time>2016-08-31T09:04:23Z</time>
      </trkpt>
      <trkpt lat="47.17437" lon="-1.6434">
        <ele>22</ele>
        <time>2016-08-31T09:04:28Z</time>
      </trkpt>
      <trkpt lat="47.17431" lon="-1.64338">
        <ele>22</ele>
        <time>2016-08-31T09:04:33Z</time>
      </trkpt>
      <trkpt lat="47.17424" lon="-1.64334">
        <ele>22</ele>
        <time>2016-08-31T09:04:38Z</time>
      </trkpt>
      <trkpt lat="47.17422" lon="-1.6433">
        <ele>22</ele>
        <time>2016-08-31T09:04:43Z</time>
      </trkpt>
      <trkpt lat="47.17423" lon="-1.64321">
        <ele>22</ele>
        <time>2016-08-31T09:04:48Z</time>
      </trkpt>
      <trkpt lat="47.17427" lon="-1.64311">
        <ele>22</ele>
        <time>2016-08-31T09:04:53Z</time>
      </trkpt>
      <trkpt lat="47.1743" lon="-1.64301">
        <ele>22</ele>
        <time>2016-08-31T09:04:58Z</time>
      </trkpt>
      <trkpt lat="47.17434" lon="-1.64291">
        <ele>26</ele>
        <time>2016-08-31T09:05:03Z</time>
      </trkpt>
      <trkpt lat="47.17432" lon="-1.64283">
        <ele>31</ele>
        <time>2016-08-31T09:05:08Z</time>
      </trkpt>
      <trkpt lat="47.17434" lon="-1.64272">
        <ele>32</ele>
        <time>2016-08-31T09:05:13Z</time>
      </trkpt>
      <trkpt lat="47.17434" lon="-1.64262">
        <ele>32</ele>
        <time>2016-08-31T09:05:18Z</time>
      </trkpt>
      <trkpt lat="47.17434" lon="-1.64251">
        <ele>32</ele>
        <time>2016-08-31T09:05:23Z</time>
      </trkpt>
      <trkpt lat="47.17434" lon="-1.6424">
        <ele>32</ele>
        <time>2016-08-31T09:05:28Z</time>
      </trkpt>
      <trkpt lat="47.17436" lon="-1.6423">
        <ele>32</ele>
        <time>2016-08-31T09:05:33Z</time>
      </trkpt>
      <trkpt lat="47.17438" lon="-1.64221">
        <ele>30</ele>
        <time>2016-08-31T09:05:38Z</time>
      </trkpt>
      <trkpt lat="47.1744" lon="-1.64212">
        <ele>29</ele>
        <time>2016-08-31T09:05:43Z</time>
      </trkpt>
      <trkpt lat="47.17441" lon="-1.64203">
        <ele>29</ele>
        <time>2016-08-31T09:05:48Z</time>
      </trkpt>
      <trkpt lat="47.17442" lon="-1.64194">
        <ele>27</ele>
        <time>2016-08-31T09:05:53Z</time>
      </trkpt>
      <trkpt lat="47.17443" lon="-1.64186">
        <ele>23</ele>
        <time>2016-08-31T09:05:59Z</time>
      </trkpt>
      <trkpt lat="47.17449" lon="-1.6418">
        <ele>18</ele>
        <time>2016-08-31T09:06:04Z</time>
      </trkpt>
      <trkpt lat="47.17459" lon="-1.64172">
        <ele>13</ele>
        <time>2016-08-31T09:06:09Z</time>
      </trkpt>
      <trkpt lat="47.17462" lon="-1.64167">
        <ele>4</ele>
        <time>2016-08-31T09:06:14Z</time>
      </trkpt>
      <trkpt lat="47.17462" lon="-1.64158">
        <ele>20.6</ele>
        <time>2016-08-31T09:06:19Z</time>
      </trkpt>
      <trkpt lat="47.17463" lon="-1.64148">
        <ele>20.6</ele>
        <time>2016-08-31T09:06:24Z</time>
      </trkpt>
      <trkpt lat="47.17466" lon="-1.64135">
        <ele>20.1</ele>
        <time>2016-08-31T09:06:29Z</time>
      </trkpt>
      <trkpt lat="47.17467" lon="-1.64126">
        <ele>6</ele>
        <time>2016-08-31T09:06:34Z</time>
      </trkpt>
      <trkpt lat="47.17468" lon="-1.64116">
        <ele>8</ele>
        <time>2016-08-31T09:06:39Z</time>
      </trkpt>
      <trkpt lat="47.1747" lon="-1.64105">
        <ele>9</ele>
        <time>2016-08-31T09:06:44Z</time>
      </trkpt>
      <trkpt lat="47.17471" lon="-1.64095">
        <ele>13</ele>
        <time>2016-08-31T09:06:49Z</time>
      </trkpt>
      <trkpt lat="47.17474" lon="-1.64085">
        <ele>14</ele>
        <time>2016-08-31T09:06:54Z</time>
      </trkpt>
      <trkpt lat="47.17477" lon="-1.64077">
        <ele>14</ele>
        <time>2016-08-31T09:06:59Z</time>
      </trkpt>
      <trkpt lat="47.17481" lon="-1.64068">
        <ele>15</ele>
        <time>2016-08-31T09:07:04Z</time>
      </trkpt>
      <trkpt lat="47.17484" lon="-1.64061">
        <ele>15</ele>
        <time>2016-08-31T09:07:09Z</time>
      </trkpt>
      <trkpt lat="47.17484" lon="-1.64049">
        <ele>15</ele>
        <time>2016-08-31T09:07:14Z</time>
      </trkpt>
      <trkpt lat="47.17483" lon="-1.64039">
        <ele>16</ele>
        <time>2016-08-31T09:07:19Z</time>
      </trkpt>
      <trkpt lat="47.17479" lon="-1.64032">
        <ele>16</ele>
        <time>2016-08-31T09:07:24Z</time>
      </trkpt>
      <trkpt lat="47.17479" lon="-1.64026">
        <ele>16</ele>
        <time>2016-08-31T09:07:29Z</time>
      </trkpt>
      <trkpt lat="47.17481" lon="-1.64022">
        <ele>17</ele>
        <time>2016-08-31T09:07:34Z</time>
      </trkpt>
      <trkpt lat="47.1748" lon="-1.64012">
        <ele>17</ele>
        <time>2016-08-31T09:07:39Z</time>
      </trkpt>
      <trkpt lat="47.17481" lon="-1.64004">
        <ele>17</ele>
        <time>2016-08-31T09:07:44Z</time>
      </trkpt>
      <trkpt lat="47.17484" lon="-1.63999">
        <ele>17</ele>
        <time>2016-08-31T09:07:49Z</time>
      </trkpt>
      <trkpt lat="47.17489" lon="-1.63993">
        <ele>16</ele>
        <time>2016-08-31T09:07:54Z</time>
      </trkpt>
      <trkpt lat="47.17495" lon="-1.63989">
        <ele>10</ele>
        <time>2016-08-31T09:08:00Z</time>
      </trkpt>
      <trkpt lat="47.175" lon="-1.63985">
        <ele>5</ele>
        <time>2016-08-31T09:08:05Z</time>
      </trkpt>
      <trkpt lat="47.17507" lon="-1.63976">
        <ele>3</ele>
        <time>2016-08-31T09:08:11Z</time>
      </trkpt>
      <trkpt lat="47.17513" lon="-1.6397">
        <ele>3</ele>
        <time>2016-08-31T09:08:16Z</time>
      </trkpt>
      <trkpt lat="47.17518" lon="-1.63962">
        <ele>16.2</ele>
        <time>2016-08-31T09:08:22Z</time>
      </trkpt>
      <trkpt lat="47.17525" lon="-1.63958">
        <ele>15.9</ele>
        <time>2016-08-31T09:08:28Z</time>
      </trkpt>
      <trkpt lat="47.17532" lon="-1.63952">
        <ele>15.1</ele>
        <time>2016-08-31T09:08:33Z</time>
      </trkpt>
      <trkpt lat="47.17538" lon="-1.63946">
        <ele>14.2</ele>
        <time>2016-08-31T09:08:38Z</time>
      </trkpt>
      <trkpt lat="47.17544" lon="-1.63941">
        <ele>14</ele>
        <time>2016-08-31T09:08:43Z</time>
      </trkpt>
      <trkpt lat="47.17551" lon="-1.63935">
        <ele>13.8</ele>
        <time>2016-08-31T09:08:48Z</time>
      </trkpt>
      <trkpt lat="47.17557" lon="-1.63928">
        <ele>13.6</ele>
        <time>2016-08-31T09:08:54Z</time>
      </trkpt>
      <trkpt lat="47.17562" lon="-1.63919">
        <ele>1</ele>
        <time>2016-08-31T09:08:59Z</time>
      </trkpt>
      <trkpt lat="47.17567" lon="-1.63909">
        <ele>7</ele>
        <time>2016-08-31T09:09:04Z</time>
      </trkpt>
      <trkpt lat="47.17572" lon="-1.63902">
        <ele>8</ele>
        <time>2016-08-31T09:09:09Z</time>
      </trkpt>
      <trkpt lat="47.17575" lon="-1.63896">
        <ele>8</ele>
        <time>2016-08-31T09:09:14Z</time>
      </trkpt>
      <trkpt lat="47.1758" lon="-1.63889">
        <ele>10</ele>
        <time>2016-08-31T09:09:19Z</time>
      </trkpt>
      <trkpt lat="47.17585" lon="-1.63881">
        <ele>10</ele>
        <time>2016-08-31T09:09:26Z</time>
      </trkpt>
      <trkpt lat="47.17589" lon="-1.63875">
        <ele>10</ele>
        <time>2016-08-31T09:09:31Z</time>
      </trkpt>
      <trkpt lat="47.17595" lon="-1.63865">
        <ele>12</ele>
        <time>2016-08-31T09:09:36Z</time>
      </trkpt>
      <trkpt lat="47.17603" lon="-1.63858">
        <ele>18</ele>
        <time>2016-08-31T09:09:42Z</time>
      </trkpt>
      <trkpt lat="47.17612" lon="-1.63853">
        <ele>19</ele>
        <time>2016-08-31T09:09:47Z</time>
      </trkpt>
      <trkpt lat="47.17617" lon="-1.63847">
        <ele>18</ele>
        <time>2016-08-31T09:09:52Z</time>
      </trkpt>
      <trkpt lat="47.17624" lon="-1.63842">
        <ele>17</ele>
        <time>2016-08-31T09:09:57Z</time>
      </trkpt>
      <trkpt lat="47.1763" lon="-1.6384">
        <ele>16</ele>
        <time>2016-08-31T09:10:02Z</time>
      </trkpt>
      <trkpt lat="47.17638" lon="-1.63831">
        <ele>11</ele>
        <time>2016-08-31T09:10:07Z</time>
      </trkpt>
      <trkpt lat="47.17642" lon="-1.63829">
        <ele>6</ele>
        <time>2016-08-31T09:10:13Z</time>
      </trkpt>
      <trkpt lat="47.17646" lon="-1.63822">
        <ele>6</ele>
        <time>2016-08-31T09:10:18Z</time>
      </trkpt>
      <trkpt lat="47.1765" lon="-1.63814">
        <ele>6</ele>
        <time>2016-08-31T09:10:24Z</time>
      </trkpt>
      <trkpt lat="47.17653" lon="-1.63804">
        <ele>6</ele>
        <time>2016-08-31T09:10:29Z</time>
      </trkpt>
      <trkpt lat="47.17658" lon="-1.63794">
        <ele>6</ele>
        <time>2016-08-31T09:10:34Z</time>
      </trkpt>
      <trkpt lat="47.17664" lon="-1.63787">
        <ele>9</ele>
        <time>2016-08-31T09:10:39Z</time>
      </trkpt>
      <trkpt lat="47.17671" lon="-1.6378">
        <ele>13</ele>
        <time>2016-08-31T09:10:44Z</time>
      </trkpt>
      <trkpt lat="47.17676" lon="-1.63774">
        <ele>13</ele>
        <time>2016-08-31T09:10:49Z</time>
      </trkpt>
      <trkpt lat="47.17683" lon="-1.63766">
        <ele>13</ele>
        <time>2016-08-31T09:10:54Z</time>
      </trkpt>
      <trkpt lat="47.17686" lon="-1.63757">
        <ele>16</ele>
        <time>2016-08-31T09:10:59Z</time>
      </trkpt>
      <trkpt lat="47.17691" lon="-1.63747">
        <ele>16</ele>
        <time>2016-08-31T09:11:04Z</time>
      </trkpt>
      <trkpt lat="47.1769" lon="-1.63734">
        <ele>16</ele>
        <time>2016-08-31T09:11:09Z</time>
      </trkpt>
      <trkpt lat="47.17693" lon="-1.63727">
        <ele>21</ele>
        <time>2016-08-31T09:11:16Z</time>
      </trkpt>
      <trkpt lat="47.17701" lon="-1.63718">
        <ele>21</ele>
        <time>2016-08-31T09:11:22Z</time>
      </trkpt>
      <trkpt lat="47.17704" lon="-1.63712">
        <ele>21</ele>
        <time>2016-08-31T09:11:27Z</time>
      </trkpt>
      <trkpt lat="47.17708" lon="-1.63707">
        <ele>16</ele>
        <time>2016-08-31T09:11:33Z</time>
      </trkpt>
      <trkpt lat="47.17715" lon="-1.63701">
        <ele>12</ele>
        <time>2016-08-31T09:11:38Z</time>
      </trkpt>
      <trkpt lat="47.17722" lon="-1.63692">
        <ele>14</ele>
        <time>2016-08-31T09:11:43Z</time>
      </trkpt>
      <trkpt lat="47.1773" lon="-1.63687">
        <ele>15</ele>
        <time>2016-08-31T09:11:48Z</time>
      </trkpt>
      <trkpt lat="47.17738" lon="-1.63684">
        <ele>15</ele>
        <time>2016-08-31T09:11:53Z</time>
      </trkpt>
      <trkpt lat="47.1774" lon="-1.63676">
        <ele>13</ele>
        <time>2016-08-31T09:11:59Z</time>
      </trkpt>
      <trkpt lat="47.17748" lon="-1.6367">
        <ele>12</ele>
        <time>2016-08-31T09:12:04Z</time>
      </trkpt>
      <trkpt lat="47.17751" lon="-1.63661">
        <ele>7</ele>
        <time>2016-08-31T09:12:09Z</time>
      </trkpt>
      <trkpt lat="47.17749" lon="-1.63649">
        <ele>1</ele>
        <time>2016-08-31T09:12:15Z</time>
      </trkpt>
      <trkpt lat="47.17752" lon="-1.63638">
        <ele>6.3</ele>
        <time>2016-08-31T09:12:21Z</time>
      </trkpt>
      <trkpt lat="47.17757" lon="-1.63626">
        <ele>7.3</ele>
        <time>2016-08-31T09:12:27Z</time>
      </trkpt>
      <trkpt lat="47.17762" lon="-1.63621">
        <ele>7.8</ele>
        <time>2016-08-31T09:12:32Z</time>
      </trkpt>
      <trkpt lat="47.17768" lon="-1.63619">
        <ele>8</ele>
        <time>2016-08-31T09:12:37Z</time>
      </trkpt>
      <trkpt lat="47.17776" lon="-1.63615">
        <ele>8.1</ele>
        <time>2016-08-31T09:12:42Z</time>
      </trkpt>
      <trkpt lat="47.17781" lon="-1.6361">
        <ele>8.1</ele>
        <time>2016-08-31T09:12:47Z</time>
      </trkpt>
      <trkpt lat="47.17785" lon="-1.6361">
        <ele>8.3</ele>
        <time>2016-08-31T09:12:52Z</time>
      </trkpt>
      <trkpt lat="47.17787" lon="-1.63607">
        <ele>8.3</ele>
        <time>2016-08-31T09:12:58Z</time>
      </trkpt>
      <trkpt lat="47.17788" lon="-1.63606">
        <ele>8.4</ele>
        <time>2016-08-31T09:13:03Z</time>
      </trkpt>
      <trkpt lat="47.17788" lon="-1.63608">
        <ele>8.4</ele>
        <time>2016-08-31T09:13:16Z</time>
      </trkpt>
      <trkpt lat="47.17789" lon="-1.63605">
        <ele>8.4</ele>
        <time>2016-08-31T09:13:21Z</time>
      </trkpt>
      <trkpt lat="47.17793" lon="-1.63597">
        <ele>8.5</ele>
        <time>2016-08-31T09:13:26Z</time>
      </trkpt>
      <trkpt lat="47.17794" lon="-1.63592">
        <ele>4</ele>
        <time>2016-08-31T09:13:47Z</time>
      </trkpt>
      <trkpt lat="47.17796" lon="-1.63582">
        <ele>4</ele>
        <time>2016-08-31T09:13:52Z</time>
      </trkpt>
      <trkpt lat="47.17799" lon="-1.63571">
        <ele>4</ele>
        <time>2016-08-31T09:13:57Z</time>
      </trkpt>
      <trkpt lat="47.17801" lon="-1.63562">
        <ele>4</ele>
        <time>2016-08-31T09:14:02Z</time>
      </trkpt>
      <trkpt lat="47.17804" lon="-1.63553">
        <ele>4</ele>
        <time>2016-08-31T09:14:07Z</time>
      </trkpt>
      <trkpt lat="47.17806" lon="-1.63541">
        <ele>4</ele>
        <time>2016-08-31T09:14:12Z</time>
      </trkpt>
      <trkpt lat="47.17809" lon="-1.63531">
        <ele>4</ele>
        <time>2016-08-31T09:14:17Z</time>
      </trkpt>
      <trkpt lat="47.17811" lon="-1.6352">
        <ele>4</ele>
        <time>2016-08-31T09:14:22Z</time>
      </trkpt>
      <trkpt lat="47.17812" lon="-1.6351">
        <ele>5</ele>
        <time>2016-08-31T09:14:27Z</time>
      </trkpt>
      <trkpt lat="47.17813" lon="-1.63501">
        <ele>5</ele>
        <time>2016-08-31T09:14:32Z</time>
      </trkpt>
      <trkpt lat="47.17815" lon="-1.63491">
        <ele>5</ele>
        <time>2016-08-31T09:14:37Z</time>
      </trkpt>
      <trkpt lat="47.17815" lon="-1.63481">
        <ele>5</ele>
        <time>2016-08-31T09:14:42Z</time>
      </trkpt>
      <trkpt lat="47.17818" lon="-1.6347">
        <ele>5</ele>
        <time>2016-08-31T09:14:47Z</time>
      </trkpt>
      <trkpt lat="47.17817" lon="-1.63461">
        <ele>5</ele>
        <time>2016-08-31T09:14:52Z</time>
      </trkpt>
      <trkpt lat="47.17813" lon="-1.63452">
        <ele>5</ele>
        <time>2016-08-31T09:14:57Z</time>
      </trkpt>
      <trkpt lat="47.17809" lon="-1.63445">
        <ele>5</ele>
        <time>2016-08-31T09:15:02Z</time>
      </trkpt>
      <trkpt lat="47.17804" lon="-1.63438">
        <ele>4</ele>
        <time>2016-08-31T09:15:07Z</time>
      </trkpt>
      <trkpt lat="47.17798" lon="-1.63433">
        <ele>4</ele>
        <time>2016-08-31T09:15:12Z</time>
      </trkpt>
      <trkpt lat="47.17792" lon="-1.63427">
        <ele>2</ele>
        <time>2016-08-31T09:15:17Z</time>
      </trkpt>
      <trkpt lat="47.17786" lon="-1.63424">
        <ele>2</ele>
        <time>2016-08-31T09:15:22Z</time>
      </trkpt>
      <trkpt lat="47.17779" lon="-1.63419">
        <ele>2</ele>
        <time>2016-08-31T09:15:27Z</time>
      </trkpt>
      <trkpt lat="47.17772" lon="-1.63415">
        <ele>2</ele>
        <time>2016-08-31T09:15:32Z</time>
      </trkpt>
      <trkpt lat="47.17766" lon="-1.63409">
        <ele>2</ele>
        <time>2016-08-31T09:15:38Z</time>
      </trkpt>
      <trkpt lat="47.1776" lon="-1.63406">
        <ele>2</ele>
        <time>2016-08-31T09:15:43Z</time>
      </trkpt>
      <trkpt lat="47.17757" lon="-1.63398">
        <ele>2</ele>
        <time>2016-08-31T09:15:48Z</time>
      </trkpt>
      <trkpt lat="47.17755" lon="-1.63391">
        <ele>2</ele>
        <time>2016-08-31T09:15:53Z</time>
      </trkpt>
      <trkpt lat="47.17756" lon="-1.63381">
        <ele>2</ele>
        <time>2016-08-31T09:15:58Z</time>
      </trkpt>
      <trkpt lat="47.17758" lon="-1.63372">
        <ele>2</ele>
        <time>2016-08-31T09:16:03Z</time>
      </trkpt>
      <trkpt lat="47.17761" lon="-1.63363">
        <ele>2</ele>
        <time>2016-08-31T09:16:08Z</time>
      </trkpt>
      <trkpt lat="47.17764" lon="-1.63353">
        <ele>2</ele>
        <time>2016-08-31T09:16:13Z</time>
      </trkpt>
      <trkpt lat="47.17767" lon="-1.63346">
        <ele>2</ele>
        <time>2016-08-31T09:16:18Z</time>
      </trkpt>
      <trkpt lat="47.17771" lon="-1.63338">
        <ele>2</ele>
        <time>2016-08-31T09:16:23Z</time>
      </trkpt>
      <trkpt lat="47.17775" lon="-1.63329">
        <ele>3</ele>
        <time>2016-08-31T09:16:28Z</time>
      </trkpt>
      <trkpt lat="47.17778" lon="-1.63319">
        <ele>5</ele>
        <time>2016-08-31T09:16:34Z</time>
      </trkpt>
      <trkpt lat="47.17782" lon="-1.63311">
        <ele>6</ele>
        <time>2016-08-31T09:16:39Z</time>
      </trkpt>
      <trkpt lat="47.17786" lon="-1.63302">
        <ele>6</ele>
        <time>2016-08-31T09:16:44Z</time>
      </trkpt>
      <trkpt lat="47.17791" lon="-1.63292">
        <ele>6</ele>
        <time>2016-08-31T09:16:49Z</time>
      </trkpt>
      <trkpt lat="47.17792" lon="-1.63282">
        <ele>9</ele>
        <time>2016-08-31T09:16:54Z</time>
      </trkpt>
      <trkpt lat="47.17791" lon="-1.63272">
        <ele>9</ele>
        <time>2016-08-31T09:16:59Z</time>
      </trkpt>
      <trkpt lat="47.17791" lon="-1.63263">
        <ele>9</ele>
        <time>2016-08-31T09:17:04Z</time>
      </trkpt>
      <trkpt lat="47.17794" lon="-1.63256">
        <ele>9</ele>
        <time>2016-08-31T09:17:09Z</time>
      </trkpt>
      <trkpt lat="47.17797" lon="-1.63247">
        <ele>9</ele>
        <time>2016-08-31T09:17:14Z</time>
      </trkpt>
      <trkpt lat="47.17794" lon="-1.63239">
        <ele>9</ele>
        <time>2016-08-31T09:17:19Z</time>
      </trkpt>
      <trkpt lat="47.17798" lon="-1.63231">
        <ele>9</ele>
        <time>2016-08-31T09:17:24Z</time>
      </trkpt>
      <trkpt lat="47.17802" lon="-1.63225">
        <ele>9</ele>
        <time>2016-08-31T09:17:29Z</time>
      </trkpt>
      <trkpt lat="47.17804" lon="-1.63221">
        <ele>6</ele>
        <time>2016-08-31T09:17:34Z</time>
      </trkpt>
      <trkpt lat="47.17804" lon="-1.63215">
        <ele>3</ele>
        <time>2016-08-31T09:17:39Z</time>
      </trkpt>
      <trkpt lat="47.1781" lon="-1.63205">
        <ele>2</ele>
        <time>2016-08-31T09:17:45Z</time>
      </trkpt>
      <trkpt lat="47.17815" lon="-1.63198">
        <ele>1</ele>
        <time>2016-08-31T09:17:50Z</time>
      </trkpt>
      <trkpt lat="47.17817" lon="-1.63189">
        <ele>8.5</ele>
        <time>2016-08-31T09:17:55Z</time>
      </trkpt>
      <trkpt lat="47.17821" lon="-1.63179">
        <ele>8.2</ele>
        <time>2016-08-31T09:18:00Z</time>
      </trkpt>
      <trkpt lat="47.17816" lon="-1.63172">
        <ele>8.1</ele>
        <time>2016-08-31T09:18:05Z</time>
      </trkpt>
      <trkpt lat="47.17809" lon="-1.63172">
        <ele>8.2</ele>
        <time>2016-08-31T09:18:10Z</time>
      </trkpt>
      <trkpt lat="47.17802" lon="-1.63173">
        <ele>8.2</ele>
        <time>2016-08-31T09:18:15Z</time>
      </trkpt>
      <trkpt lat="47.17797" lon="-1.63168">
        <ele>8.1</ele>
        <time>2016-08-31T09:18:20Z</time>
      </trkpt>
      <trkpt lat="47.17791" lon="-1.63161">
        <ele>8</ele>
        <time>2016-08-31T09:18:26Z</time>
      </trkpt>
      <trkpt lat="47.17785" lon="-1.63158">
        <ele>8</ele>
        <time>2016-08-31T09:18:31Z</time>
      </trkpt>
      <trkpt lat="47.1778" lon="-1.63163">
        <ele>8</ele>
        <time>2016-08-31T09:18:36Z</time>
      </trkpt>
      <trkpt lat="47.17774" lon="-1.63162">
        <ele>8.1</ele>
        <time>2016-08-31T09:18:42Z</time>
      </trkpt>
      <trkpt lat="47.1777" lon="-1.63155">
        <ele>8.2</ele>
        <time>2016-08-31T09:18:47Z</time>
      </trkpt>
      <trkpt lat="47.17765" lon="-1.6315">
        <ele>8.2</ele>
        <time>2016-08-31T09:18:52Z</time>
      </trkpt>
      <trkpt lat="47.1776" lon="-1.63144">
        <ele>8.1</ele>
        <time>2016-08-31T09:18:57Z</time>
      </trkpt>
      <trkpt lat="47.17754" lon="-1.63136">
        <ele>8</ele>
        <time>2016-08-31T09:19:03Z</time>
      </trkpt>
      <trkpt lat="47.17748" lon="-1.63127">
        <ele>8.1</ele>
        <time>2016-08-31T09:19:09Z</time>
      </trkpt>
      <trkpt lat="47.17743" lon="-1.63119">
        <ele>8.3</ele>
        <time>2016-08-31T09:19:14Z</time>
      </trkpt>
      <trkpt lat="47.17736" lon="-1.63114">
        <ele>8.5</ele>
        <time>2016-08-31T09:19:19Z</time>
      </trkpt>
      <trkpt lat="47.17731" lon="-1.63105">
        <ele>8.7</ele>
        <time>2016-08-31T09:19:24Z</time>
      </trkpt>
      <trkpt lat="47.17729" lon="-1.63099">
        <ele>8.8</ele>
        <time>2016-08-31T09:19:29Z</time>
      </trkpt>
      <trkpt lat="47.17726" lon="-1.63092">
        <ele>8.9</ele>
        <time>2016-08-31T09:19:34Z</time>
      </trkpt>
      <trkpt lat="47.17724" lon="-1.63087">
        <ele>1</ele>
        <time>2016-08-31T09:19:39Z</time>
      </trkpt>
      <trkpt lat="47.17721" lon="-1.63077">
        <ele>2</ele>
        <time>2016-08-31T09:19:45Z</time>
      </trkpt>
      <trkpt lat="47.17718" lon="-1.6307">
        <ele>3</ele>
        <time>2016-08-31T09:19:50Z</time>
      </trkpt>
      <trkpt lat="47.17716" lon="-1.63063">
        <ele>3</ele>
        <time>2016-08-31T09:19:55Z</time>
      </trkpt>
      <trkpt lat="47.17714" lon="-1.63056">
        <ele>3</ele>
        <time>2016-08-31T09:20:00Z</time>
      </trkpt>
      <trkpt lat="47.17707" lon="-1.63048">
        <ele>3</ele>
        <time>2016-08-31T09:20:05Z</time>
      </trkpt>
      <trkpt lat="47.17701" lon="-1.63042">
        <ele>3</ele>
        <time>2016-08-31T09:20:10Z</time>
      </trkpt>
      <trkpt lat="47.17695" lon="-1.6304">
        <ele>3</ele>
        <time>2016-08-31T09:20:15Z</time>
      </trkpt>
      <trkpt lat="47.1769" lon="-1.63037">
        <ele>2</ele>
        <time>2016-08-31T09:20:20Z</time>
      </trkpt>
      <trkpt lat="47.17683" lon="-1.63035">
        <ele>1</ele>
        <time>2016-08-31T09:20:25Z</time>
      </trkpt>
      <trkpt lat="47.17677" lon="-1.63032">
        <ele>1</ele>
        <time>2016-08-31T09:20:30Z</time>
      </trkpt>
      <trkpt lat="47.17672" lon="-1.63031">
        <ele>1</ele>
        <time>2016-08-31T09:20:35Z</time>
      </trkpt>
      <trkpt lat="47.17665" lon="-1.63029">
        <ele>1</ele>
        <time>2016-08-31T09:20:40Z</time>
      </trkpt>
      <trkpt lat="47.17658" lon="-1.63028">
        <ele>1</ele>
        <time>2016-08-31T09:20:45Z</time>
      </trkpt>
      <trkpt lat="47.17651" lon="-1.63029">
        <ele>1</ele>
        <time>2016-08-31T09:20:50Z</time>
      </trkpt>
      <trkpt lat="47.17645" lon="-1.63033">
        <ele>1</ele>
        <time>2016-08-31T09:20:55Z</time>
      </trkpt>
      <trkpt lat="47.17639" lon="-1.63033">
        <ele>1</ele>
        <time>2016-08-31T09:21:00Z</time>
      </trkpt>
      <trkpt lat="47.17633" lon="-1.63033">
        <ele>2</ele>
        <time>2016-08-31T09:21:05Z</time>
      </trkpt>
      <trkpt lat="47.17626" lon="-1.63036">
        <ele>2</ele>
        <time>2016-08-31T09:21:11Z</time>
      </trkpt>
      <trkpt lat="47.1762" lon="-1.63034">
        <ele>2</ele>
        <time>2016-08-31T09:21:16Z</time>
      </trkpt>
      <trkpt lat="47.17617" lon="-1.63026">
        <ele>2</ele>
        <time>2016-08-31T09:21:21Z</time>
      </trkpt>
      <trkpt lat="47.17613" lon="-1.63019">
        <ele>2</ele>
        <time>2016-08-31T09:21:27Z</time>
      </trkpt>
      <trkpt lat="47.17607" lon="-1.63012">
        <ele>2</ele>
        <time>2016-08-31T09:21:33Z</time>
      </trkpt>
      <trkpt lat="47.17604" lon="-1.63005">
        <ele>10</ele>
        <time>2016-08-31T09:21:38Z</time>
      </trkpt>
      <trkpt lat="47.17603" lon="-1.63005">
        <ele>10</ele>
        <time>2016-08-31T09:21:46Z</time>
      </trkpt>
      <trkpt lat="47.17605" lon="-1.62995">
        <ele>9.7</ele>
        <time>2016-08-31T09:21:51Z</time>
      </trkpt>
      <trkpt lat="47.17604" lon="-1.62981">
        <ele>9.6</ele>
        <time>2016-08-31T09:21:56Z</time>
      </trkpt>
      <trkpt lat="47.17601" lon="-1.62973">
        <ele>1</ele>
        <time>2016-08-31T09:22:01Z</time>
      </trkpt>
      <trkpt lat="47.17593" lon="-1.62967">
        <ele>2</ele>
        <time>2016-08-31T09:22:06Z</time>
      </trkpt>
      <trkpt lat="47.17586" lon="-1.62964">
        <ele>2</ele>
        <time>2016-08-31T09:22:11Z</time>
      </trkpt>
      <trkpt lat="47.1758" lon="-1.62959">
        <ele>2</ele>
        <time>2016-08-31T09:22:17Z</time>
      </trkpt>
      <trkpt lat="47.17576" lon="-1.62952">
        <ele>2</ele>
        <time>2016-08-31T09:22:22Z</time>
      </trkpt>
      <trkpt lat="47.17574" lon="-1.62943">
        <ele>2</ele>
        <time>2016-08-31T09:22:27Z</time>
      </trkpt>
      <trkpt lat="47.1757" lon="-1.62934">
        <ele>2</ele>
        <time>2016-08-31T09:22:32Z</time>
      </trkpt>
      <trkpt lat="47.17565" lon="-1.62926">
        <ele>3</ele>
        <time>2016-08-31T09:22:38Z</time>
      </trkpt>
      <trkpt lat="47.1756" lon="-1.62922">
        <ele>4</ele>
        <time>2016-08-31T09:22:43Z</time>
      </trkpt>
      <trkpt lat="47.17557" lon="-1.6291">
        <ele>4</ele>
        <time>2016-08-31T09:22:48Z</time>
      </trkpt>
      <trkpt lat="47.17556" lon="-1.62902">
        <ele>4</ele>
        <time>2016-08-31T09:22:53Z</time>
      </trkpt>
      <trkpt lat="47.17554" lon="-1.62895">
        <ele>4</ele>
        <time>2016-08-31T09:22:59Z</time>
      </trkpt>
      <trkpt lat="47.17553" lon="-1.62886">
        <ele>4</ele>
        <time>2016-08-31T09:23:04Z</time>
      </trkpt>
      <trkpt lat="47.17551" lon="-1.62877">
        <ele>6</ele>
        <time>2016-08-31T09:23:09Z</time>
      </trkpt>
      <trkpt lat="47.17545" lon="-1.6287">
        <ele>6</ele>
        <time>2016-08-31T09:23:14Z</time>
      </trkpt>
      <trkpt lat="47.1754" lon="-1.62862">
        <ele>6</ele>
        <time>2016-08-31T09:23:19Z</time>
      </trkpt>
      <trkpt lat="47.17535" lon="-1.62854">
        <ele>6</ele>
        <time>2016-08-31T09:23:24Z</time>
      </trkpt>
      <trkpt lat="47.17528" lon="-1.62849">
        <ele>6</ele>
        <time>2016-08-31T09:23:29Z</time>
      </trkpt>
      <trkpt lat="47.17522" lon="-1.62847">
        <ele>6</ele>
        <time>2016-08-31T09:23:34Z</time>
      </trkpt>
      <trkpt lat="47.17514" lon="-1.62845">
        <ele>6</ele>
        <time>2016-08-31T09:23:39Z</time>
      </trkpt>
      <trkpt lat="47.17508" lon="-1.62843">
        <ele>6</ele>
        <time>2016-08-31T09:23:44Z</time>
      </trkpt>
      <trkpt lat="47.17502" lon="-1.62838">
        <ele>6</ele>
        <time>2016-08-31T09:23:49Z</time>
      </trkpt>
      <trkpt lat="47.17498" lon="-1.6283">
        <ele>6</ele>
        <time>2016-08-31T09:23:54Z</time>
      </trkpt>
      <trkpt lat="47.17494" lon="-1.6282">
        <ele>6</ele>
        <time>2016-08-31T09:23:59Z</time>
      </trkpt>
      <trkpt lat="47.17493" lon="-1.62812">
        <ele>6</ele>
        <time>2016-08-31T09:24:04Z</time>
      </trkpt>
      <trkpt lat="47.17488" lon="-1.62804">
        <ele>6</ele>
        <time>2016-08-31T09:24:09Z</time>
      </trkpt>
      <trkpt lat="47.17485" lon="-1.62797">
        <ele>6</ele>
        <time>2016-08-31T09:24:14Z</time>
      </trkpt>
      <trkpt lat="47.17483" lon="-1.62788">
        <ele>6</ele>
        <time>2016-08-31T09:24:20Z</time>
      </trkpt>
      <trkpt lat="47.17485" lon="-1.62784">
        <ele>6</ele>
        <time>2016-08-31T09:24:25Z</time>
      </trkpt>
      <trkpt lat="47.17485" lon="-1.6278">
        <ele>6</ele>
        <time>2016-08-31T09:24:31Z</time>
      </trkpt>
      <trkpt lat="47.17483" lon="-1.62782">
        <ele>6</ele>
        <time>2016-08-31T09:24:38Z</time>
      </trkpt>
      <trkpt lat="47.17479" lon="-1.62785">
        <ele>5</ele>
        <time>2016-08-31T09:24:44Z</time>
      </trkpt>
      <trkpt lat="47.17478" lon="-1.62788">
        <ele>5</ele>
        <time>2016-08-31T09:24:55Z</time>
      </trkpt>
      <trkpt lat="47.1748" lon="-1.62787">
        <ele>5</ele>
        <time>2016-08-31T09:25:06Z</time>
      </trkpt>
      <trkpt lat="47.17486" lon="-1.62781">
        <ele>5</ele>
        <time>2016-08-31T09:25:11Z</time>
      </trkpt>
      <trkpt lat="47.1749" lon="-1.62775">
        <ele>5</ele>
        <time>2016-08-31T09:25:16Z</time>
      </trkpt>
      <trkpt lat="47.17496" lon="-1.62771">
        <ele>5</ele>
        <time>2016-08-31T09:25:22Z</time>
      </trkpt>
      <trkpt lat="47.17502" lon="-1.62767">
        <ele>5</ele>
        <time>2016-08-31T09:25:27Z</time>
      </trkpt>
      <trkpt lat="47.1751" lon="-1.62761">
        <ele>5</ele>
        <time>2016-08-31T09:25:33Z</time>
      </trkpt>
      <trkpt lat="47.17517" lon="-1.62756">
        <ele>5</ele>
        <time>2016-08-31T09:25:38Z</time>
      </trkpt>
      <trkpt lat="47.17523" lon="-1.6275">
        <ele>5</ele>
        <time>2016-08-31T09:25:43Z</time>
      </trkpt>
      <trkpt lat="47.17531" lon="-1.62743">
        <ele>5</ele>
        <time>2016-08-31T09:25:49Z</time>
      </trkpt>
      <trkpt lat="47.17537" lon="-1.62738">
        <ele>5</ele>
        <time>2016-08-31T09:25:54Z</time>
      </trkpt>
      <trkpt lat="47.17544" lon="-1.62733">
        <ele>5</ele>
        <time>2016-08-31T09:25:59Z</time>
      </trkpt>
      <trkpt lat="47.17552" lon="-1.62727">
        <ele>5</ele>
        <time>2016-08-31T09:26:05Z</time>
      </trkpt>
      <trkpt lat="47.17558" lon="-1.62721">
        <ele>5</ele>
        <time>2016-08-31T09:26:10Z</time>
      </trkpt>
      <trkpt lat="47.1756" lon="-1.62718">
        <ele>6</ele>
        <time>2016-08-31T09:26:16Z</time>
      </trkpt>
      <trkpt lat="47.17567" lon="-1.62712">
        <ele>7</ele>
        <time>2016-08-31T09:26:22Z</time>
      </trkpt>
      <trkpt lat="47.17573" lon="-1.62705">
        <ele>7</ele>
        <time>2016-08-31T09:26:28Z</time>
      </trkpt>
      <trkpt lat="47.17579" lon="-1.62701">
        <ele>7</ele>
        <time>2016-08-31T09:26:33Z</time>
      </trkpt>
      <trkpt lat="47.17585" lon="-1.62697">
        <ele>7</ele>
        <time>2016-08-31T09:26:38Z</time>
      </trkpt>
      <trkpt lat="47.17592" lon="-1.6269">
        <ele>7</ele>
        <time>2016-08-31T09:26:44Z</time>
      </trkpt>
      <trkpt lat="47.17599" lon="-1.62683">
        <ele>7</ele>
        <time>2016-08-31T09:26:49Z</time>
      </trkpt>
      <trkpt lat="47.17604" lon="-1.62678">
        <ele>8</ele>
        <time>2016-08-31T09:26:55Z</time>
      </trkpt>
      <trkpt lat="47.17608" lon="-1.62673">
        <ele>8</ele>
        <time>2016-08-31T09:27:01Z</time>
      </trkpt>
      <trkpt lat="47.17614" lon="-1.62668">
        <ele>8</ele>
        <time>2016-08-31T09:27:06Z</time>
      </trkpt>
      <trkpt lat="47.17622" lon="-1.62662">
        <ele>9</ele>
        <time>2016-08-31T09:27:12Z</time>
      </trkpt>
      <trkpt lat="47.17627" lon="-1.62656">
        <ele>10</ele>
        <time>2016-08-31T09:27:17Z</time>
      </trkpt>
      <trkpt lat="47.17635" lon="-1.6265">
        <ele>10</ele>
        <time>2016-08-31T09:27:23Z</time>
      </trkpt>
      <trkpt lat="47.1764" lon="-1.62645">
        <ele>10</ele>
        <time>2016-08-31T09:27:28Z</time>
      </trkpt>
      <trkpt lat="47.17646" lon="-1.6264">
        <ele>11</ele>
        <time>2016-08-31T09:27:33Z</time>
      </trkpt>
      <trkpt lat="47.17653" lon="-1.62632">
        <ele>12</ele>
        <time>2016-08-31T09:27:39Z</time>
      </trkpt>
      <trkpt lat="47.17659" lon="-1.62626">
        <ele>14</ele>
        <time>2016-08-31T09:27:44Z</time>
      </trkpt>
      <trkpt lat="47.17664" lon="-1.62619">
        <ele>14</ele>
        <time>2016-08-31T09:27:49Z</time>
      </trkpt>
      <trkpt lat="47.1767" lon="-1.62612">
        <ele>14</ele>
        <time>2016-08-31T09:27:55Z</time>
      </trkpt>
      <trkpt lat="47.17677" lon="-1.62612">
        <ele>14</ele>
        <time>2016-08-31T09:28:01Z</time>
      </trkpt>
      <trkpt lat="47.17682" lon="-1.62617">
        <ele>14</ele>
        <time>2016-08-31T09:28:06Z</time>
      </trkpt>
      <trkpt lat="47.17688" lon="-1.62614">
        <ele>14</ele>
        <time>2016-08-31T09:28:12Z</time>
      </trkpt>
      <trkpt lat="47.17693" lon="-1.62607">
        <ele>14</ele>
        <time>2016-08-31T09:28:17Z</time>
      </trkpt>
      <trkpt lat="47.17694" lon="-1.62597">
        <ele>14</ele>
        <time>2016-08-31T09:28:23Z</time>
      </trkpt>
      <trkpt lat="47.17697" lon="-1.62589">
        <ele>14</ele>
        <time>2016-08-31T09:28:29Z</time>
      </trkpt>
      <trkpt lat="47.17704" lon="-1.62584">
        <ele>14</ele>
        <time>2016-08-31T09:28:34Z</time>
      </trkpt>
      <trkpt lat="47.1771" lon="-1.6258">
        <ele>13</ele>
        <time>2016-08-31T09:28:39Z</time>
      </trkpt>
      <trkpt lat="47.17716" lon="-1.62574">
        <ele>12</ele>
        <time>2016-08-31T09:28:44Z</time>
      </trkpt>
      <trkpt lat="47.17722" lon="-1.62569">
        <ele>12</ele>
        <time>2016-08-31T09:28:49Z</time>
      </trkpt>
      <trkpt lat="47.17726" lon="-1.62565">
        <ele>11</ele>
        <time>2016-08-31T09:28:54Z</time>
      </trkpt>
      <trkpt lat="47.17733" lon="-1.62558">
        <ele>10</ele>
        <time>2016-08-31T09:28:59Z</time>
      </trkpt>
      <trkpt lat="47.17741" lon="-1.6255">
        <ele>10</ele>
        <time>2016-08-31T09:29:05Z</time>
      </trkpt>
      <trkpt lat="47.17747" lon="-1.62544">
        <ele>10</ele>
        <time>2016-08-31T09:29:10Z</time>
      </trkpt>
      <trkpt lat="47.17754" lon="-1.62536">
        <ele>11</ele>
        <time>2016-08-31T09:29:15Z</time>
      </trkpt>
      <trkpt lat="47.17759" lon="-1.6253">
        <ele>13</ele>
        <time>2016-08-31T09:29:20Z</time>
      </trkpt>
      <trkpt lat="47.17765" lon="-1.62526">
        <ele>13</ele>
        <time>2016-08-31T09:29:25Z</time>
      </trkpt>
      <trkpt lat="47.17772" lon="-1.62522">
        <ele>13</ele>
        <time>2016-08-31T09:29:30Z</time>
      </trkpt>
      <trkpt lat="47.17778" lon="-1.62515">
        <ele>13</ele>
        <time>2016-08-31T09:29:35Z</time>
      </trkpt>
      <trkpt lat="47.17782" lon="-1.6251">
        <ele>13</ele>
        <time>2016-08-31T09:29:40Z</time>
      </trkpt>
      <trkpt lat="47.17789" lon="-1.62504">
        <ele>14</ele>
        <time>2016-08-31T09:29:46Z</time>
      </trkpt>
      <trkpt lat="47.17795" lon="-1.62498">
        <ele>15</ele>
        <time>2016-08-31T09:29:51Z</time>
      </trkpt>
      <trkpt lat="47.178" lon="-1.62493">
        <ele>16</ele>
        <time>2016-08-31T09:29:56Z</time>
      </trkpt>
      <trkpt lat="47.17805" lon="-1.62487">
        <ele>16</ele>
        <time>2016-08-31T09:30:01Z</time>
      </trkpt>
      <trkpt lat="47.17812" lon="-1.62481">
        <ele>16</ele>
        <time>2016-08-31T09:30:06Z</time>
      </trkpt>
      <trkpt lat="47.17818" lon="-1.62476">
        <ele>16</ele>
        <time>2016-08-31T09:30:11Z</time>
      </trkpt>
      <trkpt lat="47.17824" lon="-1.62471">
        <ele>16</ele>
        <time>2016-08-31T09:30:16Z</time>
      </trkpt>
      <trkpt lat="47.1783" lon="-1.62467">
        <ele>16</ele>
        <time>2016-08-31T09:30:21Z</time>
      </trkpt>
      <trkpt lat="47.17837" lon="-1.6246">
        <ele>16</ele>
        <time>2016-08-31T09:30:27Z</time>
      </trkpt>
      <trkpt lat="47.17842" lon="-1.62454">
        <ele>16</ele>
        <time>2016-08-31T09:30:32Z</time>
      </trkpt>
      <trkpt lat="47.17847" lon="-1.62447">
        <ele>16</ele>
        <time>2016-08-31T09:30:37Z</time>
      </trkpt>
      <trkpt lat="47.17853" lon="-1.62441">
        <ele>16</ele>
        <time>2016-08-31T09:30:42Z</time>
      </trkpt>
      <trkpt lat="47.17858" lon="-1.62435">
        <ele>16</ele>
        <time>2016-08-31T09:30:47Z</time>
      </trkpt>
      <trkpt lat="47.17863" lon="-1.6243">
        <ele>16</ele>
        <time>2016-08-31T09:30:52Z</time>
      </trkpt>
      <trkpt lat="47.17868" lon="-1.62428">
        <ele>16</ele>
        <time>2016-08-31T09:30:57Z</time>
      </trkpt>
      <trkpt lat="47.17877" lon="-1.62419">
        <ele>16</ele>
        <time>2016-08-31T09:31:04Z</time>
      </trkpt>
      <trkpt lat="47.17882" lon="-1.62417">
        <ele>16</ele>
        <time>2016-08-31T09:31:09Z</time>
      </trkpt>
      <trkpt lat="47.17887" lon="-1.62413">
        <ele>16</ele>
        <time>2016-08-31T09:31:15Z</time>
      </trkpt>
      <trkpt lat="47.17884" lon="-1.62403">
        <ele>17</ele>
        <time>2016-08-31T09:31:20Z</time>
      </trkpt>
      <trkpt lat="47.1788" lon="-1.62394">
        <ele>19</ele>
        <time>2016-08-31T09:31:26Z</time>
      </trkpt>
      <trkpt lat="47.17879" lon="-1.62386">
        <ele>21</ele>
        <time>2016-08-31T09:31:31Z</time>
      </trkpt>
      <trkpt lat="47.17882" lon="-1.6238">
        <ele>27</ele>
        <time>2016-08-31T09:31:37Z</time>
      </trkpt>
      <trkpt lat="47.1789" lon="-1.62378">
        <ele>30</ele>
        <time>2016-08-31T09:31:42Z</time>
      </trkpt>
      <trkpt lat="47.17899" lon="-1.62375">
        <ele>29</ele>
        <time>2016-08-31T09:31:47Z</time>
      </trkpt>
      <trkpt lat="47.17906" lon="-1.62374">
        <ele>26</ele>
        <time>2016-08-31T09:31:52Z</time>
      </trkpt>
      <trkpt lat="47.17913" lon="-1.62373">
        <ele>24</ele>
        <time>2016-08-31T09:31:57Z</time>
      </trkpt>
      <trkpt lat="47.17922" lon="-1.6237">
        <ele>23</ele>
        <time>2016-08-31T09:32:03Z</time>
      </trkpt>
      <trkpt lat="47.17929" lon="-1.62367">
        <ele>23</ele>
        <time>2016-08-31T09:32:08Z</time>
      </trkpt>
      <trkpt lat="47.17936" lon="-1.62364">
        <ele>22</ele>
        <time>2016-08-31T09:32:14Z</time>
      </trkpt>
      <trkpt lat="47.17942" lon="-1.62361">
        <ele>22</ele>
        <time>2016-08-31T09:32:19Z</time>
      </trkpt>
      <trkpt lat="47.17949" lon="-1.62358">
        <ele>22</ele>
        <time>2016-08-31T09:32:24Z</time>
      </trkpt>
      <trkpt lat="47.17956" lon="-1.62357">
        <ele>22</ele>
        <time>2016-08-31T09:32:29Z</time>
      </trkpt>
      <trkpt lat="47.17962" lon="-1.62357">
        <ele>22</ele>
        <time>2016-08-31T09:32:34Z</time>
      </trkpt>
      <trkpt lat="47.17966" lon="-1.62354">
        <ele>22</ele>
        <time>2016-08-31T09:32:39Z</time>
      </trkpt>
      <trkpt lat="47.17973" lon="-1.62351">
        <ele>22</ele>
        <time>2016-08-31T09:32:44Z</time>
      </trkpt>
      <trkpt lat="47.17979" lon="-1.62349">
        <ele>22</ele>
        <time>2016-08-31T09:32:50Z</time>
      </trkpt>
      <trkpt lat="47.17986" lon="-1.62348">
        <ele>22</ele>
        <time>2016-08-31T09:32:55Z</time>
      </trkpt>
      <trkpt lat="47.17993" lon="-1.62346">
        <ele>22</ele>
        <time>2016-08-31T09:33:00Z</time>
      </trkpt>
      <trkpt lat="47.18001" lon="-1.62345">
        <ele>22</ele>
        <time>2016-08-31T09:33:06Z</time>
      </trkpt>
      <trkpt lat="47.18008" lon="-1.62344">
        <ele>22</ele>
        <time>2016-08-31T09:33:12Z</time>
      </trkpt>
      <trkpt lat="47.18014" lon="-1.62342">
        <ele>21</ele>
        <time>2016-08-31T09:33:17Z</time>
      </trkpt>
      <trkpt lat="47.18021" lon="-1.62342">
        <ele>20</ele>
        <time>2016-08-31T09:33:22Z</time>
      </trkpt>
      <trkpt lat="47.18027" lon="-1.62338">
        <ele>18</ele>
        <time>2016-08-31T09:33:27Z</time>
      </trkpt>
      <trkpt lat="47.18034" lon="-1.62335">
        <ele>17</ele>
        <time>2016-08-31T09:33:32Z</time>
      </trkpt>
      <trkpt lat="47.1804" lon="-1.62331">
        <ele>14</ele>
        <time>2016-08-31T09:33:38Z</time>
      </trkpt>
      <trkpt lat="47.18047" lon="-1.62331">
        <ele>13</ele>
        <time>2016-08-31T09:33:43Z</time>
      </trkpt>
      <trkpt lat="47.18052" lon="-1.62329">
        <ele>12</ele>
        <time>2016-08-31T09:33:48Z</time>
      </trkpt>
      <trkpt lat="47.18059" lon="-1.62323">
        <ele>11</ele>
        <time>2016-08-31T09:33:54Z</time>
      </trkpt>
      <trkpt lat="47.18065" lon="-1.6232">
        <ele>9</ele>
        <time>2016-08-31T09:34:00Z</time>
      </trkpt>
      <trkpt lat="47.18071" lon="-1.62316">
        <ele>6</ele>
        <time>2016-08-31T09:34:05Z</time>
      </trkpt>
      <trkpt lat="47.18079" lon="-1.62313">
        <ele>5</ele>
        <time>2016-08-31T09:34:10Z</time>
      </trkpt>
      <trkpt lat="47.18086" lon="-1.6231">
        <ele>5</ele>
        <time>2016-08-31T09:34:15Z</time>
      </trkpt>
      <trkpt lat="47.18087" lon="-1.62302">
        <ele>3</ele>
        <time>2016-08-31T09:34:20Z</time>
      </trkpt>
      <trkpt lat="47.18084" lon="-1.62291">
        <ele>2</ele>
        <time>2016-08-31T09:34:25Z</time>
      </trkpt>
      <trkpt lat="47.18081" lon="-1.62283">
        <ele>2</ele>
        <time>2016-08-31T09:34:30Z</time>
      </trkpt>
      <trkpt lat="47.18078" lon="-1.62274">
        <ele>1</ele>
        <time>2016-08-31T09:34:35Z</time>
      </trkpt>
      <trkpt lat="47.18075" lon="-1.62266">
        <ele>6</ele>
        <time>2016-08-31T09:34:40Z</time>
      </trkpt>
      <trkpt lat="47.18071" lon="-1.62256">
        <ele>6</ele>
        <time>2016-08-31T09:34:46Z</time>
      </trkpt>
      <trkpt lat="47.18069" lon="-1.62247">
        <ele>5.9</ele>
        <time>2016-08-31T09:34:52Z</time>
      </trkpt>
      <trkpt lat="47.18072" lon="-1.6224">
        <ele>5.5</ele>
        <time>2016-08-31T09:34:58Z</time>
      </trkpt>
      <trkpt lat="47.18074" lon="-1.62236">
        <ele>5.2</ele>
        <time>2016-08-31T09:35:03Z</time>
      </trkpt>
      <trkpt lat="47.18078" lon="-1.62233">
        <ele>4.8</ele>
        <time>2016-08-31T09:35:11Z</time>
      </trkpt>
      <trkpt lat="47.18076" lon="-1.62234">
        <ele>4.9</ele>
        <time>2016-08-31T09:35:16Z</time>
      </trkpt>
      <trkpt lat="47.18076" lon="-1.62235">
        <ele>5</ele>
        <time>2016-08-31T09:35:23Z</time>
      </trkpt>
      <trkpt lat="47.18078" lon="-1.62236">
        <ele>4.9</ele>
        <time>2016-08-31T09:35:35Z</time>
      </trkpt>
      <trkpt lat="47.18079" lon="-1.62234">
        <ele>4.7</ele>
        <time>2016-08-31T09:35:58Z</time>
      </trkpt>
      <trkpt lat="47.18079" lon="-1.62233">
        <ele>4.7</ele>
        <time>2016-08-31T09:36:11Z</time>
      </trkpt>
      <trkpt lat="47.1808" lon="-1.62232">
        <ele>4.6</ele>
        <time>2016-08-31T09:36:28Z</time>
      </trkpt>
      <trkpt lat="47.18079" lon="-1.62232">
        <ele>4.6</ele>
        <time>2016-08-31T09:36:36Z</time>
      </trkpt>
    </trkseg>
  </trk>
</gpx>